<?xml version='1.0' encoding='UTF-8'?><gpx version="1.1" creator="JPX - https://github.com/jenetics/jpx" xmlns="http://www.topografix.com/GPX/1/1"><trk><trkseg><trkpt lat="45.6317643" lon="11.5449884"><ele>51.0</ele><time>2026-04-17T14:58:50.376Z</time></trkpt><trkpt lat="45.6317292" lon="11.544903"><ele>51.0</ele><time>2026-04-17T15:00:51.38Z</time></trkpt><trkpt lat="45.6317313" lon="11.5450106"><ele>51.0</ele><time>2026-04-17T15:01:12.381Z</time></trkpt><trkpt lat="45.6317254" lon="11.5451217"><ele>51.0</ele><time>2026-04-17T15:01:16.382Z</time></trkpt><trkpt lat="45.6317249" lon="11.5452332"><ele>51.0</ele><time>2026-04-17T15:01:20.382Z</time></trkpt><trkpt lat="45.6317732" lon="11.5453118"><ele>51.0</ele><time>2026-04-17T15:01:27.373Z</time></trkpt><trkpt lat="45.6318518" lon="11.545357"><ele>51.0</ele><time>2026-04-17T15:01:30.379Z</time></trkpt><trkpt lat="45.6319444" lon="11.5453697"><ele>51.0</ele><time>2026-04-17T15:01:33.384Z</time></trkpt><trkpt lat="45.6320375" lon="11.545377"><ele>51.0</ele><time>2026-04-17T15:01:36.383Z</time></trkpt><trkpt lat="45.632104" lon="11.5453818"><ele>51.0</ele><time>2026-04-17T15:01:38.382Z</time></trkpt><trkpt lat="45.6322" lon="11.5453881"><ele>51.0</ele><time>2026-04-17T15:01:41.379Z</time></trkpt><trkpt lat="45.6322644" lon="11.5453982"><ele>51.0</ele><time>2026-04-17T15:01:43.381Z</time></trkpt><trkpt lat="45.6323285" lon="11.5454034"><ele>51.142857142857146</ele><time>2026-04-17T15:01:45.379Z</time></trkpt><trkpt lat="45.6323925" lon="11.5454052"><ele>51.28571428571429</ele><time>2026-04-17T15:01:47.378Z</time></trkpt><trkpt lat="45.632454" lon="11.5454289"><ele>51.42857142857143</ele><time>2026-04-17T15:01:49.378Z</time></trkpt><trkpt lat="45.6325053" lon="11.5454866"><ele>51.57142857142857</ele><time>2026-04-17T15:01:51.378Z</time></trkpt><trkpt lat="45.6325497" lon="11.5455733"><ele>51.714285714285715</ele><time>2026-04-17T15:01:53.378Z</time></trkpt><trkpt lat="45.6325781" lon="11.5456643"><ele>51.857142857142854</ele><time>2026-04-17T15:01:55.379Z</time></trkpt><trkpt lat="45.6325988" lon="11.5457614"><ele>52.0</ele><time>2026-04-17T15:01:57.378Z</time></trkpt><trkpt lat="45.6326231" lon="11.5458571"><ele>52.0</ele><time>2026-04-17T15:01:59.374Z</time></trkpt><trkpt lat="45.6326399" lon="11.5459539"><ele>52.0</ele><time>2026-04-17T15:02:01.381Z</time></trkpt><trkpt lat="45.6326561" lon="11.5460499"><ele>52.0</ele><time>2026-04-17T15:02:03.379Z</time></trkpt><trkpt lat="45.6326789" lon="11.5461501"><ele>52.0</ele><time>2026-04-17T15:02:05.378Z</time></trkpt><trkpt lat="45.6327102" lon="11.546256"><ele>52.0</ele><time>2026-04-17T15:02:07.379Z</time></trkpt><trkpt lat="45.6327359" lon="11.5463675"><ele>52.0</ele><time>2026-04-17T15:02:09.378Z</time></trkpt><trkpt lat="45.6327539" lon="11.5464656"><ele>52.0</ele><time>2026-04-17T15:02:11.376Z</time></trkpt><trkpt lat="45.6327743" lon="11.5465665"><ele>52.0</ele><time>2026-04-17T15:02:13.376Z</time></trkpt><trkpt lat="45.6328057" lon="11.546671"><ele>52.0</ele><time>2026-04-17T15:02:15.375Z</time></trkpt><trkpt lat="45.6328329" lon="11.5467655"><ele>52.0</ele><time>2026-04-17T15:02:17.376Z</time></trkpt><trkpt lat="45.6328791" lon="11.54684"><ele>52.0</ele><time>2026-04-17T15:02:19.374Z</time></trkpt><trkpt lat="45.6329465" lon="11.5468877"><ele>52.0</ele><time>2026-04-17T15:02:21.376Z</time></trkpt><trkpt lat="45.6330152" lon="11.5469229"><ele>52.0</ele><time>2026-04-17T15:02:23.38Z</time></trkpt><trkpt lat="45.6330826" lon="11.5469538"><ele>52.0</ele><time>2026-04-17T15:02:25.377Z</time></trkpt><trkpt lat="45.6331531" lon="11.5469847"><ele>52.0</ele><time>2026-04-17T15:02:27.378Z</time></trkpt><trkpt lat="45.6332184" lon="11.547019"><ele>52.0</ele><time>2026-04-17T15:02:29.378Z</time></trkpt><trkpt lat="45.6332853" lon="11.5470566"><ele>52.0</ele><time>2026-04-17T15:02:31.38Z</time></trkpt><trkpt lat="45.6333519" lon="11.5470902"><ele>52.0</ele><time>2026-04-17T15:02:33.381Z</time></trkpt><trkpt lat="45.6334157" lon="11.5471247"><ele>52.0</ele><time>2026-04-17T15:02:35.38Z</time></trkpt><trkpt lat="45.6334835" lon="11.5471599"><ele>52.0</ele><time>2026-04-17T15:02:37.378Z</time></trkpt><trkpt lat="45.6335472" lon="11.5471937"><ele>52.0</ele><time>2026-04-17T15:02:39.382Z</time></trkpt><trkpt lat="45.6336126" lon="11.547225"><ele>52.285714285714285</ele><time>2026-04-17T15:02:41.375Z</time></trkpt><trkpt lat="45.6336738" lon="11.5472534"><ele>52.57142857142858</ele><time>2026-04-17T15:02:43.38Z</time></trkpt><trkpt lat="45.633735" lon="11.5472834"><ele>52.85714285714286</ele><time>2026-04-17T15:02:45.377Z</time></trkpt><trkpt lat="45.633795" lon="11.5473144"><ele>53.14285714285714</ele><time>2026-04-17T15:02:47.376Z</time></trkpt><trkpt lat="45.6338619" lon="11.547345"><ele>53.42857142857143</ele><time>2026-04-17T15:02:49.379Z</time></trkpt><trkpt lat="45.6339313" lon="11.5473732"><ele>53.714285714285715</ele><time>2026-04-17T15:02:51.377Z</time></trkpt><trkpt lat="45.6340042" lon="11.5473971"><ele>54.0</ele><time>2026-04-17T15:02:53.376Z</time></trkpt><trkpt lat="45.6340809" lon="11.5474177"><ele>54.0</ele><time>2026-04-17T15:02:55.376Z</time></trkpt><trkpt lat="45.6341527" lon="11.5474326"><ele>54.0</ele><time>2026-04-17T15:02:57.375Z</time></trkpt><trkpt lat="45.6342241" lon="11.5474533"><ele>54.0</ele><time>2026-04-17T15:02:59.376Z</time></trkpt><trkpt lat="45.6342955" lon="11.5474892"><ele>54.0</ele><time>2026-04-17T15:03:01.371Z</time></trkpt><trkpt lat="45.6343658" lon="11.5475284"><ele>54.0</ele><time>2026-04-17T15:03:03.379Z</time></trkpt><trkpt lat="45.6344381" lon="11.5475694"><ele>54.0</ele><time>2026-04-17T15:03:05.377Z</time></trkpt><trkpt lat="45.6345049" lon="11.5476094"><ele>54.0</ele><time>2026-04-17T15:03:07.37Z</time></trkpt><trkpt lat="45.6345618" lon="11.547669"><ele>54.285714285714285</ele><time>2026-04-17T15:03:09.377Z</time></trkpt><trkpt lat="45.634604" lon="11.5477521"><ele>54.57142857142857</ele><time>2026-04-17T15:03:11.374Z</time></trkpt><trkpt lat="45.6346418" lon="11.5478319"><ele>54.85714285714286</ele><time>2026-04-17T15:03:13.372Z</time></trkpt><trkpt lat="45.6346837" lon="11.547909"><ele>55.14285714285714</ele><time>2026-04-17T15:03:15.377Z</time></trkpt><trkpt lat="45.6347131" lon="11.5479947"><ele>55.42857142857143</ele><time>2026-04-17T15:03:17.38Z</time></trkpt><trkpt lat="45.6347466" lon="11.5480792"><ele>55.714285714285715</ele><time>2026-04-17T15:03:19.373Z</time></trkpt><trkpt lat="45.6347811" lon="11.5481704"><ele>56.0</ele><time>2026-04-17T15:03:21.379Z</time></trkpt><trkpt lat="45.6348055" lon="11.5482671"><ele>56.0</ele><time>2026-04-17T15:03:23.38Z</time></trkpt><trkpt lat="45.6348246" lon="11.548363"><ele>56.0</ele><time>2026-04-17T15:03:25.376Z</time></trkpt><trkpt lat="45.6348549" lon="11.5484573"><ele>56.0</ele><time>2026-04-17T15:03:27.378Z</time></trkpt><trkpt lat="45.6348833" lon="11.5485598"><ele>56.0</ele><time>2026-04-17T15:03:29.379Z</time></trkpt><trkpt lat="45.634909" lon="11.5486637"><ele>56.0</ele><time>2026-04-17T15:03:31.378Z</time></trkpt><trkpt lat="45.6349459" lon="11.5487576"><ele>56.0</ele><time>2026-04-17T15:03:33.382Z</time></trkpt><trkpt lat="45.63501" lon="11.5488191"><ele>56.0</ele><time>2026-04-17T15:03:35.379Z</time></trkpt><trkpt lat="45.6350909" lon="11.5488304"><ele>55.833333333333336</ele><time>2026-04-17T15:03:37.379Z</time></trkpt><trkpt lat="45.6351732" lon="11.5488085"><ele>55.66666666666667</ele><time>2026-04-17T15:03:39.378Z</time></trkpt><trkpt lat="45.6352511" lon="11.5487896"><ele>55.5</ele><time>2026-04-17T15:03:41.377Z</time></trkpt><trkpt lat="45.635331" lon="11.5487866"><ele>55.33333333333333</ele><time>2026-04-17T15:03:43.378Z</time></trkpt><trkpt lat="45.6354054" lon="11.5487969"><ele>55.166666666666664</ele><time>2026-04-17T15:03:45.378Z</time></trkpt><trkpt lat="45.6354815" lon="11.5488152"><ele>55.0</ele><time>2026-04-17T15:03:47.378Z</time></trkpt><trkpt lat="45.6355546" lon="11.5488384"><ele>55.49999999999999</ele><time>2026-04-17T15:03:49.38Z</time></trkpt><trkpt lat="45.6356298" lon="11.5488653"><ele>56.0</ele><time>2026-04-17T15:03:51.378Z</time></trkpt><trkpt lat="45.6357037" lon="11.5488904"><ele>56.5</ele><time>2026-04-17T15:03:53.383Z</time></trkpt><trkpt lat="45.635779" lon="11.5489173"><ele>57.0</ele><time>2026-04-17T15:03:55.379Z</time></trkpt><trkpt lat="45.6358526" lon="11.5489512"><ele>57.49999999999999</ele><time>2026-04-17T15:03:57.381Z</time></trkpt><trkpt lat="45.6359298" lon="11.5489821"><ele>58.0</ele><time>2026-04-17T15:03:59.381Z</time></trkpt><trkpt lat="45.6360073" lon="11.549007"><ele>57.99999999999999</ele><time>2026-04-17T15:04:01.377Z</time></trkpt><trkpt lat="45.6360827" lon="11.5490416"><ele>58.0</ele><time>2026-04-17T15:04:03.379Z</time></trkpt><trkpt lat="45.6361552" lon="11.5490796"><ele>58.0</ele><time>2026-04-17T15:04:05.38Z</time></trkpt><trkpt lat="45.6362264" lon="11.5491282"><ele>58.0</ele><time>2026-04-17T15:04:07.375Z</time></trkpt><trkpt lat="45.6362981" lon="11.5491741"><ele>57.99999999999999</ele><time>2026-04-17T15:04:09.382Z</time></trkpt><trkpt lat="45.6363699" lon="11.5492273"><ele>58.0</ele><time>2026-04-17T15:04:11.376Z</time></trkpt><trkpt lat="45.6364399" lon="11.5492786"><ele>57.99999999999999</ele><time>2026-04-17T15:04:13.378Z</time></trkpt><trkpt lat="45.6365104" lon="11.5493325"><ele>58.0</ele><time>2026-04-17T15:04:15.377Z</time></trkpt><trkpt lat="45.6365786" lon="11.5493905"><ele>58.0</ele><time>2026-04-17T15:04:17.375Z</time></trkpt><trkpt lat="45.6366496" lon="11.5494503"><ele>58.0</ele><time>2026-04-17T15:04:19.375Z</time></trkpt><trkpt lat="45.636721" lon="11.5495057"><ele>57.99999999999999</ele><time>2026-04-17T15:04:21.375Z</time></trkpt><trkpt lat="45.636796" lon="11.549558"><ele>58.0</ele><time>2026-04-17T15:04:23.378Z</time></trkpt><trkpt lat="45.6368721" lon="11.5496107"><ele>58.166666666666664</ele><time>2026-04-17T15:04:25.377Z</time></trkpt><trkpt lat="45.636947" lon="11.549667"><ele>58.33333333333333</ele><time>2026-04-17T15:04:27.376Z</time></trkpt><trkpt lat="45.6370263" lon="11.5497194"><ele>58.5</ele><time>2026-04-17T15:04:29.377Z</time></trkpt><trkpt lat="45.6371047" lon="11.549766"><ele>58.66666666666667</ele><time>2026-04-17T15:04:31.381Z</time></trkpt><trkpt lat="45.6371793" lon="11.5498112"><ele>58.833333333333336</ele><time>2026-04-17T15:04:33.379Z</time></trkpt><trkpt lat="45.6372577" lon="11.5498564"><ele>59.0</ele><time>2026-04-17T15:04:35.379Z</time></trkpt><trkpt lat="45.6373332" lon="11.5499046"><ele>59.16666666666667</ele><time>2026-04-17T15:04:37.378Z</time></trkpt><trkpt lat="45.6374092" lon="11.5499539"><ele>59.333333333333336</ele><time>2026-04-17T15:04:39.375Z</time></trkpt><trkpt lat="45.6374859" lon="11.5500035"><ele>59.5</ele><time>2026-04-17T15:04:41.377Z</time></trkpt><trkpt lat="45.6375647" lon="11.5500545"><ele>59.66666666666667</ele><time>2026-04-17T15:04:43.383Z</time></trkpt><trkpt lat="45.6376396" lon="11.5501056"><ele>59.833333333333336</ele><time>2026-04-17T15:04:45.379Z</time></trkpt><trkpt lat="45.637718" lon="11.5501558"><ele>60.0</ele><time>2026-04-17T15:04:47.377Z</time></trkpt><trkpt lat="45.6377926" lon="11.5501967"><ele>59.833333333333336</ele><time>2026-04-17T15:04:49.378Z</time></trkpt><trkpt lat="45.6378646" lon="11.5502428"><ele>59.66666666666667</ele><time>2026-04-17T15:04:51.374Z</time></trkpt><trkpt lat="45.6379455" lon="11.5502948"><ele>59.5</ele><time>2026-04-17T15:04:53.38Z</time></trkpt><trkpt lat="45.638021" lon="11.550344"><ele>59.333333333333336</ele><time>2026-04-17T15:04:55.377Z</time></trkpt><trkpt lat="45.6380935" lon="11.5503925"><ele>59.16666666666667</ele><time>2026-04-17T15:04:57.378Z</time></trkpt><trkpt lat="45.6381639" lon="11.5504463"><ele>59.0</ele><time>2026-04-17T15:04:59.379Z</time></trkpt><trkpt lat="45.6382356" lon="11.5504979"><ele>59.00000000000001</ele><time>2026-04-17T15:05:01.377Z</time></trkpt><trkpt lat="45.6383062" lon="11.5505435"><ele>59.0</ele><time>2026-04-17T15:05:03.384Z</time></trkpt><trkpt lat="45.6383789" lon="11.5505937"><ele>59.0</ele><time>2026-04-17T15:05:05.372Z</time></trkpt><trkpt lat="45.6384459" lon="11.5506496"><ele>59.0</ele><time>2026-04-17T15:05:07.376Z</time></trkpt><trkpt lat="45.6385183" lon="11.5507041"><ele>59.00000000000001</ele><time>2026-04-17T15:05:09.379Z</time></trkpt><trkpt lat="45.6385906" lon="11.5507441"><ele>59.0</ele><time>2026-04-17T15:05:11.377Z</time></trkpt><trkpt lat="45.6386595" lon="11.5507917"><ele>59.00000000000001</ele><time>2026-04-17T15:05:13.381Z</time></trkpt><trkpt lat="45.6387328" lon="11.5508426"><ele>59.0</ele><time>2026-04-17T15:05:15.379Z</time></trkpt><trkpt lat="45.6388064" lon="11.5508957"><ele>59.0</ele><time>2026-04-17T15:05:17.379Z</time></trkpt><trkpt lat="45.6388826" lon="11.5509504"><ele>59.0</ele><time>2026-04-17T15:05:19.38Z</time></trkpt><trkpt lat="45.6389613" lon="11.5509994"><ele>59.00000000000001</ele><time>2026-04-17T15:05:21.379Z</time></trkpt><trkpt lat="45.6390373" lon="11.5510461"><ele>59.0</ele><time>2026-04-17T15:05:23.381Z</time></trkpt><trkpt lat="45.6391184" lon="11.551094"><ele>59.00000000000001</ele><time>2026-04-17T15:05:25.379Z</time></trkpt><trkpt lat="45.6391966" lon="11.551145"><ele>59.0</ele><time>2026-04-17T15:05:27.376Z</time></trkpt><trkpt lat="45.6392746" lon="11.5511951"><ele>59.0</ele><time>2026-04-17T15:05:29.369Z</time></trkpt><trkpt lat="45.6393542" lon="11.5512455"><ele>59.0</ele><time>2026-04-17T15:05:31.378Z</time></trkpt><trkpt lat="45.639432" lon="11.5512864"><ele>59.00000000000001</ele><time>2026-04-17T15:05:33.381Z</time></trkpt><trkpt lat="45.6395013" lon="11.5513141"><ele>59.0</ele><time>2026-04-17T15:05:35.378Z</time></trkpt><trkpt lat="45.6395641" lon="11.551344"><ele>59.00000000000001</ele><time>2026-04-17T15:06:39.379Z</time></trkpt><trkpt lat="45.6396568" lon="11.5513705"><ele>59.0</ele><time>2026-04-17T15:06:43.385Z</time></trkpt><trkpt lat="45.6397329" lon="11.5513664"><ele>59.0</ele><time>2026-04-17T15:06:45.38Z</time></trkpt><trkpt lat="45.6398146" lon="11.5513422"><ele>59.0</ele><time>2026-04-17T15:06:47.38Z</time></trkpt><trkpt lat="45.6399006" lon="11.5513033"><ele>59.00000000000001</ele><time>2026-04-17T15:06:49.379Z</time></trkpt><trkpt lat="45.6399892" lon="11.5512786"><ele>59.0</ele><time>2026-04-17T15:06:51.379Z</time></trkpt><trkpt lat="45.6400753" lon="11.5512641"><ele>59.00000000000001</ele><time>2026-04-17T15:06:53.372Z</time></trkpt><trkpt lat="45.640162" lon="11.5512497"><ele>59.0</ele><time>2026-04-17T15:06:55.38Z</time></trkpt><trkpt lat="45.6402472" lon="11.5512482"><ele>59.0</ele><time>2026-04-17T15:06:57.37Z</time></trkpt><trkpt lat="45.6403294" lon="11.5512642"><ele>59.0</ele><time>2026-04-17T15:06:59.38Z</time></trkpt><trkpt lat="45.6404132" lon="11.5512988"><ele>59.00000000000001</ele><time>2026-04-17T15:07:01.378Z</time></trkpt><trkpt lat="45.6404994" lon="11.55133"><ele>59.0</ele><time>2026-04-17T15:07:03.379Z</time></trkpt><trkpt lat="45.6405833" lon="11.5513525"><ele>59.00000000000001</ele><time>2026-04-17T15:07:05.38Z</time></trkpt><trkpt lat="45.6406717" lon="11.5513849"><ele>59.0</ele><time>2026-04-17T15:07:07.38Z</time></trkpt><trkpt lat="45.6407552" lon="11.5514139"><ele>59.0</ele><time>2026-04-17T15:07:09.375Z</time></trkpt><trkpt lat="45.6408414" lon="11.5514407"><ele>59.0</ele><time>2026-04-17T15:07:11.377Z</time></trkpt><trkpt lat="45.6409311" lon="11.5514724"><ele>59.00000000000001</ele><time>2026-04-17T15:07:13.382Z</time></trkpt><trkpt lat="45.6410192" lon="11.5515039"><ele>59.0</ele><time>2026-04-17T15:07:15.379Z</time></trkpt><trkpt lat="45.641107" lon="11.5515293"><ele>59.00000000000001</ele><time>2026-04-17T15:07:17.381Z</time></trkpt><trkpt lat="45.6411942" lon="11.5515572"><ele>59.0</ele><time>2026-04-17T15:07:19.38Z</time></trkpt><trkpt lat="45.6412808" lon="11.5515838"><ele>59.0</ele><time>2026-04-17T15:07:21.38Z</time></trkpt><trkpt lat="45.6413656" lon="11.5516127"><ele>59.0</ele><time>2026-04-17T15:07:23.38Z</time></trkpt><trkpt lat="45.6414488" lon="11.5516388"><ele>59.00000000000001</ele><time>2026-04-17T15:07:25.375Z</time></trkpt><trkpt lat="45.6415323" lon="11.5516702"><ele>59.0</ele><time>2026-04-17T15:07:27.377Z</time></trkpt><trkpt lat="45.6416195" lon="11.5516983"><ele>59.00000000000001</ele><time>2026-04-17T15:07:29.378Z</time></trkpt><trkpt lat="45.6417072" lon="11.5517222"><ele>59.0</ele><time>2026-04-17T15:07:31.38Z</time></trkpt><trkpt lat="45.6417919" lon="11.5517478"><ele>59.0</ele><time>2026-04-17T15:07:33.384Z</time></trkpt><trkpt lat="45.6418779" lon="11.5517757"><ele>59.0</ele><time>2026-04-17T15:07:35.38Z</time></trkpt><trkpt lat="45.6419625" lon="11.5518099"><ele>59.00000000000001</ele><time>2026-04-17T15:07:37.379Z</time></trkpt><trkpt lat="45.6420447" lon="11.5518455"><ele>59.0</ele><time>2026-04-17T15:07:39.373Z</time></trkpt><trkpt lat="45.6421226" lon="11.5518922"><ele>59.333333333333336</ele><time>2026-04-17T15:07:41.379Z</time></trkpt><trkpt lat="45.6421953" lon="11.5519419"><ele>59.66666666666667</ele><time>2026-04-17T15:07:43.377Z</time></trkpt><trkpt lat="45.6422626" lon="11.5520038"><ele>60.0</ele><time>2026-04-17T15:07:45.379Z</time></trkpt><trkpt lat="45.6423306" lon="11.5520646"><ele>60.33333333333333</ele><time>2026-04-17T15:07:47.379Z</time></trkpt><trkpt lat="45.6423991" lon="11.5521321"><ele>60.666666666666664</ele><time>2026-04-17T15:07:49.379Z</time></trkpt><trkpt lat="45.6424665" lon="11.5521968"><ele>61.0</ele><time>2026-04-17T15:07:51.378Z</time></trkpt><trkpt lat="45.6425356" lon="11.5522666"><ele>61.166666666666664</ele><time>2026-04-17T15:07:53.379Z</time></trkpt><trkpt lat="45.6426032" lon="11.5523324"><ele>61.33333333333333</ele><time>2026-04-17T15:07:55.38Z</time></trkpt><trkpt lat="45.6426711" lon="11.5524016"><ele>61.5</ele><time>2026-04-17T15:07:57.378Z</time></trkpt><trkpt lat="45.6427408" lon="11.5524716"><ele>61.66666666666667</ele><time>2026-04-17T15:07:59.376Z</time></trkpt><trkpt lat="45.6428115" lon="11.5525356"><ele>61.833333333333336</ele><time>2026-04-17T15:08:01.379Z</time></trkpt><trkpt lat="45.642884" lon="11.5525996"><ele>62.0</ele><time>2026-04-17T15:08:03.382Z</time></trkpt><trkpt lat="45.6429549" lon="11.5526706"><ele>62.00000000000001</ele><time>2026-04-17T15:08:05.381Z</time></trkpt><trkpt lat="45.6430295" lon="11.5527371"><ele>62.0</ele><time>2026-04-17T15:08:07.38Z</time></trkpt><trkpt lat="45.643101" lon="11.5528037"><ele>62.0</ele><time>2026-04-17T15:08:09.381Z</time></trkpt><trkpt lat="45.6431735" lon="11.5528694"><ele>62.0</ele><time>2026-04-17T15:08:11.379Z</time></trkpt><trkpt lat="45.6432467" lon="11.5529333"><ele>62.00000000000001</ele><time>2026-04-17T15:08:13.38Z</time></trkpt><trkpt lat="45.6433224" lon="11.5529939"><ele>62.0</ele><time>2026-04-17T15:08:15.378Z</time></trkpt><trkpt lat="45.6433989" lon="11.5530518"><ele>62.16666666666667</ele><time>2026-04-17T15:08:17.376Z</time></trkpt><trkpt lat="45.6434801" lon="11.5531042"><ele>62.333333333333336</ele><time>2026-04-17T15:08:19.38Z</time></trkpt><trkpt lat="45.6435623" lon="11.5531498"><ele>62.5</ele><time>2026-04-17T15:08:21.382Z</time></trkpt><trkpt lat="45.6436463" lon="11.5531896"><ele>62.66666666666667</ele><time>2026-04-17T15:08:23.382Z</time></trkpt><trkpt lat="45.6437304" lon="11.5532341"><ele>62.833333333333336</ele><time>2026-04-17T15:08:25.38Z</time></trkpt><trkpt lat="45.6438176" lon="11.5532786"><ele>63.0</ele><time>2026-04-17T15:08:27.381Z</time></trkpt><trkpt lat="45.643905" lon="11.5533183"><ele>63.0</ele><time>2026-04-17T15:08:29.381Z</time></trkpt><trkpt lat="45.6439902" lon="11.5533557"><ele>63.0</ele><time>2026-04-17T15:08:31.381Z</time></trkpt><trkpt lat="45.6440764" lon="11.55339"><ele>63.0</ele><time>2026-04-17T15:08:33.384Z</time></trkpt><trkpt lat="45.6441627" lon="11.5534361"><ele>63.0</ele><time>2026-04-17T15:08:35.38Z</time></trkpt><trkpt lat="45.6442512" lon="11.5534779"><ele>63.0</ele><time>2026-04-17T15:08:37.38Z</time></trkpt><trkpt lat="45.6443424" lon="11.5535239"><ele>63.0</ele><time>2026-04-17T15:08:39.381Z</time></trkpt><trkpt lat="45.6444328" lon="11.5535641"><ele>63.0</ele><time>2026-04-17T15:08:41.379Z</time></trkpt><trkpt lat="45.6445206" lon="11.5536011"><ele>63.0</ele><time>2026-04-17T15:08:43.381Z</time></trkpt><trkpt lat="45.6446058" lon="11.5536397"><ele>63.0</ele><time>2026-04-17T15:08:45.38Z</time></trkpt><trkpt lat="45.6446926" lon="11.5536865"><ele>63.0</ele><time>2026-04-17T15:08:47.38Z</time></trkpt><trkpt lat="45.6447814" lon="11.553729"><ele>63.0</ele><time>2026-04-17T15:08:49.379Z</time></trkpt><trkpt lat="45.644868" lon="11.5537706"><ele>63.0</ele><time>2026-04-17T15:08:51.38Z</time></trkpt><trkpt lat="45.6449518" lon="11.5538127"><ele>63.0</ele><time>2026-04-17T15:08:53.383Z</time></trkpt><trkpt lat="45.6450355" lon="11.5538534"><ele>63.0</ele><time>2026-04-17T15:08:55.377Z</time></trkpt><trkpt lat="45.6451184" lon="11.5538896"><ele>63.0</ele><time>2026-04-17T15:08:57.379Z</time></trkpt><trkpt lat="45.6452045" lon="11.5539282"><ele>63.0</ele><time>2026-04-17T15:08:59.377Z</time></trkpt><trkpt lat="45.6452877" lon="11.553961"><ele>63.333333333333336</ele><time>2026-04-17T15:09:01.371Z</time></trkpt><trkpt lat="45.6453677" lon="11.5539967"><ele>63.66666666666667</ele><time>2026-04-17T15:09:03.381Z</time></trkpt><trkpt lat="45.6454498" lon="11.5540331"><ele>64.0</ele><time>2026-04-17T15:09:05.382Z</time></trkpt><trkpt lat="45.6455312" lon="11.5540719"><ele>64.33333333333334</ele><time>2026-04-17T15:09:07.379Z</time></trkpt><trkpt lat="45.6456123" lon="11.5541169"><ele>64.66666666666667</ele><time>2026-04-17T15:09:09.381Z</time></trkpt><trkpt lat="45.6456894" lon="11.5541691"><ele>65.0</ele><time>2026-04-17T15:09:11.378Z</time></trkpt><trkpt lat="45.6457574" lon="11.554237"><ele>65.0</ele><time>2026-04-17T15:09:13.383Z</time></trkpt><trkpt lat="45.6458207" lon="11.5543154"><ele>65.0</ele><time>2026-04-17T15:09:15.379Z</time></trkpt><trkpt lat="45.6458848" lon="11.5543926"><ele>65.0</ele><time>2026-04-17T15:09:17.378Z</time></trkpt><trkpt lat="45.6459494" lon="11.5544682"><ele>65.0</ele><time>2026-04-17T15:09:19.378Z</time></trkpt><trkpt lat="45.6460146" lon="11.5545398"><ele>65.0</ele><time>2026-04-17T15:09:21.38Z</time></trkpt><trkpt lat="45.6460852" lon="11.5546075"><ele>65.0</ele><time>2026-04-17T15:09:23.383Z</time></trkpt><trkpt lat="45.6461565" lon="11.5546674"><ele>65.0</ele><time>2026-04-17T15:09:25.383Z</time></trkpt><trkpt lat="45.646229" lon="11.5547153"><ele>65.0</ele><time>2026-04-17T15:09:27.38Z</time></trkpt><trkpt lat="45.6463048" lon="11.5547619"><ele>65.0</ele><time>2026-04-17T15:09:29.382Z</time></trkpt><trkpt lat="45.646381" lon="11.5548113"><ele>65.0</ele><time>2026-04-17T15:09:31.382Z</time></trkpt><trkpt lat="45.6464595" lon="11.5548601"><ele>65.0</ele><time>2026-04-17T15:09:33.387Z</time></trkpt><trkpt lat="45.6465384" lon="11.5549021"><ele>65.0</ele><time>2026-04-17T15:09:35.38Z</time></trkpt><trkpt lat="45.6466173" lon="11.5549524"><ele>65.0</ele><time>2026-04-17T15:09:37.381Z</time></trkpt><trkpt lat="45.6466877" lon="11.5550211"><ele>65.0</ele><time>2026-04-17T15:09:39.378Z</time></trkpt><trkpt lat="45.6467486" lon="11.5551004"><ele>65.0</ele><time>2026-04-17T15:09:41.372Z</time></trkpt><trkpt lat="45.6468017" lon="11.555181"><ele>65.0</ele><time>2026-04-17T15:09:44.38Z</time></trkpt><trkpt lat="45.6468742" lon="11.5552241"><ele>65.0</ele><time>2026-04-17T15:09:49.382Z</time></trkpt><trkpt lat="45.6469654" lon="11.5552122"><ele>65.0</ele><time>2026-04-17T15:09:52.374Z</time></trkpt><trkpt lat="45.6470275" lon="11.5551456"><ele>64.83333333333334</ele><time>2026-04-17T15:09:54.383Z</time></trkpt><trkpt lat="45.6470911" lon="11.5550688"><ele>64.66666666666667</ele><time>2026-04-17T15:09:56.382Z</time></trkpt><trkpt lat="45.6471587" lon="11.5549982"><ele>64.5</ele><time>2026-04-17T15:09:58.384Z</time></trkpt><trkpt lat="45.6472285" lon="11.5549302"><ele>64.33333333333333</ele><time>2026-04-17T15:10:00.376Z</time></trkpt><trkpt lat="45.6472957" lon="11.5548436"><ele>64.16666666666666</ele><time>2026-04-17T15:10:02.378Z</time></trkpt><trkpt lat="45.6473656" lon="11.5547695"><ele>64.0</ele><time>2026-04-17T15:10:04.379Z</time></trkpt><trkpt lat="45.6474382" lon="11.5547029"><ele>63.99999999999999</ele><time>2026-04-17T15:10:06.38Z</time></trkpt><trkpt lat="45.6475134" lon="11.5546314"><ele>64.0</ele><time>2026-04-17T15:10:08.38Z</time></trkpt><trkpt lat="45.6475812" lon="11.5545591"><ele>64.0</ele><time>2026-04-17T15:10:10.381Z</time></trkpt><trkpt lat="45.6476526" lon="11.554489"><ele>64.0</ele><time>2026-04-17T15:10:12.379Z</time></trkpt><trkpt lat="45.6477198" lon="11.5544194"><ele>63.99999999999999</ele><time>2026-04-17T15:10:14.382Z</time></trkpt><trkpt lat="45.6477872" lon="11.5543461"><ele>64.0</ele><time>2026-04-17T15:10:16.383Z</time></trkpt><trkpt lat="45.6478578" lon="11.5542792"><ele>64.16666666666666</ele><time>2026-04-17T15:10:18.382Z</time></trkpt><trkpt lat="45.6479274" lon="11.5542102"><ele>64.33333333333333</ele><time>2026-04-17T15:10:20.381Z</time></trkpt><trkpt lat="45.6479938" lon="11.5541392"><ele>64.5</ele><time>2026-04-17T15:10:22.382Z</time></trkpt><trkpt lat="45.648059" lon="11.5540701"><ele>64.66666666666667</ele><time>2026-04-17T15:10:24.384Z</time></trkpt><trkpt lat="45.6481243" lon="11.554004"><ele>64.83333333333334</ele><time>2026-04-17T15:10:26.382Z</time></trkpt><trkpt lat="45.6481886" lon="11.5539388"><ele>65.0</ele><time>2026-04-17T15:10:28.382Z</time></trkpt><trkpt lat="45.6482519" lon="11.5538736"><ele>65.0</ele><time>2026-04-17T15:10:30.382Z</time></trkpt><trkpt lat="45.6483154" lon="11.5538054"><ele>65.0</ele><time>2026-04-17T15:10:32.381Z</time></trkpt><trkpt lat="45.6483753" lon="11.5537318"><ele>65.0</ele><time>2026-04-17T15:10:34.38Z</time></trkpt><trkpt lat="45.6484409" lon="11.553672"><ele>65.0</ele><time>2026-04-17T15:10:36.382Z</time></trkpt><trkpt lat="45.6485037" lon="11.5536058"><ele>65.0</ele><time>2026-04-17T15:10:38.378Z</time></trkpt><trkpt lat="45.6485667" lon="11.5535419"><ele>65.0</ele><time>2026-04-17T15:10:40.381Z</time></trkpt><trkpt lat="45.6486306" lon="11.5534756"><ele>65.16666666666667</ele><time>2026-04-17T15:10:42.381Z</time></trkpt><trkpt lat="45.6486969" lon="11.5534132"><ele>65.33333333333334</ele><time>2026-04-17T15:10:44.382Z</time></trkpt><trkpt lat="45.6487667" lon="11.5533585"><ele>65.5</ele><time>2026-04-17T15:10:46.382Z</time></trkpt><trkpt lat="45.6488399" lon="11.5533084"><ele>65.66666666666667</ele><time>2026-04-17T15:10:48.382Z</time></trkpt><trkpt lat="45.6489133" lon="11.5532633"><ele>65.83333333333333</ele><time>2026-04-17T15:10:50.383Z</time></trkpt><trkpt lat="45.6489909" lon="11.5532252"><ele>66.0</ele><time>2026-04-17T15:10:52.382Z</time></trkpt><trkpt lat="45.6490719" lon="11.5531921"><ele>66.0</ele><time>2026-04-17T15:10:54.382Z</time></trkpt><trkpt lat="45.6491537" lon="11.5531666"><ele>66.0</ele><time>2026-04-17T15:10:56.382Z</time></trkpt><trkpt lat="45.6492353" lon="11.5531462"><ele>66.0</ele><time>2026-04-17T15:10:58.383Z</time></trkpt><trkpt lat="45.6493179" lon="11.5531354"><ele>66.0</ele><time>2026-04-17T15:11:00.383Z</time></trkpt><trkpt lat="45.6494023" lon="11.5531332"><ele>66.0</ele><time>2026-04-17T15:11:02.382Z</time></trkpt><trkpt lat="45.649486" lon="11.5531348"><ele>66.0</ele><time>2026-04-17T15:11:04.381Z</time></trkpt><trkpt lat="45.6495693" lon="11.5531384"><ele>66.0</ele><time>2026-04-17T15:11:06.379Z</time></trkpt><trkpt lat="45.649655" lon="11.553153"><ele>66.0</ele><time>2026-04-17T15:11:08.381Z</time></trkpt><trkpt lat="45.6497381" lon="11.5531781"><ele>66.0</ele><time>2026-04-17T15:11:10.381Z</time></trkpt><trkpt lat="45.6498216" lon="11.553213"><ele>66.0</ele><time>2026-04-17T15:11:12.38Z</time></trkpt><trkpt lat="45.6499047" lon="11.5532512"><ele>66.0</ele><time>2026-04-17T15:11:14.382Z</time></trkpt><trkpt lat="45.6499848" lon="11.5532977"><ele>66.0</ele><time>2026-04-17T15:11:16.382Z</time></trkpt><trkpt lat="45.6500615" lon="11.5533469"><ele>66.0</ele><time>2026-04-17T15:11:18.382Z</time></trkpt><trkpt lat="45.6501383" lon="11.5534015"><ele>66.0</ele><time>2026-04-17T15:11:20.382Z</time></trkpt><trkpt lat="45.6502137" lon="11.5534645"><ele>66.0</ele><time>2026-04-17T15:11:22.381Z</time></trkpt><trkpt lat="45.6502887" lon="11.5535274"><ele>66.0</ele><time>2026-04-17T15:11:24.385Z</time></trkpt><trkpt lat="45.6503658" lon="11.5535884"><ele>66.0</ele><time>2026-04-17T15:11:26.382Z</time></trkpt><trkpt lat="45.6504426" lon="11.5536476"><ele>66.0</ele><time>2026-04-17T15:11:28.382Z</time></trkpt><trkpt lat="45.6505205" lon="11.5537096"><ele>66.0</ele><time>2026-04-17T15:11:30.382Z</time></trkpt><trkpt lat="45.6505988" lon="11.5537663"><ele>66.0</ele><time>2026-04-17T15:11:32.382Z</time></trkpt><trkpt lat="45.6506798" lon="11.5538308"><ele>66.0</ele><time>2026-04-17T15:11:34.382Z</time></trkpt><trkpt lat="45.650763" lon="11.5538947"><ele>66.0</ele><time>2026-04-17T15:11:36.385Z</time></trkpt><trkpt lat="45.6508425" lon="11.5539663"><ele>66.0</ele><time>2026-04-17T15:11:38.376Z</time></trkpt><trkpt lat="45.6509261" lon="11.5540334"><ele>66.0</ele><time>2026-04-17T15:11:40.384Z</time></trkpt><trkpt lat="45.6510116" lon="11.5541032"><ele>66.0</ele><time>2026-04-17T15:11:42.381Z</time></trkpt><trkpt lat="45.6511013" lon="11.5541737"><ele>66.0</ele><time>2026-04-17T15:11:44.381Z</time></trkpt><trkpt lat="45.6511892" lon="11.5542507"><ele>66.0</ele><time>2026-04-17T15:11:46.384Z</time></trkpt><trkpt lat="45.6512734" lon="11.5543309"><ele>66.0</ele><time>2026-04-17T15:11:48.383Z</time></trkpt><trkpt lat="45.6513532" lon="11.554428"><ele>66.0</ele><time>2026-04-17T15:11:50.383Z</time></trkpt><trkpt lat="45.6514276" lon="11.5545415"><ele>66.0</ele><time>2026-04-17T15:11:52.383Z</time></trkpt><trkpt lat="45.6514995" lon="11.5546641"><ele>66.0</ele><time>2026-04-17T15:11:54.383Z</time></trkpt><trkpt lat="45.6515651" lon="11.5548019"><ele>66.0</ele><time>2026-04-17T15:11:56.382Z</time></trkpt><trkpt lat="45.6516372" lon="11.5549426"><ele>66.0</ele><time>2026-04-17T15:11:58.382Z</time></trkpt><trkpt lat="45.6517017" lon="11.5550945"><ele>66.0</ele><time>2026-04-17T15:12:00.383Z</time></trkpt><trkpt lat="45.6517364" lon="11.5551714"><ele>66.0</ele><time>2026-04-17T15:12:01.385Z</time></trkpt><trkpt lat="45.6517742" lon="11.5552478"><ele>66.0</ele><time>2026-04-17T15:12:02.384Z</time></trkpt><trkpt lat="45.6518131" lon="11.5553238"><ele>66.0</ele><time>2026-04-17T15:12:03.39Z</time></trkpt><trkpt lat="45.6518495" lon="11.5554038"><ele>66.0</ele><time>2026-04-17T15:12:04.382Z</time></trkpt><trkpt lat="45.6518797" lon="11.5554842"><ele>66.0</ele><time>2026-04-17T15:12:05.381Z</time></trkpt><trkpt lat="45.6519338" lon="11.5555949"><ele>66.0</ele><time>2026-04-17T15:12:07.381Z</time></trkpt><trkpt lat="45.6519671" lon="11.5554921"><ele>66.0</ele><time>2026-04-17T15:12:10.38Z</time></trkpt><trkpt lat="45.6519391" lon="11.5553331"><ele>66.0</ele><time>2026-04-17T15:12:12.38Z</time></trkpt><trkpt lat="45.651917" lon="11.5551557"><ele>66.0</ele><time>2026-04-17T15:12:14.383Z</time></trkpt><trkpt lat="45.6519155" lon="11.5550631"><ele>66.0</ele><time>2026-04-17T15:12:15.382Z</time></trkpt><trkpt lat="45.6519193" lon="11.5549682"><ele>66.0</ele><time>2026-04-17T15:12:16.381Z</time></trkpt><trkpt lat="45.6519266" lon="11.5548753"><ele>66.0</ele><time>2026-04-17T15:12:17.382Z</time></trkpt><trkpt lat="45.6519373" lon="11.5547829"><ele>66.0</ele><time>2026-04-17T15:12:18.383Z</time></trkpt><trkpt lat="45.6519455" lon="11.5546929"><ele>66.0</ele><time>2026-04-17T15:12:19.381Z</time></trkpt><trkpt lat="45.6519672" lon="11.5545377"><ele>66.0</ele><time>2026-04-17T15:12:21.383Z</time></trkpt><trkpt lat="45.6520344" lon="11.5544753"><ele>65.83333333333333</ele><time>2026-04-17T15:12:23.386Z</time></trkpt><trkpt lat="45.6521234" lon="11.5545179"><ele>65.66666666666667</ele><time>2026-04-17T15:12:25.382Z</time></trkpt><trkpt lat="45.6522015" lon="11.5545662"><ele>65.5</ele><time>2026-04-17T15:12:27.382Z</time></trkpt><trkpt lat="45.6522825" lon="11.5546048"><ele>65.33333333333334</ele><time>2026-04-17T15:12:29.382Z</time></trkpt><trkpt lat="45.6523619" lon="11.5546597"><ele>65.16666666666667</ele><time>2026-04-17T15:12:31.381Z</time></trkpt><trkpt lat="45.6524349" lon="11.5547275"><ele>65.0</ele><time>2026-04-17T15:12:33.386Z</time></trkpt><trkpt lat="45.6525009" lon="11.5547919"><ele>65.0</ele><time>2026-04-17T15:12:35.383Z</time></trkpt><trkpt lat="45.6525676" lon="11.5548591"><ele>65.0</ele><time>2026-04-17T15:12:37.381Z</time></trkpt><trkpt lat="45.6526327" lon="11.5549275"><ele>65.0</ele><time>2026-04-17T15:12:39.385Z</time></trkpt><trkpt lat="45.6526947" lon="11.5549955"><ele>65.0</ele><time>2026-04-17T15:12:41.381Z</time></trkpt><trkpt lat="45.6527652" lon="11.5550504"><ele>65.0</ele><time>2026-04-17T15:12:43.388Z</time></trkpt><trkpt lat="45.6528468" lon="11.5550814"><ele>65.0</ele><time>2026-04-17T15:12:45.383Z</time></trkpt><trkpt lat="45.6529329" lon="11.5550885"><ele>65.33333333333334</ele><time>2026-04-17T15:12:47.382Z</time></trkpt><trkpt lat="45.6530164" lon="11.5550838"><ele>65.66666666666667</ele><time>2026-04-17T15:12:49.38Z</time></trkpt><trkpt lat="45.6530978" lon="11.5550924"><ele>66.0</ele><time>2026-04-17T15:12:51.381Z</time></trkpt><trkpt lat="45.6531787" lon="11.555101"><ele>66.33333333333333</ele><time>2026-04-17T15:12:53.382Z</time></trkpt><trkpt lat="45.6532615" lon="11.555103"><ele>66.66666666666666</ele><time>2026-04-17T15:12:55.378Z</time></trkpt><trkpt lat="45.65334" lon="11.5551046"><ele>67.0</ele><time>2026-04-17T15:12:57.378Z</time></trkpt><trkpt lat="45.6534191" lon="11.5551044"><ele>67.0</ele><time>2026-04-17T15:12:59.377Z</time></trkpt><trkpt lat="45.6534966" lon="11.5550946"><ele>67.0</ele><time>2026-04-17T15:13:01.379Z</time></trkpt><trkpt lat="45.6535774" lon="11.5550876"><ele>67.0</ele><time>2026-04-17T15:13:03.382Z</time></trkpt><trkpt lat="45.6536637" lon="11.555079"><ele>67.0</ele><time>2026-04-17T15:13:05.369Z</time></trkpt><trkpt lat="45.6537484" lon="11.555074"><ele>67.0</ele><time>2026-04-17T15:13:07.369Z</time></trkpt><trkpt lat="45.6538344" lon="11.5550691"><ele>67.0</ele><time>2026-04-17T15:13:09.377Z</time></trkpt><trkpt lat="45.653917" lon="11.5550584"><ele>67.0</ele><time>2026-04-17T15:13:11.377Z</time></trkpt><trkpt lat="45.6540003" lon="11.5550471"><ele>67.0</ele><time>2026-04-17T15:13:13.382Z</time></trkpt><trkpt lat="45.6540845" lon="11.5550453"><ele>67.0</ele><time>2026-04-17T15:13:15.377Z</time></trkpt><trkpt lat="45.6541661" lon="11.5550404"><ele>67.0</ele><time>2026-04-17T15:13:17.38Z</time></trkpt><trkpt lat="45.6542524" lon="11.555036"><ele>67.0</ele><time>2026-04-17T15:13:19.384Z</time></trkpt><trkpt lat="45.6543391" lon="11.5550312"><ele>67.0</ele><time>2026-04-17T15:13:21.38Z</time></trkpt><trkpt lat="45.6544257" lon="11.5550242"><ele>66.83333333333333</ele><time>2026-04-17T15:13:23.383Z</time></trkpt><trkpt lat="45.654509" lon="11.5550187"><ele>66.66666666666666</ele><time>2026-04-17T15:13:25.379Z</time></trkpt><trkpt lat="45.6545894" lon="11.5550216"><ele>66.5</ele><time>2026-04-17T15:13:27.379Z</time></trkpt><trkpt lat="45.6546713" lon="11.5550182"><ele>66.33333333333333</ele><time>2026-04-17T15:13:29.38Z</time></trkpt><trkpt lat="45.654752" lon="11.5550042"><ele>66.16666666666667</ele><time>2026-04-17T15:13:31.379Z</time></trkpt><trkpt lat="45.6548334" lon="11.5550034"><ele>66.0</ele><time>2026-04-17T15:13:33.383Z</time></trkpt><trkpt lat="45.654913" lon="11.5549956"><ele>66.0</ele><time>2026-04-17T15:13:35.382Z</time></trkpt><trkpt lat="45.6549858" lon="11.5549883"><ele>66.0</ele><time>2026-04-17T15:13:37.38Z</time></trkpt><trkpt lat="45.6550567" lon="11.5549798"><ele>66.0</ele><time>2026-04-17T15:13:39.381Z</time></trkpt><trkpt lat="45.6551328" lon="11.5549768"><ele>66.0</ele><time>2026-04-17T15:13:41.379Z</time></trkpt><trkpt lat="45.6552094" lon="11.554978"><ele>66.0</ele><time>2026-04-17T15:13:43.384Z</time></trkpt><trkpt lat="45.6552897" lon="11.5549738"><ele>66.0</ele><time>2026-04-17T15:13:45.381Z</time></trkpt><trkpt lat="45.6553716" lon="11.5549666"><ele>66.33333333333333</ele><time>2026-04-17T15:13:47.38Z</time></trkpt><trkpt lat="45.6554554" lon="11.5549605"><ele>66.66666666666667</ele><time>2026-04-17T15:13:49.382Z</time></trkpt><trkpt lat="45.6555408" lon="11.5549625"><ele>67.0</ele><time>2026-04-17T15:13:51.381Z</time></trkpt><trkpt lat="45.6556191" lon="11.554956"><ele>67.33333333333334</ele><time>2026-04-17T15:13:53.378Z</time></trkpt><trkpt lat="45.6556914" lon="11.5549506"><ele>67.66666666666667</ele><time>2026-04-17T15:13:55.378Z</time></trkpt><trkpt lat="45.6557702" lon="11.5549248"><ele>68.0</ele><time>2026-04-17T15:13:57.38Z</time></trkpt><trkpt lat="45.6558414" lon="11.5548808"><ele>68.0</ele><time>2026-04-17T15:13:59.382Z</time></trkpt><trkpt lat="45.655909" lon="11.5548064"><ele>68.0</ele><time>2026-04-17T15:14:01.382Z</time></trkpt><trkpt lat="45.6559725" lon="11.5547195"><ele>68.0</ele><time>2026-04-17T15:14:03.383Z</time></trkpt><trkpt lat="45.6560394" lon="11.5546365"><ele>68.0</ele><time>2026-04-17T15:14:05.382Z</time></trkpt><trkpt lat="45.6561015" lon="11.5545593"><ele>68.0</ele><time>2026-04-17T15:14:07.382Z</time></trkpt><trkpt lat="45.6561666" lon="11.5544907"><ele>68.0</ele><time>2026-04-17T15:14:09.385Z</time></trkpt><trkpt lat="45.6562359" lon="11.5544252"><ele>68.16666666666667</ele><time>2026-04-17T15:14:11.381Z</time></trkpt><trkpt lat="45.6563107" lon="11.5543663"><ele>68.33333333333334</ele><time>2026-04-17T15:14:13.384Z</time></trkpt><trkpt lat="45.6564002" lon="11.5543366"><ele>68.5</ele><time>2026-04-17T15:14:15.382Z</time></trkpt><trkpt lat="45.6564888" lon="11.5543186"><ele>68.66666666666667</ele><time>2026-04-17T15:14:17.382Z</time></trkpt><trkpt lat="45.6565765" lon="11.5542991"><ele>68.83333333333333</ele><time>2026-04-17T15:14:19.381Z</time></trkpt><trkpt lat="45.6566644" lon="11.5542799"><ele>69.0</ele><time>2026-04-17T15:14:21.381Z</time></trkpt><trkpt lat="45.6567475" lon="11.5542552"><ele>69.0</ele><time>2026-04-17T15:14:23.383Z</time></trkpt><trkpt lat="45.6568305" lon="11.5542205"><ele>69.0</ele><time>2026-04-17T15:14:25.383Z</time></trkpt><trkpt lat="45.6569173" lon="11.554196"><ele>69.0</ele><time>2026-04-17T15:14:27.38Z</time></trkpt><trkpt lat="45.6570052" lon="11.5541762"><ele>69.0</ele><time>2026-04-17T15:14:29.38Z</time></trkpt><trkpt lat="45.6570949" lon="11.5541559"><ele>69.0</ele><time>2026-04-17T15:14:31.382Z</time></trkpt><trkpt lat="45.6571826" lon="11.5541348"><ele>69.0</ele><time>2026-04-17T15:14:33.38Z</time></trkpt><trkpt lat="45.657271" lon="11.5541253"><ele>69.0</ele><time>2026-04-17T15:14:35.378Z</time></trkpt><trkpt lat="45.6573483" lon="11.5541131"><ele>69.0</ele><time>2026-04-17T15:14:37.377Z</time></trkpt><trkpt lat="45.657417" lon="11.5541052"><ele>69.0</ele><time>2026-04-17T15:14:39.377Z</time></trkpt><trkpt lat="45.6574807" lon="11.5541405"><ele>69.0</ele><time>2026-04-17T15:14:41.378Z</time></trkpt><trkpt lat="45.6575141" lon="11.5542386"><ele>69.0</ele><time>2026-04-17T15:14:43.377Z</time></trkpt><trkpt lat="45.6575474" lon="11.5543589"><ele>69.0</ele><time>2026-04-17T15:14:45.379Z</time></trkpt><trkpt lat="45.6575745" lon="11.5544753"><ele>69.16666666666667</ele><time>2026-04-17T15:14:47.381Z</time></trkpt><trkpt lat="45.6576028" lon="11.5545919"><ele>69.33333333333333</ele><time>2026-04-17T15:14:49.38Z</time></trkpt><trkpt lat="45.6576289" lon="11.5547034"><ele>69.5</ele><time>2026-04-17T15:14:51.377Z</time></trkpt><trkpt lat="45.6576519" lon="11.5548162"><ele>69.66666666666666</ele><time>2026-04-17T15:14:53.383Z</time></trkpt><trkpt lat="45.6576776" lon="11.5549333"><ele>69.83333333333333</ele><time>2026-04-17T15:14:55.382Z</time></trkpt><trkpt lat="45.6577041" lon="11.5550455"><ele>70.0</ele><time>2026-04-17T15:14:57.38Z</time></trkpt><trkpt lat="45.6577354" lon="11.5551606"><ele>70.0</ele><time>2026-04-17T15:14:59.375Z</time></trkpt><trkpt lat="45.6577666" lon="11.5552739"><ele>70.0</ele><time>2026-04-17T15:15:01.38Z</time></trkpt><trkpt lat="45.6577909" lon="11.5553882"><ele>70.0</ele><time>2026-04-17T15:15:03.378Z</time></trkpt><trkpt lat="45.6578151" lon="11.5554989"><ele>70.0</ele><time>2026-04-17T15:15:05.373Z</time></trkpt><trkpt lat="45.6578454" lon="11.5556149"><ele>70.0</ele><time>2026-04-17T15:15:07.376Z</time></trkpt><trkpt lat="45.6578743" lon="11.5557299"><ele>70.0</ele><time>2026-04-17T15:15:09.382Z</time></trkpt><trkpt lat="45.6579021" lon="11.5558453"><ele>70.0</ele><time>2026-04-17T15:15:11.381Z</time></trkpt><trkpt lat="45.657927" lon="11.55596"><ele>70.0</ele><time>2026-04-17T15:15:13.386Z</time></trkpt><trkpt lat="45.657951" lon="11.5560733"><ele>70.0</ele><time>2026-04-17T15:15:15.382Z</time></trkpt><trkpt lat="45.6579764" lon="11.5561919"><ele>70.0</ele><time>2026-04-17T15:15:17.381Z</time></trkpt><trkpt lat="45.6580041" lon="11.5563074"><ele>70.0</ele><time>2026-04-17T15:15:19.383Z</time></trkpt><trkpt lat="45.6580297" lon="11.5564215"><ele>70.0</ele><time>2026-04-17T15:15:21.383Z</time></trkpt><trkpt lat="45.6580588" lon="11.5565354"><ele>70.0</ele><time>2026-04-17T15:15:23.387Z</time></trkpt><trkpt lat="45.6580878" lon="11.5566495"><ele>70.0</ele><time>2026-04-17T15:15:25.383Z</time></trkpt><trkpt lat="45.6581164" lon="11.5567639"><ele>70.0</ele><time>2026-04-17T15:15:27.384Z</time></trkpt><trkpt lat="45.6581414" lon="11.5568793"><ele>70.0</ele><time>2026-04-17T15:15:29.383Z</time></trkpt><trkpt lat="45.6581669" lon="11.5569885"><ele>70.0</ele><time>2026-04-17T15:15:31.382Z</time></trkpt><trkpt lat="45.658193" lon="11.5570967"><ele>70.0</ele><time>2026-04-17T15:15:33.386Z</time></trkpt><trkpt lat="45.6582176" lon="11.5572097"><ele>70.33333333333333</ele><time>2026-04-17T15:15:35.384Z</time></trkpt><trkpt lat="45.6582437" lon="11.5573192"><ele>70.66666666666666</ele><time>2026-04-17T15:15:37.384Z</time></trkpt><trkpt lat="45.6582688" lon="11.55743"><ele>71.0</ele><time>2026-04-17T15:15:39.385Z</time></trkpt><trkpt lat="45.6583057" lon="11.5575384"><ele>71.33333333333333</ele><time>2026-04-17T15:15:41.381Z</time></trkpt><trkpt lat="45.6583456" lon="11.5576426"><ele>71.66666666666667</ele><time>2026-04-17T15:15:43.387Z</time></trkpt><trkpt lat="45.6583683" lon="11.5577509"><ele>72.0</ele><time>2026-04-17T15:15:45.384Z</time></trkpt><trkpt lat="45.6583703" lon="11.5578642"><ele>72.0</ele><time>2026-04-17T15:15:47.383Z</time></trkpt><trkpt lat="45.6583474" lon="11.5579783"><ele>72.0</ele><time>2026-04-17T15:15:49.374Z</time></trkpt><trkpt lat="45.6583258" lon="11.5580956"><ele>72.0</ele><time>2026-04-17T15:15:51.383Z</time></trkpt><trkpt lat="45.6583536" lon="11.5582099"><ele>72.0</ele><time>2026-04-17T15:15:53.387Z</time></trkpt><trkpt lat="45.6584325" lon="11.5582774"><ele>72.0</ele><time>2026-04-17T15:15:55.383Z</time></trkpt><trkpt lat="45.6585237" lon="11.5582659"><ele>72.0</ele><time>2026-04-17T15:15:57.384Z</time></trkpt><trkpt lat="45.6586042" lon="11.558203"><ele>72.5</ele><time>2026-04-17T15:15:59.382Z</time></trkpt><trkpt lat="45.6586932" lon="11.558158"><ele>73.0</ele><time>2026-04-17T15:16:01.382Z</time></trkpt><trkpt lat="45.6587846" lon="11.5581536"><ele>73.5</ele><time>2026-04-17T15:16:03.385Z</time></trkpt><trkpt lat="45.6588706" lon="11.5581724"><ele>74.0</ele><time>2026-04-17T15:16:05.383Z</time></trkpt><trkpt lat="45.6589555" lon="11.558194"><ele>74.5</ele><time>2026-04-17T15:16:07.384Z</time></trkpt><trkpt lat="45.6590432" lon="11.5582176"><ele>75.0</ele><time>2026-04-17T15:16:09.384Z</time></trkpt><trkpt lat="45.6591303" lon="11.5582375"><ele>75.0</ele><time>2026-04-17T15:16:11.381Z</time></trkpt><trkpt lat="45.6592193" lon="11.5582591"><ele>75.0</ele><time>2026-04-17T15:16:13.389Z</time></trkpt><trkpt lat="45.6593084" lon="11.5582739"><ele>75.0</ele><time>2026-04-17T15:16:15.383Z</time></trkpt><trkpt lat="45.6593953" lon="11.5582848"><ele>75.0</ele><time>2026-04-17T15:16:17.382Z</time></trkpt><trkpt lat="45.6594811" lon="11.558295"><ele>75.0</ele><time>2026-04-17T15:16:19.381Z</time></trkpt><trkpt lat="45.6595648" lon="11.558296"><ele>75.0</ele><time>2026-04-17T15:16:21.382Z</time></trkpt><trkpt lat="45.6596522" lon="11.5582886"><ele>75.33333333333333</ele><time>2026-04-17T15:16:23.387Z</time></trkpt><trkpt lat="45.6597384" lon="11.5582848"><ele>75.66666666666667</ele><time>2026-04-17T15:16:25.382Z</time></trkpt><trkpt lat="45.6598205" lon="11.5582835"><ele>76.0</ele><time>2026-04-17T15:16:27.381Z</time></trkpt><trkpt lat="45.6599027" lon="11.5582905"><ele>76.33333333333334</ele><time>2026-04-17T15:16:29.381Z</time></trkpt><trkpt lat="45.6599646" lon="11.5582208"><ele>76.66666666666667</ele><time>2026-04-17T15:16:31.382Z</time></trkpt><trkpt lat="45.6600019" lon="11.5581044"><ele>77.0</ele><time>2026-04-17T15:16:33.384Z</time></trkpt><trkpt lat="45.6600317" lon="11.5579913"><ele>77.0</ele><time>2026-04-17T15:16:35.383Z</time></trkpt><trkpt lat="45.6600675" lon="11.5578842"><ele>77.0</ele><time>2026-04-17T15:16:37.382Z</time></trkpt><trkpt lat="45.6601002" lon="11.5577831"><ele>77.0</ele><time>2026-04-17T15:16:39.382Z</time></trkpt><trkpt lat="45.6601416" lon="11.557691"><ele>77.0</ele><time>2026-04-17T15:16:41.381Z</time></trkpt><trkpt lat="45.6601885" lon="11.5576099"><ele>77.0</ele><time>2026-04-17T15:16:43.383Z</time></trkpt><trkpt lat="45.660229" lon="11.5575329"><ele>77.0</ele><time>2026-04-17T15:16:45.381Z</time></trkpt><trkpt lat="45.6602687" lon="11.5574608"><ele>77.0</ele><time>2026-04-17T15:16:47.382Z</time></trkpt><trkpt lat="45.6603267" lon="11.5573659"><ele>77.33333333333334</ele><time>2026-04-17T15:16:50.382Z</time></trkpt><trkpt lat="45.6603706" lon="11.5572756"><ele>77.66666666666667</ele><time>2026-04-17T15:16:53.383Z</time></trkpt><trkpt lat="45.6604204" lon="11.5571779"><ele>78.0</ele><time>2026-04-17T15:16:56.382Z</time></trkpt><trkpt lat="45.6604543" lon="11.5570708"><ele>78.33333333333333</ele><time>2026-04-17T15:16:59.38Z</time></trkpt><trkpt lat="45.6604775" lon="11.5569709"><ele>78.66666666666666</ele><time>2026-04-17T15:17:02.381Z</time></trkpt><trkpt lat="45.6605024" lon="11.556874"><ele>79.0</ele><time>2026-04-17T15:17:05.38Z</time></trkpt><trkpt lat="45.6605283" lon="11.556768"><ele>80.00000000000001</ele><time>2026-04-17T15:17:09.378Z</time></trkpt><trkpt lat="45.6605664" lon="11.5566646"><ele>81.0</ele><time>2026-04-17T15:17:13.38Z</time></trkpt><trkpt lat="45.6606087" lon="11.5565812"><ele>82.0</ele><time>2026-04-17T15:17:17.386Z</time></trkpt><trkpt lat="45.6606527" lon="11.5564951"><ele>83.0</ele><time>2026-04-17T15:17:21.381Z</time></trkpt><trkpt lat="45.6607078" lon="11.5564226"><ele>84.0</ele><time>2026-04-17T15:17:25.38Z</time></trkpt><trkpt lat="45.6607542" lon="11.5563597"><ele>85.00000000000001</ele><time>2026-04-17T15:17:29.382Z</time></trkpt><trkpt lat="45.6608124" lon="11.5562907"><ele>86.0</ele><time>2026-04-17T15:17:34.38Z</time></trkpt><trkpt lat="45.6608639" lon="11.5562273"><ele>86.85714285714286</ele><time>2026-04-17T15:17:39.371Z</time></trkpt><trkpt lat="45.6609107" lon="11.5561378"><ele>87.71428571428572</ele><time>2026-04-17T15:17:44.378Z</time></trkpt><trkpt lat="45.6609605" lon="11.5560537"><ele>88.57142857142858</ele><time>2026-04-17T15:17:46.378Z</time></trkpt><trkpt lat="45.6610043" lon="11.5559888"><ele>89.42857142857143</ele><time>2026-04-17T15:17:49.378Z</time></trkpt><trkpt lat="45.6610484" lon="11.5559187"><ele>90.28571428571428</ele><time>2026-04-17T15:17:53.379Z</time></trkpt><trkpt lat="45.6610842" lon="11.5558194"><ele>91.14285714285715</ele><time>2026-04-17T15:17:57.379Z</time></trkpt><trkpt lat="45.6611168" lon="11.5557243"><ele>92.0</ele><time>2026-04-17T15:18:01.379Z</time></trkpt><trkpt lat="45.661131" lon="11.5556214"><ele>93.42857142857143</ele><time>2026-04-17T15:18:05.379Z</time></trkpt><trkpt lat="45.6611486" lon="11.5555163"><ele>94.85714285714285</ele><time>2026-04-17T15:18:09.381Z</time></trkpt><trkpt lat="45.6611606" lon="11.5554093"><ele>96.28571428571428</ele><time>2026-04-17T15:18:13.383Z</time></trkpt><trkpt lat="45.6611699" lon="11.5552975"><ele>97.71428571428572</ele><time>2026-04-17T15:18:17.38Z</time></trkpt><trkpt lat="45.6611822" lon="11.5551898"><ele>99.14285714285714</ele><time>2026-04-17T15:18:21.381Z</time></trkpt><trkpt lat="45.6611983" lon="11.5551003"><ele>100.57142857142857</ele><time>2026-04-17T15:18:24.379Z</time></trkpt><trkpt lat="45.6612125" lon="11.5550055"><ele>102.0</ele><time>2026-04-17T15:18:27.379Z</time></trkpt><trkpt lat="45.6612268" lon="11.5549058"><ele>102.28571428571429</ele><time>2026-04-17T15:18:30.38Z</time></trkpt><trkpt lat="45.6612339" lon="11.554807"><ele>102.57142857142858</ele><time>2026-04-17T15:18:33.386Z</time></trkpt><trkpt lat="45.6612152" lon="11.5547089"><ele>102.85714285714286</ele><time>2026-04-17T15:18:36.379Z</time></trkpt><trkpt lat="45.6611914" lon="11.5546034"><ele>103.14285714285714</ele><time>2026-04-17T15:18:39.38Z</time></trkpt><trkpt lat="45.6611645" lon="11.5545041"><ele>103.42857142857143</ele><time>2026-04-17T15:18:42.378Z</time></trkpt><trkpt lat="45.6611506" lon="11.5543923"><ele>103.71428571428571</ele><time>2026-04-17T15:18:45.379Z</time></trkpt><trkpt lat="45.6611255" lon="11.5542938"><ele>104.0</ele><time>2026-04-17T15:18:48.38Z</time></trkpt><trkpt lat="45.6611052" lon="11.5541905"><ele>103.42857142857143</ele><time>2026-04-17T15:18:51.379Z</time></trkpt><trkpt lat="45.6610821" lon="11.5540928"><ele>102.85714285714286</ele><time>2026-04-17T15:18:54.379Z</time></trkpt><trkpt lat="45.6610573" lon="11.5539984"><ele>102.28571428571429</ele><time>2026-04-17T15:18:57.378Z</time></trkpt><trkpt lat="45.6610448" lon="11.553904"><ele>101.71428571428572</ele><time>2026-04-17T15:19:00.379Z</time></trkpt><trkpt lat="45.6610531" lon="11.5537939"><ele>101.14285714285714</ele><time>2026-04-17T15:19:04.379Z</time></trkpt><trkpt lat="45.6610856" lon="11.5536986"><ele>100.57142857142858</ele><time>2026-04-17T15:19:08.378Z</time></trkpt><trkpt lat="45.6611171" lon="11.5536019"><ele>100.0</ele><time>2026-04-17T15:19:12.376Z</time></trkpt><trkpt lat="45.6611399" lon="11.5534849"><ele>101.57142857142858</ele><time>2026-04-17T15:19:16.379Z</time></trkpt><trkpt lat="45.6611516" lon="11.5533955"><ele>103.14285714285714</ele><time>2026-04-17T15:19:19.378Z</time></trkpt><trkpt lat="45.6611704" lon="11.5532865"><ele>104.71428571428572</ele><time>2026-04-17T15:19:23.384Z</time></trkpt><trkpt lat="45.6611963" lon="11.5531878"><ele>106.28571428571429</ele><time>2026-04-17T15:19:27.38Z</time></trkpt><trkpt lat="45.6612538" lon="11.5531364"><ele>107.85714285714286</ele><time>2026-04-17T15:19:31.375Z</time></trkpt><trkpt lat="45.6613173" lon="11.5531596"><ele>109.42857142857143</ele><time>2026-04-17T15:19:35.381Z</time></trkpt><trkpt lat="45.6613766" lon="11.5532285"><ele>111.0</ele><time>2026-04-17T15:19:39.377Z</time></trkpt><trkpt lat="45.6614253" lon="11.5532943"><ele>111.0</ele><time>2026-04-17T15:19:43.38Z</time></trkpt><trkpt lat="45.6614738" lon="11.5533655"><ele>111.0</ele><time>2026-04-17T15:19:48.38Z</time></trkpt><trkpt lat="45.6615233" lon="11.5534342"><ele>111.0</ele><time>2026-04-17T15:19:53.378Z</time></trkpt><trkpt lat="45.6615846" lon="11.5534971"><ele>111.0</ele><time>2026-04-17T15:19:58.379Z</time></trkpt><trkpt lat="45.661647" lon="11.5535261"><ele>111.0</ele><time>2026-04-17T15:20:02.376Z</time></trkpt><trkpt lat="45.6617107" lon="11.5535113"><ele>111.0</ele><time>2026-04-17T15:20:06.373Z</time></trkpt><trkpt lat="45.6617683" lon="11.5534723"><ele>111.0</ele><time>2026-04-17T15:20:10.377Z</time></trkpt><trkpt lat="45.6618314" lon="11.5534484"><ele>111.0</ele><time>2026-04-17T15:20:14.377Z</time></trkpt><trkpt lat="45.6618998" lon="11.5533906"><ele>111.0</ele><time>2026-04-17T15:20:19.379Z</time></trkpt><trkpt lat="45.6619343" lon="11.5533047"><ele>111.0</ele><time>2026-04-17T15:20:24.38Z</time></trkpt><trkpt lat="45.6619718" lon="11.5532182"><ele>111.0</ele><time>2026-04-17T15:20:29.377Z</time></trkpt><trkpt lat="45.6620185" lon="11.5531565"><ele>111.0</ele><time>2026-04-17T15:20:33.379Z</time></trkpt><trkpt lat="45.6620559" lon="11.553077"><ele>111.0</ele><time>2026-04-17T15:20:36.376Z</time></trkpt><trkpt lat="45.6620993" lon="11.5529861"><ele>111.0</ele><time>2026-04-17T15:20:38.378Z</time></trkpt><trkpt lat="45.6621499" lon="11.5528962"><ele>111.42857142857142</ele><time>2026-04-17T15:20:41.376Z</time></trkpt><trkpt lat="45.6621961" lon="11.552831"><ele>111.85714285714286</ele><time>2026-04-17T15:20:44.378Z</time></trkpt><trkpt lat="45.6622656" lon="11.5527896"><ele>112.28571428571428</ele><time>2026-04-17T15:20:48.379Z</time></trkpt><trkpt lat="45.6623441" lon="11.5528049"><ele>112.71428571428571</ele><time>2026-04-17T15:20:52.376Z</time></trkpt><trkpt lat="45.6624081" lon="11.5528387"><ele>113.14285714285714</ele><time>2026-04-17T15:20:56.373Z</time></trkpt><trkpt lat="45.6624697" lon="11.5529007"><ele>113.57142857142857</ele><time>2026-04-17T15:21:01.374Z</time></trkpt><trkpt lat="45.6625323" lon="11.5529527"><ele>114.0</ele><time>2026-04-17T15:21:06.377Z</time></trkpt><trkpt lat="45.6626014" lon="11.5529562"><ele>114.71428571428571</ele><time>2026-04-17T15:21:11.376Z</time></trkpt><trkpt lat="45.6626723" lon="11.5529774"><ele>115.42857142857142</ele><time>2026-04-17T15:21:17.376Z</time></trkpt><trkpt lat="45.6627408" lon="11.5530029"><ele>116.14285714285714</ele><time>2026-04-17T15:21:22.378Z</time></trkpt><trkpt lat="45.662809" lon="11.5530156"><ele>116.85714285714286</ele><time>2026-04-17T15:21:27.378Z</time></trkpt><trkpt lat="45.6628754" lon="11.5530171"><ele>117.57142857142857</ele><time>2026-04-17T15:21:32.379Z</time></trkpt><trkpt lat="45.6629407" lon="11.5530224"><ele>118.28571428571428</ele><time>2026-04-17T15:21:37.38Z</time></trkpt><trkpt lat="45.6630134" lon="11.5530353"><ele>119.0</ele><time>2026-04-17T15:21:43.383Z</time></trkpt><trkpt lat="45.6630849" lon="11.5530293"><ele>119.42857142857143</ele><time>2026-04-17T15:21:48.384Z</time></trkpt><trkpt lat="45.6631533" lon="11.5530119"><ele>119.85714285714286</ele><time>2026-04-17T15:21:53.386Z</time></trkpt><trkpt lat="45.6632172" lon="11.5529841"><ele>120.28571428571428</ele><time>2026-04-17T15:21:58.38Z</time></trkpt><trkpt lat="45.663285" lon="11.5529829"><ele>120.71428571428571</ele><time>2026-04-17T15:22:03.382Z</time></trkpt><trkpt lat="45.6633685" lon="11.5529618"><ele>121.14285714285714</ele><time>2026-04-17T15:22:08.381Z</time></trkpt><trkpt lat="45.6634313" lon="11.5528992"><ele>121.57142857142856</ele><time>2026-04-17T15:22:13.383Z</time></trkpt><trkpt lat="45.6634976" lon="11.5528521"><ele>121.99999999999999</ele><time>2026-04-17T15:22:17.38Z</time></trkpt><trkpt lat="45.6635746" lon="11.5528223"><ele>123.28571428571428</ele><time>2026-04-17T15:22:21.377Z</time></trkpt><trkpt lat="45.6636373" lon="11.5527828"><ele>124.57142857142857</ele><time>2026-04-17T15:22:25.378Z</time></trkpt><trkpt lat="45.6637082" lon="11.5527443"><ele>125.85714285714286</ele><time>2026-04-17T15:22:29.379Z</time></trkpt><trkpt lat="45.6637727" lon="11.5527489"><ele>127.14285714285714</ele><time>2026-04-17T15:22:33.38Z</time></trkpt><trkpt lat="45.6638421" lon="11.552775"><ele>128.42857142857144</ele><time>2026-04-17T15:22:37.378Z</time></trkpt><trkpt lat="45.6639044" lon="11.5527939"><ele>129.71428571428572</ele><time>2026-04-17T15:22:41.377Z</time></trkpt><trkpt lat="45.6639787" lon="11.552828"><ele>131.0</ele><time>2026-04-17T15:22:45.373Z</time></trkpt><trkpt lat="45.6640528" lon="11.5528692"><ele>131.0</ele><time>2026-04-17T15:22:49.381Z</time></trkpt><trkpt lat="45.6641263" lon="11.5529046"><ele>131.0</ele><time>2026-04-17T15:22:53.379Z</time></trkpt><trkpt lat="45.6641892" lon="11.5529201"><ele>131.0</ele><time>2026-04-17T15:22:57.376Z</time></trkpt><trkpt lat="45.6642525" lon="11.5529318"><ele>131.0</ele><time>2026-04-17T15:23:01.377Z</time></trkpt><trkpt lat="45.6643241" lon="11.5529698"><ele>131.0</ele><time>2026-04-17T15:23:05.376Z</time></trkpt><trkpt lat="45.6643944" lon="11.5529678"><ele>131.0</ele><time>2026-04-17T15:23:09.375Z</time></trkpt><trkpt lat="45.6644075" lon="11.5528767"><ele>131.0</ele><time>2026-04-17T15:23:12.377Z</time></trkpt><trkpt lat="45.6644046" lon="11.5527575"><ele>131.0</ele><time>2026-04-17T15:23:15.379Z</time></trkpt><trkpt lat="45.6643877" lon="11.5526268"><ele>131.0</ele><time>2026-04-17T15:23:18.38Z</time></trkpt><trkpt lat="45.6643474" lon="11.5525075"><ele>131.0</ele><time>2026-04-17T15:23:21.381Z</time></trkpt><trkpt lat="45.6643131" lon="11.5524271"><ele>131.0</ele><time>2026-04-17T15:23:23.384Z</time></trkpt><trkpt lat="45.6642746" lon="11.5523529"><ele>131.0</ele><time>2026-04-17T15:23:25.379Z</time></trkpt><trkpt lat="45.6642252" lon="11.5522442"><ele>131.0</ele><time>2026-04-17T15:23:28.38Z</time></trkpt><trkpt lat="45.6641822" lon="11.5521443"><ele>131.0</ele><time>2026-04-17T15:23:31.378Z</time></trkpt><trkpt lat="45.6641414" lon="11.5520414"><ele>131.0</ele><time>2026-04-17T15:23:34.37Z</time></trkpt><trkpt lat="45.6641058" lon="11.5519228"><ele>131.0</ele><time>2026-04-17T15:23:37.378Z</time></trkpt><trkpt lat="45.6640804" lon="11.5518262"><ele>131.0</ele><time>2026-04-17T15:23:40.38Z</time></trkpt><trkpt lat="45.6640162" lon="11.5518237"><ele>131.0</ele><time>2026-04-17T15:23:45.38Z</time></trkpt><trkpt lat="45.6639997" lon="11.5519446"><ele>131.0</ele><time>2026-04-17T15:23:48.38Z</time></trkpt><trkpt lat="45.6639849" lon="11.5520709"><ele>131.0</ele><time>2026-04-17T15:23:51.38Z</time></trkpt><trkpt lat="45.6640098" lon="11.5521799"><ele>131.0</ele><time>2026-04-17T15:23:53.381Z</time></trkpt><trkpt lat="45.6639718" lon="11.5522665"><ele>131.0</ele><time>2026-04-17T15:23:56.379Z</time></trkpt><trkpt lat="45.6638842" lon="11.5522559"><ele>131.0</ele><time>2026-04-17T15:23:59.381Z</time></trkpt><trkpt lat="45.6638019" lon="11.5522055"><ele>131.0</ele><time>2026-04-17T15:24:02.379Z</time></trkpt><trkpt lat="45.663697" lon="11.5521661"><ele>131.0</ele><time>2026-04-17T15:24:04.377Z</time></trkpt><trkpt lat="45.6635977" lon="11.5521489"><ele>129.5</ele><time>2026-04-17T15:24:06.377Z</time></trkpt><trkpt lat="45.663522" lon="11.5521613"><ele>128.0</ele><time>2026-04-17T15:24:08.376Z</time></trkpt><trkpt lat="45.6634267" lon="11.5521478"><ele>126.5</ele><time>2026-04-17T15:24:10.376Z</time></trkpt><trkpt lat="45.6633347" lon="11.5521135"><ele>125.0</ele><time>2026-04-17T15:24:12.376Z</time></trkpt><trkpt lat="45.6632555" lon="11.5520871"><ele>123.49999999999999</ele><time>2026-04-17T15:24:15.375Z</time></trkpt><trkpt lat="45.6631652" lon="11.5520413"><ele>122.0</ele><time>2026-04-17T15:24:19.374Z</time></trkpt><trkpt lat="45.6630589" lon="11.5520157"><ele>122.0</ele><time>2026-04-17T15:24:21.375Z</time></trkpt><trkpt lat="45.6629392" lon="11.5519751"><ele>121.99999999999999</ele><time>2026-04-17T15:24:23.371Z</time></trkpt><trkpt lat="45.6628763" lon="11.5519552"><ele>121.99999999999999</ele><time>2026-04-17T15:24:24.373Z</time></trkpt><trkpt lat="45.6627564" lon="11.5519267"><ele>122.0</ele><time>2026-04-17T15:24:26.376Z</time></trkpt><trkpt lat="45.6626367" lon="11.5518991"><ele>122.0</ele><time>2026-04-17T15:24:28.376Z</time></trkpt><trkpt lat="45.662522" lon="11.5518801"><ele>120.66666666666666</ele><time>2026-04-17T15:24:30.374Z</time></trkpt><trkpt lat="45.6624311" lon="11.5518501"><ele>119.33333333333333</ele><time>2026-04-17T15:24:32.373Z</time></trkpt><trkpt lat="45.6623235" lon="11.5518076"><ele>118.0</ele><time>2026-04-17T15:24:34.375Z</time></trkpt><trkpt lat="45.662262" lon="11.551788"><ele>116.66666666666666</ele><time>2026-04-17T15:24:35.373Z</time></trkpt><trkpt lat="45.662201" lon="11.551765"><ele>115.33333333333333</ele><time>2026-04-17T15:24:36.378Z</time></trkpt><trkpt lat="45.6621202" lon="11.5517524"><ele>114.0</ele><time>2026-04-17T15:24:38.375Z</time></trkpt><trkpt lat="45.66206" lon="11.5518251"><ele>114.0</ele><time>2026-04-17T15:24:42.377Z</time></trkpt><trkpt lat="45.6620005" lon="11.5518966"><ele>113.99999999999999</ele><time>2026-04-17T15:24:46.374Z</time></trkpt><trkpt lat="45.6619758" lon="11.5519802"><ele>114.0</ele><time>2026-04-17T15:24:50.375Z</time></trkpt><trkpt lat="45.6620053" lon="11.552079"><ele>114.0</ele><time>2026-04-17T15:24:55.376Z</time></trkpt><trkpt lat="45.6620205" lon="11.5521733"><ele>113.99999999999999</ele><time>2026-04-17T15:25:00.377Z</time></trkpt><trkpt lat="45.6620421" lon="11.5522724"><ele>114.0</ele><time>2026-04-17T15:25:06.376Z</time></trkpt><trkpt lat="45.6620531" lon="11.5523701"><ele>114.0</ele><time>2026-04-17T15:25:28.379Z</time></trkpt><trkpt lat="45.6620598" lon="11.5524611"><ele>114.0</ele><time>2026-04-17T15:25:32.379Z</time></trkpt><trkpt lat="45.6620779" lon="11.5525496"><ele>113.99999999999999</ele><time>2026-04-17T15:25:38.378Z</time></trkpt><trkpt lat="45.662061" lon="11.5526528"><ele>114.0</ele><time>2026-04-17T15:25:43.38Z</time></trkpt><trkpt lat="45.6620376" lon="11.5527507"><ele>114.0</ele><time>2026-04-17T15:25:48.378Z</time></trkpt><trkpt lat="45.6619999" lon="11.552833"><ele>113.99999999999999</ele><time>2026-04-17T15:25:53.381Z</time></trkpt><trkpt lat="45.6619681" lon="11.5529128"><ele>114.0</ele><time>2026-04-17T15:25:58.379Z</time></trkpt><trkpt lat="45.6619415" lon="11.5529985"><ele>114.0</ele><time>2026-04-17T15:26:03.38Z</time></trkpt><trkpt lat="45.6619117" lon="11.5530868"><ele>113.57142857142857</ele><time>2026-04-17T15:26:08.373Z</time></trkpt><trkpt lat="45.6618721" lon="11.5531774"><ele>113.14285714285714</ele><time>2026-04-17T15:26:13.382Z</time></trkpt><trkpt lat="45.6618394" lon="11.5532552"><ele>112.71428571428571</ele><time>2026-04-17T15:26:17.378Z</time></trkpt><trkpt lat="45.6618046" lon="11.5533645"><ele>112.28571428571428</ele><time>2026-04-17T15:26:21.393Z</time></trkpt><trkpt lat="45.6618358" lon="11.5534567"><ele>111.85714285714286</ele><time>2026-04-17T15:26:24.38Z</time></trkpt><trkpt lat="45.6619067" lon="11.5534216"><ele>111.42857142857142</ele><time>2026-04-17T15:26:28.382Z</time></trkpt><trkpt lat="45.6619391" lon="11.5533234"><ele>111.0</ele><time>2026-04-17T15:26:33.374Z</time></trkpt><trkpt lat="45.6619661" lon="11.5532168"><ele>111.42857142857142</ele><time>2026-04-17T15:26:39.379Z</time></trkpt><trkpt lat="45.6620072" lon="11.5531177"><ele>111.85714285714286</ele><time>2026-04-17T15:26:44.38Z</time></trkpt><trkpt lat="45.6620542" lon="11.5530388"><ele>112.28571428571428</ele><time>2026-04-17T15:26:48.38Z</time></trkpt><trkpt lat="45.6620988" lon="11.5529722"><ele>112.71428571428571</ele><time>2026-04-17T15:26:51.38Z</time></trkpt><trkpt lat="45.6621589" lon="11.5528997"><ele>113.14285714285714</ele><time>2026-04-17T15:26:55.376Z</time></trkpt><trkpt lat="45.6622212" lon="11.5528445"><ele>113.57142857142857</ele><time>2026-04-17T15:26:59.376Z</time></trkpt><trkpt lat="45.6622838" lon="11.552819"><ele>114.0</ele><time>2026-04-17T15:27:03.377Z</time></trkpt><trkpt lat="45.6623518" lon="11.5528376"><ele>114.71428571428571</ele><time>2026-04-17T15:27:06.378Z</time></trkpt><trkpt lat="45.6624191" lon="11.5528892"><ele>115.42857142857142</ele><time>2026-04-17T15:27:11.374Z</time></trkpt><trkpt lat="45.6624798" lon="11.5529307"><ele>116.14285714285714</ele><time>2026-04-17T15:27:16.376Z</time></trkpt><trkpt lat="45.6625474" lon="11.5529986"><ele>116.85714285714286</ele><time>2026-04-17T15:27:20.376Z</time></trkpt><trkpt lat="45.6626148" lon="11.553002"><ele>117.57142857142857</ele><time>2026-04-17T15:27:25.377Z</time></trkpt><trkpt lat="45.6626857" lon="11.5530167"><ele>118.28571428571428</ele><time>2026-04-17T15:27:31.377Z</time></trkpt><trkpt lat="45.6627481" lon="11.5530484"><ele>119.0</ele><time>2026-04-17T15:27:36.378Z</time></trkpt><trkpt lat="45.6628247" lon="11.5530552"><ele>120.85714285714286</ele><time>2026-04-17T15:27:42.38Z</time></trkpt><trkpt lat="45.6628969" lon="11.5530536"><ele>122.71428571428572</ele><time>2026-04-17T15:27:47.378Z</time></trkpt><trkpt lat="45.6629659" lon="11.5530531"><ele>124.57142857142857</ele><time>2026-04-17T15:27:52.377Z</time></trkpt><trkpt lat="45.6630333" lon="11.5530485"><ele>126.42857142857143</ele><time>2026-04-17T15:27:57.378Z</time></trkpt><trkpt lat="45.6631015" lon="11.553043"><ele>128.28571428571428</ele><time>2026-04-17T15:28:02.378Z</time></trkpt><trkpt lat="45.6631777" lon="11.5530371"><ele>130.14285714285714</ele><time>2026-04-17T15:28:07.38Z</time></trkpt><trkpt lat="45.6632502" lon="11.5530225"><ele>132.0</ele><time>2026-04-17T15:28:12.378Z</time></trkpt><trkpt lat="45.6633092" lon="11.5529899"><ele>132.0</ele><time>2026-04-17T15:28:16.38Z</time></trkpt><trkpt lat="45.6633777" lon="11.5529404"><ele>132.0</ele><time>2026-04-17T15:28:21.378Z</time></trkpt><trkpt lat="45.6634434" lon="11.5529098"><ele>132.0</ele><time>2026-04-17T15:28:26.377Z</time></trkpt><trkpt lat="45.6634999" lon="11.5528641"><ele>132.0</ele><time>2026-04-17T15:28:30.376Z</time></trkpt><trkpt lat="45.6635657" lon="11.5528213"><ele>132.0</ele><time>2026-04-17T15:28:34.378Z</time></trkpt><trkpt lat="45.6636308" lon="11.5527817"><ele>132.0</ele><time>2026-04-17T15:28:38.379Z</time></trkpt><trkpt lat="45.6636903" lon="11.5527486"><ele>132.0</ele><time>2026-04-17T15:28:42.375Z</time></trkpt><trkpt lat="45.6637535" lon="11.5527392"><ele>131.83333333333334</ele><time>2026-04-17T15:28:46.375Z</time></trkpt><trkpt lat="45.6638262" lon="11.5527409"><ele>131.66666666666666</ele><time>2026-04-17T15:28:50.376Z</time></trkpt><trkpt lat="45.6638971" lon="11.5527691"><ele>131.5</ele><time>2026-04-17T15:28:54.376Z</time></trkpt><trkpt lat="45.66397" lon="11.5528163"><ele>131.33333333333331</ele><time>2026-04-17T15:28:58.376Z</time></trkpt><trkpt lat="45.6640435" lon="11.5528532"><ele>131.16666666666666</ele><time>2026-04-17T15:29:02.375Z</time></trkpt><trkpt lat="45.6641177" lon="11.5529011"><ele>131.0</ele><time>2026-04-17T15:29:06.378Z</time></trkpt><trkpt lat="45.664183" lon="11.552913"><ele>131.0</ele><time>2026-04-17T15:29:10.376Z</time></trkpt><trkpt lat="45.6642605" lon="11.5529225"><ele>131.0</ele><time>2026-04-17T15:29:15.375Z</time></trkpt><trkpt lat="45.6643311" lon="11.5529352"><ele>131.0</ele><time>2026-04-17T15:29:19.373Z</time></trkpt><trkpt lat="45.6644007" lon="11.552901"><ele>131.0</ele><time>2026-04-17T15:29:24.375Z</time></trkpt><trkpt lat="45.6644024" lon="11.5528098"><ele>131.0</ele><time>2026-04-17T15:29:27.378Z</time></trkpt><trkpt lat="45.6643954" lon="11.5526888"><ele>131.0</ele><time>2026-04-17T15:29:30.377Z</time></trkpt><trkpt lat="45.6643641" lon="11.5525632"><ele>131.0</ele><time>2026-04-17T15:29:33.377Z</time></trkpt><trkpt lat="45.6643289" lon="11.5524838"><ele>131.0</ele><time>2026-04-17T15:29:35.38Z</time></trkpt><trkpt lat="45.6642929" lon="11.5524088"><ele>131.0</ele><time>2026-04-17T15:29:37.38Z</time></trkpt><trkpt lat="45.6642563" lon="11.5523338"><ele>131.0</ele><time>2026-04-17T15:29:39.377Z</time></trkpt><trkpt lat="45.6642223" lon="11.5522561"><ele>131.0</ele><time>2026-04-17T15:29:41.374Z</time></trkpt><trkpt lat="45.6641878" lon="11.5521786"><ele>131.0</ele><time>2026-04-17T15:29:43.381Z</time></trkpt><trkpt lat="45.6641535" lon="11.5520976"><ele>131.0</ele><time>2026-04-17T15:29:45.377Z</time></trkpt><trkpt lat="45.6641253" lon="11.5520082"><ele>131.0</ele><time>2026-04-17T15:29:47.379Z</time></trkpt><trkpt lat="45.6640947" lon="11.5519194"><ele>131.0</ele><time>2026-04-17T15:29:49.393Z</time></trkpt><trkpt lat="45.6640597" lon="11.551809"><ele>131.0</ele><time>2026-04-17T15:29:52.378Z</time></trkpt><trkpt lat="45.6640081" lon="11.5518774"><ele>131.0</ele><time>2026-04-17T15:29:56.378Z</time></trkpt><trkpt lat="45.6639875" lon="11.5519935"><ele>131.0</ele><time>2026-04-17T15:29:59.376Z</time></trkpt><trkpt lat="45.6639901" lon="11.5521063"><ele>131.0</ele><time>2026-04-17T15:30:02.374Z</time></trkpt><trkpt lat="45.6640032" lon="11.5521955"><ele>131.0</ele><time>2026-04-17T15:30:04.374Z</time></trkpt><trkpt lat="45.663953" lon="11.5522545"><ele>131.0</ele><time>2026-04-17T15:30:07.373Z</time></trkpt><trkpt lat="45.663887" lon="11.5522583"><ele>131.0</ele><time>2026-04-17T15:30:09.373Z</time></trkpt><trkpt lat="45.6638216" lon="11.5522237"><ele>131.0</ele><time>2026-04-17T15:30:12.377Z</time></trkpt><trkpt lat="45.6637553" lon="11.5522126"><ele>131.0</ele><time>2026-04-17T15:30:14.377Z</time></trkpt><trkpt lat="45.6636452" lon="11.5521887"><ele>131.0</ele><time>2026-04-17T15:30:16.379Z</time></trkpt><trkpt lat="45.6635316" lon="11.5521882"><ele>129.2</ele><time>2026-04-17T15:30:18.377Z</time></trkpt><trkpt lat="45.663416" lon="11.5521758"><ele>127.39999999999999</ele><time>2026-04-17T15:30:20.377Z</time></trkpt><trkpt lat="45.6632977" lon="11.5521261"><ele>125.6</ele><time>2026-04-17T15:30:22.375Z</time></trkpt><trkpt lat="45.6631777" lon="11.5520842"><ele>123.8</ele><time>2026-04-17T15:30:24.377Z</time></trkpt><trkpt lat="45.6631136" lon="11.5520637"><ele>122.0</ele><time>2026-04-17T15:30:25.375Z</time></trkpt><trkpt lat="45.6630471" lon="11.5520312"><ele>121.99999999999999</ele><time>2026-04-17T15:30:26.374Z</time></trkpt><trkpt lat="45.6629729" lon="11.5519964"><ele>122.0</ele><time>2026-04-17T15:30:27.373Z</time></trkpt><trkpt lat="45.6628989" lon="11.5519687"><ele>122.0</ele><time>2026-04-17T15:30:28.374Z</time></trkpt><trkpt lat="45.662827" lon="11.5519524"><ele>122.0</ele><time>2026-04-17T15:30:29.373Z</time></trkpt><trkpt lat="45.6627516" lon="11.5519384"><ele>121.99999999999999</ele><time>2026-04-17T15:30:30.374Z</time></trkpt><trkpt lat="45.662677" lon="11.5519188"><ele>122.0</ele><time>2026-04-17T15:30:31.371Z</time></trkpt><trkpt lat="45.6626036" lon="11.5519043"><ele>120.66666666666666</ele><time>2026-04-17T15:30:32.371Z</time></trkpt><trkpt lat="45.6625308" lon="11.5518848"><ele>119.33333333333333</ele><time>2026-04-17T15:30:33.37Z</time></trkpt><trkpt lat="45.6624562" lon="11.5518646"><ele>118.0</ele><time>2026-04-17T15:30:34.37Z</time></trkpt><trkpt lat="45.6623812" lon="11.5518438"><ele>116.66666666666666</ele><time>2026-04-17T15:30:35.371Z</time></trkpt><trkpt lat="45.6623071" lon="11.5518174"><ele>115.33333333333333</ele><time>2026-04-17T15:30:36.373Z</time></trkpt><trkpt lat="45.6622382" lon="11.5517902"><ele>114.0</ele><time>2026-04-17T15:30:37.371Z</time></trkpt><trkpt lat="45.6621275" lon="11.5517461"><ele>114.0</ele><time>2026-04-17T15:30:39.371Z</time></trkpt><trkpt lat="45.6620679" lon="11.5517105"><ele>114.0</ele><time>2026-04-17T15:30:40.371Z</time></trkpt><trkpt lat="45.6619676" lon="11.5516378"><ele>114.0</ele><time>2026-04-17T15:30:42.372Z</time></trkpt><trkpt lat="45.6618657" lon="11.5515984"><ele>114.0</ele><time>2026-04-17T15:30:44.374Z</time></trkpt><trkpt lat="45.661762" lon="11.5516218"><ele>114.0</ele><time>2026-04-17T15:30:46.376Z</time></trkpt><trkpt lat="45.6616697" lon="11.5515782"><ele>112.75</ele><time>2026-04-17T15:30:48.375Z</time></trkpt><trkpt lat="45.6615836" lon="11.551485"><ele>111.5</ele><time>2026-04-17T15:30:50.375Z</time></trkpt><trkpt lat="45.6614886" lon="11.5513861"><ele>110.25</ele><time>2026-04-17T15:30:52.374Z</time></trkpt><trkpt lat="45.6613996" lon="11.5512819"><ele>109.0</ele><time>2026-04-17T15:30:54.375Z</time></trkpt><trkpt lat="45.6613246" lon="11.5511474"><ele>108.80000000000001</ele><time>2026-04-17T15:30:56.374Z</time></trkpt><trkpt lat="45.6612622" lon="11.5509946"><ele>108.60000000000001</ele><time>2026-04-17T15:30:58.376Z</time></trkpt><trkpt lat="45.6612366" lon="11.5509065"><ele>108.4</ele><time>2026-04-17T15:30:59.374Z</time></trkpt><trkpt lat="45.6612109" lon="11.5508223"><ele>108.2</ele><time>2026-04-17T15:31:00.375Z</time></trkpt><trkpt lat="45.6611678" lon="11.5506639"><ele>108.0</ele><time>2026-04-17T15:31:02.365Z</time></trkpt><trkpt lat="45.6611052" lon="11.5504943"><ele>107.83333333333333</ele><time>2026-04-17T15:31:04.369Z</time></trkpt><trkpt lat="45.6610694" lon="11.5504023"><ele>107.66666666666666</ele><time>2026-04-17T15:31:05.369Z</time></trkpt><trkpt lat="45.661034" lon="11.5503033"><ele>107.5</ele><time>2026-04-17T15:31:06.37Z</time></trkpt><trkpt lat="45.6609959" lon="11.5502032"><ele>107.33333333333333</ele><time>2026-04-17T15:31:07.37Z</time></trkpt><trkpt lat="45.6609727" lon="11.5500993"><ele>107.16666666666666</ele><time>2026-04-17T15:31:08.371Z</time></trkpt><trkpt lat="45.6609525" lon="11.5499999"><ele>107.0</ele><time>2026-04-17T15:31:09.37Z</time></trkpt><trkpt lat="45.6609352" lon="11.5498983"><ele>106.28571428571429</ele><time>2026-04-17T15:31:10.37Z</time></trkpt><trkpt lat="45.6609248" lon="11.5497965"><ele>105.57142857142857</ele><time>2026-04-17T15:31:11.371Z</time></trkpt><trkpt lat="45.6609235" lon="11.5496997"><ele>104.85714285714286</ele><time>2026-04-17T15:31:12.371Z</time></trkpt><trkpt lat="45.6609286" lon="11.5495908"><ele>104.14285714285714</ele><time>2026-04-17T15:31:13.376Z</time></trkpt><trkpt lat="45.6609324" lon="11.5494848"><ele>103.42857142857143</ele><time>2026-04-17T15:31:14.375Z</time></trkpt><trkpt lat="45.6609355" lon="11.5493772"><ele>102.71428571428572</ele><time>2026-04-17T15:31:15.377Z</time></trkpt><trkpt lat="45.6609379" lon="11.5492722"><ele>102.0</ele><time>2026-04-17T15:31:16.376Z</time></trkpt><trkpt lat="45.6609397" lon="11.5491761"><ele>100.8</ele><time>2026-04-17T15:31:17.368Z</time></trkpt><trkpt lat="45.6609091" lon="11.5490174"><ele>99.6</ele><time>2026-04-17T15:31:19.375Z</time></trkpt><trkpt lat="45.660864" lon="11.5488852"><ele>98.39999999999999</ele><time>2026-04-17T15:31:21.376Z</time></trkpt><trkpt lat="45.6608246" lon="11.5487709"><ele>97.19999999999999</ele><time>2026-04-17T15:31:23.376Z</time></trkpt><trkpt lat="45.6607817" lon="11.5486675"><ele>96.0</ele><time>2026-04-17T15:31:25.375Z</time></trkpt><trkpt lat="45.6607308" lon="11.5485773"><ele>95.33333333333333</ele><time>2026-04-17T15:31:27.375Z</time></trkpt><trkpt lat="45.660695" lon="11.548466"><ele>94.66666666666667</ele><time>2026-04-17T15:31:29.378Z</time></trkpt><trkpt lat="45.6607138" lon="11.5483539"><ele>94.0</ele><time>2026-04-17T15:31:31.372Z</time></trkpt><trkpt lat="45.6607572" lon="11.5482706"><ele>93.33333333333334</ele><time>2026-04-17T15:31:33.374Z</time></trkpt><trkpt lat="45.6608188" lon="11.5482012"><ele>92.66666666666667</ele><time>2026-04-17T15:31:35.373Z</time></trkpt><trkpt lat="45.6608884" lon="11.5481386"><ele>92.0</ele><time>2026-04-17T15:31:37.375Z</time></trkpt><trkpt lat="45.6609525" lon="11.5480826"><ele>92.0</ele><time>2026-04-17T15:31:39.374Z</time></trkpt><trkpt lat="45.6610155" lon="11.5480232"><ele>92.0</ele><time>2026-04-17T15:31:41.377Z</time></trkpt><trkpt lat="45.6610787" lon="11.5479748"><ele>92.0</ele><time>2026-04-17T15:31:43.378Z</time></trkpt><trkpt lat="45.6611349" lon="11.5479311"><ele>92.0</ele><time>2026-04-17T15:31:45.377Z</time></trkpt><trkpt lat="45.6611956" lon="11.5478927"><ele>92.0</ele><time>2026-04-17T15:31:47.377Z</time></trkpt><trkpt lat="45.6612723" lon="11.5479492"><ele>92.0</ele><time>2026-04-17T15:31:50.377Z</time></trkpt><trkpt lat="45.66128" lon="11.5480602"><ele>92.0</ele><time>2026-04-17T15:31:54.376Z</time></trkpt><trkpt lat="45.6612937" lon="11.548155"><ele>92.42857142857143</ele><time>2026-04-17T15:31:59.377Z</time></trkpt><trkpt lat="45.6613037" lon="11.5482641"><ele>92.85714285714285</ele><time>2026-04-17T15:32:06.375Z</time></trkpt><trkpt lat="45.6612982" lon="11.5483569"><ele>93.28571428571428</ele><time>2026-04-17T15:32:11.375Z</time></trkpt><trkpt lat="45.6612988" lon="11.5484608"><ele>93.71428571428572</ele><time>2026-04-17T15:32:16.376Z</time></trkpt><trkpt lat="45.6613057" lon="11.5485588"><ele>94.14285714285714</ele><time>2026-04-17T15:32:21.377Z</time></trkpt><trkpt lat="45.6613054" lon="11.548666"><ele>94.57142857142857</ele><time>2026-04-17T15:32:26.379Z</time></trkpt><trkpt lat="45.6613101" lon="11.5487808"><ele>95.0</ele><time>2026-04-17T15:32:31.376Z</time></trkpt><trkpt lat="45.6613173" lon="11.5488737"><ele>96.0</ele><time>2026-04-17T15:32:35.376Z</time></trkpt><trkpt lat="45.6613252" lon="11.5489749"><ele>97.0</ele><time>2026-04-17T15:32:40.378Z</time></trkpt><trkpt lat="45.6613368" lon="11.5490852"><ele>98.0</ele><time>2026-04-17T15:32:45.376Z</time></trkpt><trkpt lat="45.6613444" lon="11.5491941"><ele>99.0</ele><time>2026-04-17T15:32:50.378Z</time></trkpt><trkpt lat="45.6613498" lon="11.5493047"><ele>100.0</ele><time>2026-04-17T15:32:55.377Z</time></trkpt><trkpt lat="45.661361" lon="11.5494007"><ele>101.0</ele><time>2026-04-17T15:32:59.376Z</time></trkpt><trkpt lat="45.6613673" lon="11.5494935"><ele>102.0</ele><time>2026-04-17T15:33:03.379Z</time></trkpt><trkpt lat="45.6613712" lon="11.5495898"><ele>102.57142857142857</ele><time>2026-04-17T15:33:07.376Z</time></trkpt><trkpt lat="45.6613745" lon="11.5496839"><ele>103.14285714285714</ele><time>2026-04-17T15:33:11.375Z</time></trkpt><trkpt lat="45.6613778" lon="11.5497996"><ele>103.71428571428572</ele><time>2026-04-17T15:33:15.375Z</time></trkpt><trkpt lat="45.6613843" lon="11.5498967"><ele>104.28571428571428</ele><time>2026-04-17T15:33:18.378Z</time></trkpt><trkpt lat="45.6613939" lon="11.5500071"><ele>104.85714285714285</ele><time>2026-04-17T15:33:21.378Z</time></trkpt><trkpt lat="45.6614015" lon="11.5501121"><ele>105.42857142857143</ele><time>2026-04-17T15:33:24.378Z</time></trkpt><trkpt lat="45.6614106" lon="11.5502086"><ele>106.0</ele><time>2026-04-17T15:33:27.377Z</time></trkpt><trkpt lat="45.6614135" lon="11.5503099"><ele>106.33333333333334</ele><time>2026-04-17T15:33:30.377Z</time></trkpt><trkpt lat="45.6614216" lon="11.5504206"><ele>106.66666666666667</ele><time>2026-04-17T15:33:33.378Z</time></trkpt><trkpt lat="45.6614312" lon="11.5505355"><ele>107.0</ele><time>2026-04-17T15:33:36.377Z</time></trkpt><trkpt lat="45.6614461" lon="11.5506433"><ele>107.33333333333334</ele><time>2026-04-17T15:33:39.376Z</time></trkpt><trkpt lat="45.6614498" lon="11.5507414"><ele>107.66666666666667</ele><time>2026-04-17T15:33:42.375Z</time></trkpt><trkpt lat="45.661465" lon="11.5508565"><ele>108.0</ele><time>2026-04-17T15:33:46.375Z</time></trkpt><trkpt lat="45.6615116" lon="11.5509234"><ele>108.0</ele><time>2026-04-17T15:33:49.376Z</time></trkpt><trkpt lat="45.6615829" lon="11.5509326"><ele>108.0</ele><time>2026-04-17T15:33:53.376Z</time></trkpt><trkpt lat="45.6616278" lon="11.5508648"><ele>108.0</ele><time>2026-04-17T15:33:57.375Z</time></trkpt><trkpt lat="45.6616396" lon="11.5507744"><ele>108.0</ele><time>2026-04-17T15:34:02.376Z</time></trkpt><trkpt lat="45.6617153" lon="11.5507625"><ele>108.0</ele><time>2026-04-17T15:34:07.378Z</time></trkpt><trkpt lat="45.6617798" lon="11.5507724"><ele>108.0</ele><time>2026-04-17T15:34:12.377Z</time></trkpt><trkpt lat="45.6618455" lon="11.550818"><ele>108.0</ele><time>2026-04-17T15:34:17.38Z</time></trkpt><trkpt lat="45.6619172" lon="11.5508459"><ele>109.42857142857143</ele><time>2026-04-17T15:34:22.378Z</time></trkpt><trkpt lat="45.661982" lon="11.5508887"><ele>110.85714285714286</ele><time>2026-04-17T15:34:27.378Z</time></trkpt><trkpt lat="45.6620483" lon="11.5509337"><ele>112.28571428571428</ele><time>2026-04-17T15:34:32.375Z</time></trkpt><trkpt lat="45.6621141" lon="11.5509555"><ele>113.71428571428572</ele><time>2026-04-17T15:34:37.378Z</time></trkpt><trkpt lat="45.662182" lon="11.5509788"><ele>115.14285714285715</ele><time>2026-04-17T15:34:42.376Z</time></trkpt><trkpt lat="45.6622552" lon="11.5510139"><ele>116.57142857142857</ele><time>2026-04-17T15:34:47.378Z</time></trkpt><trkpt lat="45.6623284" lon="11.5510411"><ele>118.0</ele><time>2026-04-17T15:34:52.381Z</time></trkpt><trkpt lat="45.6624029" lon="11.5510647"><ele>118.0</ele><time>2026-04-17T15:34:57.376Z</time></trkpt><trkpt lat="45.662466" lon="11.5510757"><ele>118.0</ele><time>2026-04-17T15:35:02.376Z</time></trkpt><trkpt lat="45.6625302" lon="11.5510971"><ele>118.0</ele><time>2026-04-17T15:35:08.377Z</time></trkpt><trkpt lat="45.6626024" lon="11.5511246"><ele>118.0</ele><time>2026-04-17T15:35:13.376Z</time></trkpt><trkpt lat="45.6626773" lon="11.5511496"><ele>118.0</ele><time>2026-04-17T15:35:18.377Z</time></trkpt><trkpt lat="45.6627479" lon="11.5511879"><ele>118.0</ele><time>2026-04-17T15:35:23.378Z</time></trkpt><trkpt lat="45.6628172" lon="11.5512245"><ele>118.0</ele><time>2026-04-17T15:35:28.376Z</time></trkpt><trkpt lat="45.6628983" lon="11.5512739"><ele>118.57142857142857</ele><time>2026-04-17T15:35:32.376Z</time></trkpt><trkpt lat="45.6629648" lon="11.5513192"><ele>119.14285714285714</ele><time>2026-04-17T15:35:36.377Z</time></trkpt><trkpt lat="45.6630265" lon="11.5513502"><ele>119.71428571428571</ele><time>2026-04-17T15:35:40.375Z</time></trkpt><trkpt lat="45.6630974" lon="11.5513998"><ele>120.28571428571428</ele><time>2026-04-17T15:35:45.375Z</time></trkpt><trkpt lat="45.6631655" lon="11.5514494"><ele>120.85714285714286</ele><time>2026-04-17T15:35:49.375Z</time></trkpt><trkpt lat="45.6632418" lon="11.5515028"><ele>121.42857142857142</ele><time>2026-04-17T15:35:53.376Z</time></trkpt><trkpt lat="45.6632967" lon="11.5515628"><ele>121.99999999999999</ele><time>2026-04-17T15:35:57.375Z</time></trkpt><trkpt lat="45.6633585" lon="11.5516196"><ele>121.99999999999999</ele><time>2026-04-17T15:36:01.376Z</time></trkpt><trkpt lat="45.663416" lon="11.5516677"><ele>122.0</ele><time>2026-04-17T15:36:05.374Z</time></trkpt><trkpt lat="45.6634761" lon="11.5517378"><ele>121.99999999999999</ele><time>2026-04-17T15:36:10.378Z</time></trkpt><trkpt lat="45.6635347" lon="11.5517944"><ele>121.99999999999999</ele><time>2026-04-17T15:36:14.376Z</time></trkpt><trkpt lat="45.663587" lon="11.5518539"><ele>122.0</ele><time>2026-04-17T15:36:18.378Z</time></trkpt><trkpt lat="45.6636487" lon="11.551913"><ele>121.99999999999999</ele><time>2026-04-17T15:36:22.375Z</time></trkpt><trkpt lat="45.6637113" lon="11.5519791"><ele>121.99999999999999</ele><time>2026-04-17T15:36:27.377Z</time></trkpt><trkpt lat="45.6637668" lon="11.5520245"><ele>121.99999999999999</ele><time>2026-04-17T15:36:31.377Z</time></trkpt><trkpt lat="45.6638021" lon="11.5521283"><ele>122.0</ele><time>2026-04-17T15:36:36.375Z</time></trkpt><trkpt lat="45.663737" lon="11.5521544"><ele>122.0</ele><time>2026-04-17T15:36:39.375Z</time></trkpt><trkpt lat="45.6636502" lon="11.5521325"><ele>122.0</ele><time>2026-04-17T15:36:41.375Z</time></trkpt><trkpt lat="45.6635522" lon="11.5521364"><ele>121.99999999999999</ele><time>2026-04-17T15:36:43.371Z</time></trkpt><trkpt lat="45.6634554" lon="11.5521506"><ele>122.0</ele><time>2026-04-17T15:36:45.375Z</time></trkpt><trkpt lat="45.6633381" lon="11.5521135"><ele>121.99999999999999</ele><time>2026-04-17T15:36:47.377Z</time></trkpt><trkpt lat="45.6632668" lon="11.5520869"><ele>122.0</ele><time>2026-04-17T15:36:48.376Z</time></trkpt><trkpt lat="45.6631928" lon="11.5520679"><ele>122.0</ele><time>2026-04-17T15:36:49.375Z</time></trkpt><trkpt lat="45.6631161" lon="11.5520532"><ele>122.0</ele><time>2026-04-17T15:36:50.376Z</time></trkpt><trkpt lat="45.6630322" lon="11.5520264"><ele>121.99999999999999</ele><time>2026-04-17T15:36:51.372Z</time></trkpt><trkpt lat="45.6629467" lon="11.5519931"><ele>122.0</ele><time>2026-04-17T15:36:52.372Z</time></trkpt><trkpt lat="45.6628615" lon="11.5519669"><ele>120.39999999999999</ele><time>2026-04-17T15:36:53.372Z</time></trkpt><trkpt lat="45.6627755" lon="11.5519498"><ele>118.79999999999998</ele><time>2026-04-17T15:36:54.373Z</time></trkpt><trkpt lat="45.6626834" lon="11.5519278"><ele>117.2</ele><time>2026-04-17T15:36:55.371Z</time></trkpt><trkpt lat="45.6625921" lon="11.5519023"><ele>115.6</ele><time>2026-04-17T15:36:56.371Z</time></trkpt><trkpt lat="45.6625032" lon="11.5518742"><ele>114.0</ele><time>2026-04-17T15:36:57.372Z</time></trkpt><trkpt lat="45.6624153" lon="11.5518471"><ele>114.0</ele><time>2026-04-17T15:36:58.373Z</time></trkpt><trkpt lat="45.6623239" lon="11.5518157"><ele>114.0</ele><time>2026-04-17T15:36:59.371Z</time></trkpt><trkpt lat="45.6622309" lon="11.5517852"><ele>114.0</ele><time>2026-04-17T15:37:00.371Z</time></trkpt><trkpt lat="45.6621439" lon="11.5517611"><ele>114.0</ele><time>2026-04-17T15:37:01.371Z</time></trkpt><trkpt lat="45.6620701" lon="11.5517404"><ele>114.0</ele><time>2026-04-17T15:37:02.37Z</time></trkpt><trkpt lat="45.6620099" lon="11.5517098"><ele>114.0</ele><time>2026-04-17T15:37:03.373Z</time></trkpt><trkpt lat="45.6619179" lon="11.5516508"><ele>113.16666666666667</ele><time>2026-04-17T15:37:05.371Z</time></trkpt><trkpt lat="45.6618226" lon="11.5515896"><ele>112.33333333333334</ele><time>2026-04-17T15:37:07.373Z</time></trkpt><trkpt lat="45.6617604" lon="11.551523"><ele>111.5</ele><time>2026-04-17T15:37:09.372Z</time></trkpt><trkpt lat="45.6617131" lon="11.5514541"><ele>110.66666666666667</ele><time>2026-04-17T15:37:12.372Z</time></trkpt><trkpt lat="45.6616755" lon="11.5513636"><ele>109.83333333333334</ele><time>2026-04-17T15:37:16.374Z</time></trkpt><trkpt lat="45.6616777" lon="11.5512412"><ele>109.0</ele><time>2026-04-17T15:37:20.375Z</time></trkpt><trkpt lat="45.6616615" lon="11.5511527"><ele>108.85714285714286</ele><time>2026-04-17T15:37:24.373Z</time></trkpt><trkpt lat="45.6616343" lon="11.5510507"><ele>108.71428571428572</ele><time>2026-04-17T15:37:29.374Z</time></trkpt><trkpt lat="45.6616171" lon="11.5509537"><ele>108.57142857142857</ele><time>2026-04-17T15:37:34.376Z</time></trkpt><trkpt lat="45.661652" lon="11.5508756"><ele>108.42857142857143</ele><time>2026-04-17T15:37:39.378Z</time></trkpt><trkpt lat="45.6616467" lon="11.550783"><ele>108.28571428571428</ele><time>2026-04-17T15:37:43.378Z</time></trkpt><trkpt lat="45.6617122" lon="11.550762"><ele>108.14285714285714</ele><time>2026-04-17T15:37:49.378Z</time></trkpt><trkpt lat="45.6617814" lon="11.5507816"><ele>108.0</ele><time>2026-04-17T15:37:55.379Z</time></trkpt><trkpt lat="45.6618416" lon="11.5508348"><ele>108.0</ele><time>2026-04-17T15:38:00.381Z</time></trkpt><trkpt lat="45.6619103" lon="11.5508626"><ele>108.0</ele><time>2026-04-17T15:38:05.379Z</time></trkpt><trkpt lat="45.6619778" lon="11.5508845"><ele>108.0</ele><time>2026-04-17T15:38:10.381Z</time></trkpt><trkpt lat="45.6620431" lon="11.5509307"><ele>108.0</ele><time>2026-04-17T15:38:15.38Z</time></trkpt><trkpt lat="45.6621155" lon="11.5509604"><ele>108.0</ele><time>2026-04-17T15:38:21.38Z</time></trkpt><trkpt lat="45.6621768" lon="11.5509811"><ele>108.0</ele><time>2026-04-17T15:38:27.378Z</time></trkpt><trkpt lat="45.6622435" lon="11.5510112"><ele>108.0</ele><time>2026-04-17T15:38:34.381Z</time></trkpt><trkpt lat="45.662312" lon="11.5510388"><ele>109.42857142857143</ele><time>2026-04-17T15:38:39.381Z</time></trkpt><trkpt lat="45.6623754" lon="11.551051"><ele>110.85714285714286</ele><time>2026-04-17T15:38:44.379Z</time></trkpt><trkpt lat="45.6624428" lon="11.5510711"><ele>112.28571428571428</ele><time>2026-04-17T15:38:49.378Z</time></trkpt><trkpt lat="45.6625081" lon="11.551091"><ele>113.71428571428572</ele><time>2026-04-17T15:38:54.377Z</time></trkpt><trkpt lat="45.6625784" lon="11.5511178"><ele>115.14285714285715</ele><time>2026-04-17T15:39:00.377Z</time></trkpt><trkpt lat="45.6626402" lon="11.5511455"><ele>116.57142857142857</ele><time>2026-04-17T15:39:05.376Z</time></trkpt><trkpt lat="45.6627042" lon="11.551175"><ele>118.0</ele><time>2026-04-17T15:39:10.378Z</time></trkpt><trkpt lat="45.6627706" lon="11.5512048"><ele>118.57142857142857</ele><time>2026-04-17T15:39:15.377Z</time></trkpt><trkpt lat="45.6628319" lon="11.5512405"><ele>119.14285714285714</ele><time>2026-04-17T15:39:20.378Z</time></trkpt><trkpt lat="45.6629038" lon="11.5512806"><ele>119.71428571428571</ele><time>2026-04-17T15:39:25.377Z</time></trkpt><trkpt lat="45.6629709" lon="11.551323"><ele>120.28571428571428</ele><time>2026-04-17T15:39:27.378Z</time></trkpt><trkpt lat="45.6630348" lon="11.5513479"><ele>120.85714285714286</ele><time>2026-04-17T15:39:32.38Z</time></trkpt><trkpt lat="45.6631007" lon="11.5513888"><ele>121.42857142857142</ele><time>2026-04-17T15:39:37.381Z</time></trkpt><trkpt lat="45.66316" lon="11.5514378"><ele>121.99999999999999</ele><time>2026-04-17T15:39:41.376Z</time></trkpt><trkpt lat="45.6632196" lon="11.5514972"><ele>121.99999999999999</ele><time>2026-04-17T15:39:46.377Z</time></trkpt><trkpt lat="45.6632695" lon="11.551562"><ele>122.0</ele><time>2026-04-17T15:39:52.379Z</time></trkpt><trkpt lat="45.6633214" lon="11.5516235"><ele>121.99999999999999</ele><time>2026-04-17T15:39:57.376Z</time></trkpt><trkpt lat="45.6633873" lon="11.5516709"><ele>121.99999999999999</ele><time>2026-04-17T15:40:00.377Z</time></trkpt><trkpt lat="45.6634544" lon="11.55172"><ele>122.0</ele><time>2026-04-17T15:40:06.377Z</time></trkpt><trkpt lat="45.6635147" lon="11.5517837"><ele>121.99999999999999</ele><time>2026-04-17T15:40:11.377Z</time></trkpt><trkpt lat="45.6635694" lon="11.551838"><ele>121.99999999999999</ele><time>2026-04-17T15:40:16.377Z</time></trkpt><trkpt lat="45.6636235" lon="11.5519"><ele>121.99999999999999</ele><time>2026-04-17T15:40:20.377Z</time></trkpt><trkpt lat="45.6636815" lon="11.5519572"><ele>122.0</ele><time>2026-04-17T15:40:25.376Z</time></trkpt><trkpt lat="45.663734" lon="11.5520073"><ele>122.0</ele><time>2026-04-17T15:40:30.378Z</time></trkpt><trkpt lat="45.6637864" lon="11.552069"><ele>122.0</ele><time>2026-04-17T15:40:35.377Z</time></trkpt><trkpt lat="45.6637796" lon="11.5521592"><ele>121.99999999999999</ele><time>2026-04-17T15:40:39.376Z</time></trkpt><trkpt lat="45.6636758" lon="11.5521504"><ele>122.0</ele><time>2026-04-17T15:40:42.376Z</time></trkpt><trkpt lat="45.6635765" lon="11.552148"><ele>121.99999999999999</ele><time>2026-04-17T15:40:44.376Z</time></trkpt><trkpt lat="45.6634641" lon="11.5521563"><ele>122.0</ele><time>2026-04-17T15:40:46.376Z</time></trkpt><trkpt lat="45.6633958" lon="11.5521353"><ele>122.0</ele><time>2026-04-17T15:40:47.378Z</time></trkpt><trkpt lat="45.6633239" lon="11.5521142"><ele>122.0</ele><time>2026-04-17T15:40:48.379Z</time></trkpt><trkpt lat="45.6632527" lon="11.5520926"><ele>121.99999999999999</ele><time>2026-04-17T15:40:49.377Z</time></trkpt><trkpt lat="45.6631781" lon="11.5520652"><ele>122.0</ele><time>2026-04-17T15:40:50.376Z</time></trkpt><trkpt lat="45.6630998" lon="11.5520314"><ele>121.99999999999999</ele><time>2026-04-17T15:40:51.376Z</time></trkpt><trkpt lat="45.6630157" lon="11.5519969"><ele>122.0</ele><time>2026-04-17T15:40:52.375Z</time></trkpt><trkpt lat="45.6629351" lon="11.5519618"><ele>122.0</ele><time>2026-04-17T15:40:53.373Z</time></trkpt><trkpt lat="45.6628596" lon="11.5519402"><ele>122.0</ele><time>2026-04-17T15:40:54.373Z</time></trkpt><trkpt lat="45.6627821" lon="11.5519275"><ele>121.99999999999999</ele><time>2026-04-17T15:40:55.374Z</time></trkpt><trkpt lat="45.6627017" lon="11.5519084"><ele>122.0</ele><time>2026-04-17T15:40:56.374Z</time></trkpt><trkpt lat="45.662617" lon="11.551887"><ele>120.66666666666666</ele><time>2026-04-17T15:40:57.374Z</time></trkpt><trkpt lat="45.6625311" lon="11.551862"><ele>119.33333333333333</ele><time>2026-04-17T15:40:58.373Z</time></trkpt><trkpt lat="45.6624486" lon="11.5518411"><ele>118.0</ele><time>2026-04-17T15:40:59.373Z</time></trkpt><trkpt lat="45.662366" lon="11.5518206"><ele>116.66666666666666</ele><time>2026-04-17T15:41:00.373Z</time></trkpt><trkpt lat="45.66228" lon="11.5518009"><ele>115.33333333333333</ele><time>2026-04-17T15:41:01.373Z</time></trkpt><trkpt lat="45.6621981" lon="11.5517765"><ele>114.0</ele><time>2026-04-17T15:41:02.374Z</time></trkpt><trkpt lat="45.6621262" lon="11.5517531"><ele>114.0</ele><time>2026-04-17T15:41:03.374Z</time></trkpt><trkpt lat="45.662062" lon="11.5517224"><ele>114.0</ele><time>2026-04-17T15:41:04.373Z</time></trkpt><trkpt lat="45.6619594" lon="11.551644"><ele>114.0</ele><time>2026-04-17T15:41:06.374Z</time></trkpt><trkpt lat="45.661905" lon="11.5515956"><ele>114.0</ele><time>2026-04-17T15:41:07.373Z</time></trkpt><trkpt lat="45.6618068" lon="11.5515222"><ele>114.0</ele><time>2026-04-17T15:41:09.376Z</time></trkpt><trkpt lat="45.6617408" lon="11.551453"><ele>114.0</ele><time>2026-04-17T15:41:11.373Z</time></trkpt><trkpt lat="45.6616986" lon="11.5513585"><ele>113.28571428571428</ele><time>2026-04-17T15:41:14.374Z</time></trkpt><trkpt lat="45.6616674" lon="11.5512771"><ele>112.57142857142856</ele><time>2026-04-17T15:41:18.375Z</time></trkpt><trkpt lat="45.6616576" lon="11.551166"><ele>111.85714285714286</ele><time>2026-04-17T15:41:24.374Z</time></trkpt><trkpt lat="45.6616333" lon="11.5510752"><ele>111.14285714285714</ele><time>2026-04-17T15:41:29.375Z</time></trkpt><trkpt lat="45.6616157" lon="11.5509801"><ele>110.42857142857143</ele><time>2026-04-17T15:41:35.376Z</time></trkpt><trkpt lat="45.6616339" lon="11.5508893"><ele>109.71428571428572</ele><time>2026-04-17T15:41:40.376Z</time></trkpt><trkpt lat="45.6616474" lon="11.5508"><ele>109.0</ele><time>2026-04-17T15:41:45.377Z</time></trkpt><trkpt lat="45.6617122" lon="11.5507847"><ele>108.85714285714286</ele><time>2026-04-17T15:41:49.377Z</time></trkpt><trkpt lat="45.6617863" lon="11.550797"><ele>108.71428571428572</ele><time>2026-04-17T15:41:55.378Z</time></trkpt><trkpt lat="45.6618493" lon="11.5508279"><ele>108.57142857142857</ele><time>2026-04-17T15:42:00.379Z</time></trkpt><trkpt lat="45.661919" lon="11.5508504"><ele>108.42857142857143</ele><time>2026-04-17T15:42:06.377Z</time></trkpt><trkpt lat="45.6619854" lon="11.5508932"><ele>108.28571428571428</ele><time>2026-04-17T15:42:12.377Z</time></trkpt><trkpt lat="45.6620462" lon="11.550925"><ele>108.14285714285714</ele><time>2026-04-17T15:42:17.377Z</time></trkpt><trkpt lat="45.6621205" lon="11.5509468"><ele>108.0</ele><time>2026-04-17T15:42:23.379Z</time></trkpt><trkpt lat="45.6621803" lon="11.5509765"><ele>109.42857142857143</ele><time>2026-04-17T15:42:28.378Z</time></trkpt><trkpt lat="45.6622491" lon="11.5510027"><ele>110.85714285714286</ele><time>2026-04-17T15:42:33.382Z</time></trkpt><trkpt lat="45.6623224" lon="11.5510101"><ele>112.28571428571428</ele><time>2026-04-17T15:42:40.376Z</time></trkpt><trkpt lat="45.6623907" lon="11.5510376"><ele>113.71428571428572</ele><time>2026-04-17T15:42:46.377Z</time></trkpt><trkpt lat="45.6624596" lon="11.5510515"><ele>115.14285714285715</ele><time>2026-04-17T15:42:51.377Z</time></trkpt><trkpt lat="45.6625303" lon="11.5510745"><ele>116.57142857142857</ele><time>2026-04-17T15:42:57.378Z</time></trkpt><trkpt lat="45.6625915" lon="11.5511065"><ele>118.0</ele><time>2026-04-17T15:43:01.376Z</time></trkpt><trkpt lat="45.6626634" lon="11.5511361"><ele>118.00000000000001</ele><time>2026-04-17T15:43:07.375Z</time></trkpt><trkpt lat="45.6627378" lon="11.5511671"><ele>118.0</ele><time>2026-04-17T15:43:12.375Z</time></trkpt><trkpt lat="45.6627963" lon="11.5512075"><ele>118.0</ele><time>2026-04-17T15:43:16.377Z</time></trkpt><trkpt lat="45.6628566" lon="11.5512513"><ele>118.0</ele><time>2026-04-17T15:43:20.375Z</time></trkpt><trkpt lat="45.6629532" lon="11.5513022"><ele>118.00000000000001</ele><time>2026-04-17T15:43:24.375Z</time></trkpt><trkpt lat="45.6630278" lon="11.551336"><ele>118.0</ele><time>2026-04-17T15:43:30.375Z</time></trkpt><trkpt lat="45.6630888" lon="11.5513643"><ele>118.57142857142857</ele><time>2026-04-17T15:43:34.375Z</time></trkpt><trkpt lat="45.6631541" lon="11.5514097"><ele>119.14285714285714</ele><time>2026-04-17T15:43:38.374Z</time></trkpt><trkpt lat="45.6632121" lon="11.5514601"><ele>119.71428571428571</ele><time>2026-04-17T15:43:40.376Z</time></trkpt><trkpt lat="45.663271" lon="11.5515205"><ele>120.28571428571428</ele><time>2026-04-17T15:43:45.375Z</time></trkpt><trkpt lat="45.6633231" lon="11.5516227"><ele>120.85714285714286</ele><time>2026-04-17T15:44:03.374Z</time></trkpt><trkpt lat="45.6632649" lon="11.5515744"><ele>121.42857142857142</ele><time>2026-04-17T15:44:19.374Z</time></trkpt><trkpt lat="45.6632859" lon="11.5514841"><ele>121.99999999999999</ele><time>2026-04-17T15:44:38.377Z</time></trkpt><trkpt lat="45.6633525" lon="11.5514185"><ele>121.99999999999999</ele><time>2026-04-17T15:46:38.383Z</time></trkpt><trkpt lat="45.663342" lon="11.5513136"><ele>122.0</ele><time>2026-04-17T15:46:44.38Z</time></trkpt><trkpt lat="45.6633049" lon="11.5512315"><ele>121.99999999999999</ele><time>2026-04-17T15:46:56.381Z</time></trkpt><trkpt lat="45.6632379" lon="11.5511804"><ele>121.99999999999999</ele><time>2026-04-17T15:46:59.379Z</time></trkpt><trkpt lat="45.663179" lon="11.5511276"><ele>122.0</ele><time>2026-04-17T15:47:02.381Z</time></trkpt><trkpt lat="45.6631064" lon="11.5510816"><ele>121.99999999999999</ele><time>2026-04-17T15:47:05.381Z</time></trkpt><trkpt lat="45.6630362" lon="11.5510279"><ele>121.99999999999999</ele><time>2026-04-17T15:47:08.378Z</time></trkpt><trkpt lat="45.6629518" lon="11.5509765"><ele>122.16666666666666</ele><time>2026-04-17T15:47:11.376Z</time></trkpt><trkpt lat="45.6628842" lon="11.5509297"><ele>122.33333333333333</ele><time>2026-04-17T15:47:13.376Z</time></trkpt><trkpt lat="45.6628132" lon="11.5508533"><ele>122.5</ele><time>2026-04-17T15:47:15.377Z</time></trkpt><trkpt lat="45.6627691" lon="11.5507821"><ele>122.66666666666666</ele><time>2026-04-17T15:47:17.379Z</time></trkpt><trkpt lat="45.6627953" lon="11.5506756"><ele>122.83333333333333</ele><time>2026-04-17T15:47:21.375Z</time></trkpt><trkpt lat="45.6628174" lon="11.5505757"><ele>123.0</ele><time>2026-04-17T15:47:25.38Z</time></trkpt><trkpt lat="45.6628169" lon="11.5504586"><ele>122.42857142857144</ele><time>2026-04-17T15:47:29.382Z</time></trkpt><trkpt lat="45.6628068" lon="11.5503654"><ele>121.85714285714286</ele><time>2026-04-17T15:47:32.38Z</time></trkpt><trkpt lat="45.6627849" lon="11.5502683"><ele>121.28571428571429</ele><time>2026-04-17T15:47:35.381Z</time></trkpt><trkpt lat="45.6627917" lon="11.550163"><ele>120.71428571428572</ele><time>2026-04-17T15:47:38.381Z</time></trkpt><trkpt lat="45.6628553" lon="11.5501357"><ele>120.14285714285714</ele><time>2026-04-17T15:47:42.378Z</time></trkpt><trkpt lat="45.6629113" lon="11.5500768"><ele>119.57142857142857</ele><time>2026-04-17T15:47:52.381Z</time></trkpt><trkpt lat="45.6629282" lon="11.5499471"><ele>119.0</ele><time>2026-04-17T15:47:54.381Z</time></trkpt><trkpt lat="45.6629542" lon="11.549779"><ele>119.0</ele><time>2026-04-17T15:47:56.379Z</time></trkpt><trkpt lat="45.6629785" lon="11.5496173"><ele>119.0</ele><time>2026-04-17T15:47:58.379Z</time></trkpt><trkpt lat="45.6629715" lon="11.5494919"><ele>119.0</ele><time>2026-04-17T15:48:00.38Z</time></trkpt><trkpt lat="45.6629382" lon="11.5493588"><ele>119.0</ele><time>2026-04-17T15:48:02.379Z</time></trkpt><trkpt lat="45.6628789" lon="11.5492306"><ele>119.0</ele><time>2026-04-17T15:48:04.379Z</time></trkpt><trkpt lat="45.6628428" lon="11.5491185"><ele>118.66666666666666</ele><time>2026-04-17T15:48:06.378Z</time></trkpt><trkpt lat="45.6628201" lon="11.5490251"><ele>118.33333333333333</ele><time>2026-04-17T15:48:08.378Z</time></trkpt><trkpt lat="45.6627531" lon="11.5489319"><ele>118.0</ele><time>2026-04-17T15:48:10.379Z</time></trkpt><trkpt lat="45.6626994" lon="11.5488693"><ele>117.66666666666666</ele><time>2026-04-17T15:48:11.376Z</time></trkpt><trkpt lat="45.6626196" lon="11.5487795"><ele>117.33333333333333</ele><time>2026-04-17T15:48:13.375Z</time></trkpt><trkpt lat="45.6626163" lon="11.5486715"><ele>117.0</ele><time>2026-04-17T15:48:17.379Z</time></trkpt><trkpt lat="45.6626373" lon="11.5485849"><ele>115.33333333333333</ele><time>2026-04-17T15:48:19.379Z</time></trkpt><trkpt lat="45.6626195" lon="11.5484584"><ele>113.66666666666666</ele><time>2026-04-17T15:48:21.38Z</time></trkpt><trkpt lat="45.6625843" lon="11.5483806"><ele>112.0</ele><time>2026-04-17T15:48:22.38Z</time></trkpt><trkpt lat="45.662539" lon="11.5482966"><ele>110.33333333333333</ele><time>2026-04-17T15:48:23.379Z</time></trkpt><trkpt lat="45.6624979" lon="11.5482236"><ele>108.66666666666666</ele><time>2026-04-17T15:48:24.377Z</time></trkpt><trkpt lat="45.6624558" lon="11.5481404"><ele>107.0</ele><time>2026-04-17T15:48:25.377Z</time></trkpt><trkpt lat="45.6623898" lon="11.5480099"><ele>106.99999999999999</ele><time>2026-04-17T15:48:27.378Z</time></trkpt><trkpt lat="45.6623358" lon="11.547928"><ele>107.0</ele><time>2026-04-17T15:48:29.375Z</time></trkpt><trkpt lat="45.6622814" lon="11.5478503"><ele>107.0</ele><time>2026-04-17T15:48:31.379Z</time></trkpt><trkpt lat="45.6622238" lon="11.547763"><ele>107.0</ele><time>2026-04-17T15:48:33.379Z</time></trkpt><trkpt lat="45.6621522" lon="11.5476765"><ele>106.99999999999999</ele><time>2026-04-17T15:48:35.381Z</time></trkpt><trkpt lat="45.6620907" lon="11.5476063"><ele>107.0</ele><time>2026-04-17T15:48:37.379Z</time></trkpt><trkpt lat="45.6620083" lon="11.5475579"><ele>103.99999999999999</ele><time>2026-04-17T15:48:39.382Z</time></trkpt><trkpt lat="45.6619191" lon="11.5475162"><ele>101.0</ele><time>2026-04-17T15:48:41.377Z</time></trkpt><trkpt lat="45.6618364" lon="11.5475189"><ele>98.0</ele><time>2026-04-17T15:48:43.384Z</time></trkpt><trkpt lat="45.6617604" lon="11.547546"><ele>95.0</ele><time>2026-04-17T15:48:45.381Z</time></trkpt><trkpt lat="45.661692" lon="11.5474984"><ele>92.0</ele><time>2026-04-17T15:48:48.381Z</time></trkpt><trkpt lat="45.6616268" lon="11.5474741"><ele>89.0</ele><time>2026-04-17T15:48:52.379Z</time></trkpt><trkpt lat="45.6615709" lon="11.5475365"><ele>89.0</ele><time>2026-04-17T15:48:55.38Z</time></trkpt><trkpt lat="45.661497" lon="11.5476026"><ele>89.0</ele><time>2026-04-17T15:48:58.38Z</time></trkpt><trkpt lat="45.6614359" lon="11.547664"><ele>89.0</ele><time>2026-04-17T15:49:01.379Z</time></trkpt><trkpt lat="45.6613618" lon="11.5477069"><ele>89.0</ele><time>2026-04-17T15:49:05.376Z</time></trkpt><trkpt lat="45.661299" lon="11.5477743"><ele>89.0</ele><time>2026-04-17T15:49:08.379Z</time></trkpt><trkpt lat="45.6612819" lon="11.547886"><ele>89.0</ele><time>2026-04-17T15:49:11.376Z</time></trkpt><trkpt lat="45.6612908" lon="11.5479834"><ele>89.85714285714285</ele><time>2026-04-17T15:49:15.38Z</time></trkpt><trkpt lat="45.6612969" lon="11.548079"><ele>90.71428571428571</ele><time>2026-04-17T15:49:21.381Z</time></trkpt><trkpt lat="45.6612875" lon="11.5481799"><ele>91.57142857142857</ele><time>2026-04-17T15:49:27.372Z</time></trkpt><trkpt lat="45.6612979" lon="11.5482778"><ele>92.42857142857142</ele><time>2026-04-17T15:49:32.381Z</time></trkpt><trkpt lat="45.6613103" lon="11.5483847"><ele>93.28571428571429</ele><time>2026-04-17T15:49:37.38Z</time></trkpt><trkpt lat="45.6613147" lon="11.5484749"><ele>94.14285714285714</ele><time>2026-04-17T15:49:41.378Z</time></trkpt><trkpt lat="45.661316" lon="11.5485807"><ele>95.0</ele><time>2026-04-17T15:49:46.379Z</time></trkpt><trkpt lat="45.6613244" lon="11.5486841"><ele>96.0</ele><time>2026-04-17T15:49:51.376Z</time></trkpt><trkpt lat="45.6613257" lon="11.5487915"><ele>97.0</ele><time>2026-04-17T15:49:56.377Z</time></trkpt><trkpt lat="45.6613332" lon="11.5488825"><ele>98.0</ele><time>2026-04-17T15:50:00.377Z</time></trkpt><trkpt lat="45.6613371" lon="11.5489744"><ele>99.0</ele><time>2026-04-17T15:50:04.376Z</time></trkpt><trkpt lat="45.6613512" lon="11.5490675"><ele>100.0</ele><time>2026-04-17T15:50:08.378Z</time></trkpt><trkpt lat="45.6613551" lon="11.5491632"><ele>101.0</ele><time>2026-04-17T15:50:12.379Z</time></trkpt><trkpt lat="45.6613538" lon="11.5492738"><ele>102.0</ele><time>2026-04-17T15:50:17.379Z</time></trkpt><trkpt lat="45.6613514" lon="11.5493686"><ele>102.0</ele><time>2026-04-17T15:50:21.379Z</time></trkpt><trkpt lat="45.6613691" lon="11.5494555"><ele>102.0</ele><time>2026-04-17T15:50:25.381Z</time></trkpt><trkpt lat="45.6613652" lon="11.5495546"><ele>102.0</ele><time>2026-04-17T15:50:29.381Z</time></trkpt><trkpt lat="45.6613636" lon="11.549663"><ele>102.0</ele><time>2026-04-17T15:50:34.378Z</time></trkpt><trkpt lat="45.6613711" lon="11.5497647"><ele>102.0</ele><time>2026-04-17T15:50:38.381Z</time></trkpt><trkpt lat="45.6613819" lon="11.5498567"><ele>102.0</ele><time>2026-04-17T15:50:42.381Z</time></trkpt><trkpt lat="45.6613892" lon="11.5499666"><ele>102.0</ele><time>2026-04-17T15:50:46.381Z</time></trkpt><trkpt lat="45.661394" lon="11.5500819"><ele>102.57142857142857</ele><time>2026-04-17T15:50:50.379Z</time></trkpt><trkpt lat="45.6614033" lon="11.5501727"><ele>103.14285714285714</ele><time>2026-04-17T15:50:53.381Z</time></trkpt><trkpt lat="45.6614118" lon="11.5502763"><ele>103.71428571428572</ele><time>2026-04-17T15:50:57.378Z</time></trkpt><trkpt lat="45.66142" lon="11.5503672"><ele>104.28571428571428</ele><time>2026-04-17T15:51:00.381Z</time></trkpt><trkpt lat="45.6614265" lon="11.5504595"><ele>104.85714285714285</ele><time>2026-04-17T15:51:03.379Z</time></trkpt><trkpt lat="45.6614345" lon="11.5505503"><ele>105.42857142857143</ele><time>2026-04-17T15:51:06.379Z</time></trkpt><trkpt lat="45.6614436" lon="11.5506657"><ele>106.0</ele><time>2026-04-17T15:51:10.378Z</time></trkpt><trkpt lat="45.6614519" lon="11.5507659"><ele>106.28571428571429</ele><time>2026-04-17T15:51:14.379Z</time></trkpt><trkpt lat="45.6614792" lon="11.5508618"><ele>106.57142857142857</ele><time>2026-04-17T15:51:18.381Z</time></trkpt><trkpt lat="45.6615394" lon="11.5509073"><ele>106.85714285714286</ele><time>2026-04-17T15:51:23.378Z</time></trkpt><trkpt lat="45.6616058" lon="11.550854"><ele>107.14285714285714</ele><time>2026-04-17T15:51:29.382Z</time></trkpt><trkpt lat="45.6616111" lon="11.5507613"><ele>107.42857142857142</ele><time>2026-04-17T15:51:35.38Z</time></trkpt><trkpt lat="45.6616768" lon="11.5507451"><ele>107.71428571428571</ele><time>2026-04-17T15:51:39.378Z</time></trkpt><trkpt lat="45.6617517" lon="11.5507561"><ele>108.0</ele><time>2026-04-17T15:51:44.381Z</time></trkpt><trkpt lat="45.6618131" lon="11.5507943"><ele>108.0</ele><time>2026-04-17T15:51:49.379Z</time></trkpt><trkpt lat="45.6618774" lon="11.5508286"><ele>108.0</ele><time>2026-04-17T15:51:54.381Z</time></trkpt><trkpt lat="45.6619418" lon="11.5508617"><ele>108.0</ele><time>2026-04-17T15:51:59.381Z</time></trkpt><trkpt lat="45.6620071" lon="11.5508966"><ele>108.0</ele><time>2026-04-17T15:52:04.38Z</time></trkpt><trkpt lat="45.6620693" lon="11.5509145"><ele>108.0</ele><time>2026-04-17T15:52:09.378Z</time></trkpt><trkpt lat="45.6621309" lon="11.5509344"><ele>108.0</ele><time>2026-04-17T15:52:14.38Z</time></trkpt><trkpt lat="45.6621964" lon="11.5509706"><ele>108.0</ele><time>2026-04-17T15:52:20.38Z</time></trkpt><trkpt lat="45.6622689" lon="11.5509871"><ele>109.42857142857143</ele><time>2026-04-17T15:52:25.383Z</time></trkpt><trkpt lat="45.6623369" lon="11.5510036"><ele>110.85714285714286</ele><time>2026-04-17T15:52:30.383Z</time></trkpt><trkpt lat="45.6624073" lon="11.5510315"><ele>112.28571428571428</ele><time>2026-04-17T15:52:35.379Z</time></trkpt><trkpt lat="45.6624734" lon="11.5510572"><ele>113.71428571428572</ele><time>2026-04-17T15:52:40.381Z</time></trkpt><trkpt lat="45.6625426" lon="11.5510877"><ele>115.14285714285715</ele><time>2026-04-17T15:52:46.381Z</time></trkpt><trkpt lat="45.6626169" lon="11.5511218"><ele>116.57142857142857</ele><time>2026-04-17T15:52:51.379Z</time></trkpt><trkpt lat="45.6626849" lon="11.5511501"><ele>118.0</ele><time>2026-04-17T15:52:56.38Z</time></trkpt><trkpt lat="45.6627554" lon="11.5511848"><ele>118.66666666666667</ele><time>2026-04-17T15:53:00.381Z</time></trkpt><trkpt lat="45.6628202" lon="11.5512319"><ele>119.33333333333334</ele><time>2026-04-17T15:53:04.379Z</time></trkpt><trkpt lat="45.6628881" lon="11.551282"><ele>120.0</ele><time>2026-04-17T15:53:07.381Z</time></trkpt><trkpt lat="45.6629611" lon="11.5513082"><ele>120.66666666666666</ele><time>2026-04-17T15:53:11.378Z</time></trkpt><trkpt lat="45.663032" lon="11.5513379"><ele>121.33333333333333</ele><time>2026-04-17T15:53:17.379Z</time></trkpt><trkpt lat="45.6631028" lon="11.5513864"><ele>122.0</ele><time>2026-04-17T15:53:22.383Z</time></trkpt><trkpt lat="45.6631682" lon="11.5514401"><ele>121.99999999999999</ele><time>2026-04-17T15:53:26.379Z</time></trkpt><trkpt lat="45.6632403" lon="11.5515032"><ele>122.0</ele><time>2026-04-17T15:53:29.38Z</time></trkpt><trkpt lat="45.6632956" lon="11.5515642"><ele>121.99999999999999</ele><time>2026-04-17T15:53:34.38Z</time></trkpt><trkpt lat="45.6633249" lon="11.5514789"><ele>121.99999999999999</ele><time>2026-04-17T15:54:16.382Z</time></trkpt><trkpt lat="45.6633605" lon="11.5513963"><ele>122.0</ele><time>2026-04-17T15:54:40.384Z</time></trkpt><trkpt lat="45.6633532" lon="11.5512996"><ele>121.99999999999999</ele><time>2026-04-17T15:54:45.382Z</time></trkpt><trkpt lat="45.6633057" lon="11.5512339"><ele>121.99999999999999</ele><time>2026-04-17T15:54:57.383Z</time></trkpt><trkpt lat="45.6632291" lon="11.5511436"><ele>122.14285714285712</ele><time>2026-04-17T15:55:13.384Z</time></trkpt><trkpt lat="45.6632354" lon="11.5510435"><ele>122.28571428571428</ele><time>2026-04-17T15:55:25.382Z</time></trkpt><trkpt lat="45.6632263" lon="11.5509455"><ele>122.42857142857143</ele><time>2026-04-17T15:55:42.382Z</time></trkpt><trkpt lat="45.6632255" lon="11.5508533"><ele>122.57142857142857</ele><time>2026-04-17T15:56:39.384Z</time></trkpt><trkpt lat="45.6632672" lon="11.5509213"><ele>122.71428571428572</ele><time>2026-04-17T15:57:22.385Z</time></trkpt><trkpt lat="45.6632386" lon="11.5510272"><ele>122.85714285714288</ele><time>2026-04-17T15:57:49.384Z</time></trkpt><trkpt lat="45.6631685" lon="11.5510762"><ele>123.00000000000001</ele><time>2026-04-17T15:58:07.383Z</time></trkpt><trkpt lat="45.6630851" lon="11.551038"><ele>123.0</ele><time>2026-04-17T15:58:10.382Z</time></trkpt><trkpt lat="45.6630268" lon="11.551002"><ele>123.0</ele><time>2026-04-17T15:58:12.402Z</time></trkpt><trkpt lat="45.6629347" lon="11.5509204"><ele>123.0</ele><time>2026-04-17T15:58:14.379Z</time></trkpt><trkpt lat="45.6628738" lon="11.55089"><ele>123.0</ele><time>2026-04-17T15:58:16.38Z</time></trkpt><trkpt lat="45.6628079" lon="11.5508413"><ele>123.0</ele><time>2026-04-17T15:58:18.381Z</time></trkpt><trkpt lat="45.6627613" lon="11.5507612"><ele>123.0</ele><time>2026-04-17T15:58:20.38Z</time></trkpt><trkpt lat="45.6627819" lon="11.5506573"><ele>123.0</ele><time>2026-04-17T15:58:23.383Z</time></trkpt><trkpt lat="45.6628223" lon="11.5505634"><ele>123.0</ele><time>2026-04-17T15:58:27.382Z</time></trkpt><trkpt lat="45.6628239" lon="11.5504523"><ele>123.0</ele><time>2026-04-17T15:58:32.376Z</time></trkpt><trkpt lat="45.6628051" lon="11.55036"><ele>123.0</ele><time>2026-04-17T15:58:35.382Z</time></trkpt><trkpt lat="45.6627773" lon="11.5502712"><ele>123.0</ele><time>2026-04-17T15:58:38.383Z</time></trkpt><trkpt lat="45.662786" lon="11.5501537"><ele>123.0</ele><time>2026-04-17T15:58:41.379Z</time></trkpt><trkpt lat="45.6628577" lon="11.5501101"><ele>122.2</ele><time>2026-04-17T15:58:44.382Z</time></trkpt><trkpt lat="45.6629243" lon="11.5500745"><ele>121.4</ele><time>2026-04-17T15:58:47.38Z</time></trkpt><trkpt lat="45.6629268" lon="11.5499483"><ele>120.60000000000001</ele><time>2026-04-17T15:58:49.381Z</time></trkpt><trkpt lat="45.6629425" lon="11.5497786"><ele>119.80000000000001</ele><time>2026-04-17T15:58:51.381Z</time></trkpt><trkpt lat="45.6629589" lon="11.549691"><ele>119.0</ele><time>2026-04-17T15:58:52.382Z</time></trkpt><trkpt lat="45.6629772" lon="11.5495223"><ele>118.6</ele><time>2026-04-17T15:58:54.38Z</time></trkpt><trkpt lat="45.6629457" lon="11.549359"><ele>118.2</ele><time>2026-04-17T15:58:56.379Z</time></trkpt><trkpt lat="45.6629146" lon="11.5492772"><ele>117.79999999999998</ele><time>2026-04-17T15:58:57.38Z</time></trkpt><trkpt lat="45.6628605" lon="11.5491604"><ele>117.39999999999999</ele><time>2026-04-17T15:58:59.378Z</time></trkpt><trkpt lat="45.6628358" lon="11.5490234"><ele>117.0</ele><time>2026-04-17T15:59:02.38Z</time></trkpt><trkpt lat="45.6627642" lon="11.5489242"><ele>117.0</ele><time>2026-04-17T15:59:04.384Z</time></trkpt><trkpt lat="45.6626725" lon="11.5488233"><ele>116.99999999999999</ele><time>2026-04-17T15:59:06.381Z</time></trkpt><trkpt lat="45.6626229" lon="11.5487546"><ele>116.99999999999999</ele><time>2026-04-17T15:59:08.378Z</time></trkpt><trkpt lat="45.6626313" lon="11.5486519"><ele>117.0</ele><time>2026-04-17T15:59:11.379Z</time></trkpt><trkpt lat="45.6626354" lon="11.5485362"><ele>117.0</ele><time>2026-04-17T15:59:13.381Z</time></trkpt><trkpt lat="45.6625821" lon="11.5483865"><ele>115.0</ele><time>2026-04-17T15:59:15.38Z</time></trkpt><trkpt lat="45.6625353" lon="11.5482988"><ele>112.99999999999999</ele><time>2026-04-17T15:59:16.381Z</time></trkpt><trkpt lat="45.6624841" lon="11.5482135"><ele>110.99999999999999</ele><time>2026-04-17T15:59:17.38Z</time></trkpt><trkpt lat="45.6624393" lon="11.5481325"><ele>109.0</ele><time>2026-04-17T15:59:18.38Z</time></trkpt><trkpt lat="45.6623578" lon="11.5480029"><ele>107.0</ele><time>2026-04-17T15:59:20.378Z</time></trkpt><trkpt lat="45.6622793" lon="11.5479011"><ele>105.39999999999999</ele><time>2026-04-17T15:59:22.379Z</time></trkpt><trkpt lat="45.6622007" lon="11.5477521"><ele>103.79999999999998</ele><time>2026-04-17T15:59:24.38Z</time></trkpt><trkpt lat="45.6621616" lon="11.547676"><ele>102.2</ele><time>2026-04-17T15:59:25.38Z</time></trkpt><trkpt lat="45.6620969" lon="11.5475624"><ele>100.6</ele><time>2026-04-17T15:59:27.381Z</time></trkpt><trkpt lat="45.6619829" lon="11.5474683"><ele>99.0</ele><time>2026-04-17T15:59:29.38Z</time></trkpt><trkpt lat="45.6618971" lon="11.5474476"><ele>97.0</ele><time>2026-04-17T15:59:31.383Z</time></trkpt><trkpt lat="45.6618083" lon="11.5474796"><ele>95.0</ele><time>2026-04-17T15:59:33.38Z</time></trkpt><trkpt lat="45.6617075" lon="11.5475271"><ele>93.0</ele><time>2026-04-17T15:59:35.379Z</time></trkpt><trkpt lat="45.6616016" lon="11.5475684"><ele>91.0</ele><time>2026-04-17T15:59:37.381Z</time></trkpt><trkpt lat="45.6615188" lon="11.547628"><ele>89.0</ele><time>2026-04-17T15:59:39.377Z</time></trkpt><trkpt lat="45.6614545" lon="11.5476698"><ele>88.99999999999999</ele><time>2026-04-17T15:59:41.378Z</time></trkpt><trkpt lat="45.661395" lon="11.5477145"><ele>89.0</ele><time>2026-04-17T15:59:43.381Z</time></trkpt><trkpt lat="45.6613174" lon="11.5477829"><ele>89.0</ele><time>2026-04-17T15:59:46.379Z</time></trkpt><trkpt lat="45.6612892" lon="11.5478789"><ele>89.0</ele><time>2026-04-17T15:59:49.382Z</time></trkpt><trkpt lat="45.6613061" lon="11.5479767"><ele>89.0</ele><time>2026-04-17T15:59:54.38Z</time></trkpt><trkpt lat="45.6612946" lon="11.5480785"><ele>88.99999999999999</ele><time>2026-04-17T16:00:00.378Z</time></trkpt><trkpt lat="45.6612925" lon="11.5481827"><ele>89.0</ele><time>2026-04-17T16:00:06.38Z</time></trkpt><trkpt lat="45.6612886" lon="11.5482749"><ele>89.85714285714285</ele><time>2026-04-17T16:00:11.38Z</time></trkpt><trkpt lat="45.6612969" lon="11.5483646"><ele>90.71428571428571</ele><time>2026-04-17T16:00:15.382Z</time></trkpt><trkpt lat="45.6613099" lon="11.54847"><ele>91.57142857142857</ele><time>2026-04-17T16:00:20.381Z</time></trkpt><trkpt lat="45.6613152" lon="11.5485733"><ele>92.42857142857142</ele><time>2026-04-17T16:00:25.38Z</time></trkpt><trkpt lat="45.6613274" lon="11.5486828"><ele>93.28571428571429</ele><time>2026-04-17T16:00:29.379Z</time></trkpt><trkpt lat="45.6613414" lon="11.548782"><ele>94.14285714285714</ele><time>2026-04-17T16:00:34.374Z</time></trkpt><trkpt lat="45.6613409" lon="11.5488782"><ele>95.0</ele><time>2026-04-17T16:00:39.377Z</time></trkpt><trkpt lat="45.6613409" lon="11.54898"><ele>96.0</ele><time>2026-04-17T16:00:44.38Z</time></trkpt><trkpt lat="45.6613556" lon="11.5490862"><ele>97.0</ele><time>2026-04-17T16:00:48.38Z</time></trkpt><trkpt lat="45.6613631" lon="11.5491901"><ele>98.0</ele><time>2026-04-17T16:00:54.374Z</time></trkpt><trkpt lat="45.6613741" lon="11.5492933"><ele>99.0</ele><time>2026-04-17T16:01:00.381Z</time></trkpt><trkpt lat="45.6613872" lon="11.5494028"><ele>100.0</ele><time>2026-04-17T16:01:06.379Z</time></trkpt><trkpt lat="45.6613691" lon="11.5494974"><ele>101.0</ele><time>2026-04-17T16:01:11.38Z</time></trkpt><trkpt lat="45.6613786" lon="11.5495973"><ele>102.0</ele><time>2026-04-17T16:01:16.381Z</time></trkpt><trkpt lat="45.6613718" lon="11.5496882"><ele>102.57142857142857</ele><time>2026-04-17T16:01:21.38Z</time></trkpt><trkpt lat="45.661373" lon="11.5497915"><ele>103.14285714285714</ele><time>2026-04-17T16:01:26.381Z</time></trkpt><trkpt lat="45.6613789" lon="11.5498994"><ele>103.71428571428572</ele><time>2026-04-17T16:01:30.382Z</time></trkpt><trkpt lat="45.6613939" lon="11.5499901"><ele>104.28571428571428</ele><time>2026-04-17T16:01:33.382Z</time></trkpt><trkpt lat="45.6613995" lon="11.5501037"><ele>104.85714285714285</ele><time>2026-04-17T16:01:37.38Z</time></trkpt><trkpt lat="45.6613977" lon="11.5502208"><ele>105.42857142857143</ele><time>2026-04-17T16:01:41.38Z</time></trkpt><trkpt lat="45.6614049" lon="11.550327"><ele>106.0</ele><time>2026-04-17T16:01:45.397Z</time></trkpt><trkpt lat="45.6614154" lon="11.5504398"><ele>106.28571428571429</ele><time>2026-04-17T16:01:49.397Z</time></trkpt><trkpt lat="45.6614211" lon="11.5505308"><ele>106.57142857142857</ele><time>2026-04-17T16:01:52.396Z</time></trkpt><trkpt lat="45.6614255" lon="11.5506455"><ele>106.85714285714286</ele><time>2026-04-17T16:01:56.397Z</time></trkpt><trkpt lat="45.6614461" lon="11.5507478"><ele>107.14285714285714</ele><time>2026-04-17T16:01:59.396Z</time></trkpt><trkpt lat="45.6614708" lon="11.5508356"><ele>107.42857142857142</ele><time>2026-04-17T16:02:03.391Z</time></trkpt><trkpt lat="45.6615223" lon="11.5509075"><ele>107.71428571428571</ele><time>2026-04-17T16:02:06.397Z</time></trkpt><trkpt lat="45.6615891" lon="11.5508984"><ele>108.0</ele><time>2026-04-17T16:02:12.38Z</time></trkpt><trkpt lat="45.6616082" lon="11.5507983"><ele>108.0</ele><time>2026-04-17T16:02:17.379Z</time></trkpt><trkpt lat="45.6616527" lon="11.5507329"><ele>108.0</ele><time>2026-04-17T16:02:22.38Z</time></trkpt><trkpt lat="45.661724" lon="11.5507475"><ele>108.0</ele><time>2026-04-17T16:02:27.382Z</time></trkpt><trkpt lat="45.6617928" lon="11.5507747"><ele>108.0</ele><time>2026-04-17T16:02:33.385Z</time></trkpt><trkpt lat="45.6618633" lon="11.5508069"><ele>108.0</ele><time>2026-04-17T16:02:39.382Z</time></trkpt><trkpt lat="45.6619251" lon="11.5508316"><ele>108.0</ele><time>2026-04-17T16:02:44.383Z</time></trkpt><trkpt lat="45.66199" lon="11.5508733"><ele>108.0</ele><time>2026-04-17T16:02:50.383Z</time></trkpt><trkpt lat="45.6620598" lon="11.5509049"><ele>109.42857142857143</ele><time>2026-04-17T16:02:56.382Z</time></trkpt><trkpt lat="45.6621302" lon="11.55093"><ele>110.85714285714286</ele><time>2026-04-17T16:03:02.381Z</time></trkpt><trkpt lat="45.6622023" lon="11.550959"><ele>112.28571428571428</ele><time>2026-04-17T16:03:08.381Z</time></trkpt><trkpt lat="45.6622779" lon="11.5509692"><ele>113.71428571428572</ele><time>2026-04-17T16:03:13.385Z</time></trkpt><trkpt lat="45.6623496" lon="11.551"><ele>115.14285714285715</ele><time>2026-04-17T16:03:18.374Z</time></trkpt><trkpt lat="45.6624203" lon="11.5510393"><ele>116.57142857142857</ele><time>2026-04-17T16:03:24.383Z</time></trkpt><trkpt lat="45.6624845" lon="11.5510556"><ele>118.0</ele><time>2026-04-17T16:03:28.381Z</time></trkpt><trkpt lat="45.6625462" lon="11.5510911"><ele>118.0</ele><time>2026-04-17T16:03:33.383Z</time></trkpt><trkpt lat="45.662606" lon="11.5511203"><ele>118.0</ele><time>2026-04-17T16:03:38.383Z</time></trkpt><trkpt lat="45.6626687" lon="11.5511414"><ele>118.0</ele><time>2026-04-17T16:03:43.382Z</time></trkpt><trkpt lat="45.6627338" lon="11.5511687"><ele>118.0</ele><time>2026-04-17T16:03:47.38Z</time></trkpt><trkpt lat="45.662806" lon="11.5511914"><ele>118.0</ele><time>2026-04-17T16:03:52.38Z</time></trkpt><trkpt lat="45.6628682" lon="11.5512333"><ele>118.0</ele><time>2026-04-17T16:03:56.381Z</time></trkpt><trkpt lat="45.6629371" lon="11.5512609"><ele>118.0</ele><time>2026-04-17T16:04:02.382Z</time></trkpt><trkpt lat="45.6629919" lon="11.5513085"><ele>118.57142857142857</ele><time>2026-04-17T16:04:05.382Z</time></trkpt><trkpt lat="45.6630559" lon="11.5513511"><ele>119.14285714285714</ele><time>2026-04-17T16:04:10.38Z</time></trkpt><trkpt lat="45.6631413" lon="11.5514"><ele>119.71428571428571</ele><time>2026-04-17T16:04:14.378Z</time></trkpt><trkpt lat="45.6632018" lon="11.5514486"><ele>120.28571428571428</ele><time>2026-04-17T16:04:18.38Z</time></trkpt><trkpt lat="45.6632593" lon="11.5514874"><ele>120.85714285714286</ele><time>2026-04-17T16:04:24.377Z</time></trkpt><trkpt lat="45.6633108" lon="11.5515494"><ele>121.42857142857142</ele><time>2026-04-17T16:04:29.38Z</time></trkpt><trkpt lat="45.6633488" lon="11.5514725"><ele>121.99999999999999</ele><time>2026-04-17T16:05:23.38Z</time></trkpt><trkpt lat="45.6633271" lon="11.551379"><ele>121.99999999999999</ele><time>2026-04-17T16:07:05.402Z</time></trkpt><trkpt lat="45.6633063" lon="11.5512798"><ele>122.0</ele><time>2026-04-17T16:07:09.385Z</time></trkpt><trkpt lat="45.6632553" lon="11.5511873"><ele>122.0</ele><time>2026-04-17T16:07:13.383Z</time></trkpt><trkpt lat="45.6631867" lon="11.5511321"><ele>122.0</ele><time>2026-04-17T16:07:16.402Z</time></trkpt><trkpt lat="45.6631267" lon="11.5510849"><ele>121.99999999999999</ele><time>2026-04-17T16:07:18.382Z</time></trkpt><trkpt lat="45.6630596" lon="11.5510192"><ele>122.0</ele><time>2026-04-17T16:07:21.38Z</time></trkpt><trkpt lat="45.662984" lon="11.5509702"><ele>122.14285714285712</ele><time>2026-04-17T16:07:24.379Z</time></trkpt><trkpt lat="45.662924" lon="11.5509414"><ele>122.28571428571428</ele><time>2026-04-17T16:07:26.382Z</time></trkpt><trkpt lat="45.662858" lon="11.5509144"><ele>122.42857142857143</ele><time>2026-04-17T16:07:28.381Z</time></trkpt><trkpt lat="45.6628014" lon="11.550849"><ele>122.57142857142857</ele><time>2026-04-17T16:07:30.38Z</time></trkpt><trkpt lat="45.662788" lon="11.5507326"><ele>122.71428571428572</ele><time>2026-04-17T16:07:33.381Z</time></trkpt><trkpt lat="45.6627815" lon="11.550627"><ele>122.85714285714288</ele><time>2026-04-17T16:08:20.383Z</time></trkpt><trkpt lat="45.6627824" lon="11.5505198"><ele>123.00000000000001</ele><time>2026-04-17T16:08:23.386Z</time></trkpt><trkpt lat="45.6627856" lon="11.5504058"><ele>123.0</ele><time>2026-04-17T16:08:28.384Z</time></trkpt><trkpt lat="45.6627717" lon="11.55029"><ele>123.0</ele><time>2026-04-17T16:08:32.384Z</time></trkpt><trkpt lat="45.6627726" lon="11.5501731"><ele>123.0</ele><time>2026-04-17T16:08:36.381Z</time></trkpt><trkpt lat="45.6628499" lon="11.5501056"><ele>123.0</ele><time>2026-04-17T16:08:39.383Z</time></trkpt><trkpt lat="45.6629147" lon="11.5501088"><ele>123.0</ele><time>2026-04-17T16:08:41.38Z</time></trkpt><trkpt lat="45.6629398" lon="11.5500182"><ele>123.0</ele><time>2026-04-17T16:08:43.382Z</time></trkpt><trkpt lat="45.6629394" lon="11.5498637"><ele>122.33333333333333</ele><time>2026-04-17T16:08:45.381Z</time></trkpt><trkpt lat="45.6629615" lon="11.5496946"><ele>121.66666666666666</ele><time>2026-04-17T16:08:47.381Z</time></trkpt><trkpt lat="45.6629755" lon="11.5496058"><ele>121.0</ele><time>2026-04-17T16:08:48.381Z</time></trkpt><trkpt lat="45.662975" lon="11.5494806"><ele>120.33333333333333</ele><time>2026-04-17T16:08:50.38Z</time></trkpt><trkpt lat="45.6629458" lon="11.5493722"><ele>119.66666666666666</ele><time>2026-04-17T16:08:52.38Z</time></trkpt><trkpt lat="45.6629109" lon="11.5492845"><ele>119.0</ele><time>2026-04-17T16:08:54.381Z</time></trkpt><trkpt lat="45.6628871" lon="11.5491745"><ele>118.71428571428572</ele><time>2026-04-17T16:08:57.379Z</time></trkpt><trkpt lat="45.6628794" lon="11.5490752"><ele>118.42857142857143</ele><time>2026-04-17T16:09:00.38Z</time></trkpt><trkpt lat="45.6628837" lon="11.5489794"><ele>118.14285714285714</ele><time>2026-04-17T16:09:19.378Z</time></trkpt><trkpt lat="45.6628838" lon="11.5488855"><ele>117.85714285714286</ele><time>2026-04-17T16:09:24.378Z</time></trkpt><trkpt lat="45.6628003" lon="11.5488665"><ele>117.57142857142858</ele><time>2026-04-17T16:10:06.378Z</time></trkpt><trkpt lat="45.6627338" lon="11.5488054"><ele>117.28571428571429</ele><time>2026-04-17T16:10:10.376Z</time></trkpt><trkpt lat="45.6626798" lon="11.5487559"><ele>117.0</ele><time>2026-04-17T16:10:14.378Z</time></trkpt><trkpt lat="45.6626406" lon="11.5486769"><ele>115.33333333333333</ele><time>2026-04-17T16:11:03.382Z</time></trkpt><trkpt lat="45.6626474" lon="11.5485828"><ele>113.66666666666666</ele><time>2026-04-17T16:11:06.391Z</time></trkpt><trkpt lat="45.662642" lon="11.5484821"><ele>112.0</ele><time>2026-04-17T16:11:08.386Z</time></trkpt><trkpt lat="45.6625833" lon="11.5483574"><ele>110.33333333333333</ele><time>2026-04-17T16:11:10.39Z</time></trkpt><trkpt lat="45.6625389" lon="11.5482814"><ele>108.66666666666666</ele><time>2026-04-17T16:11:11.387Z</time></trkpt><trkpt lat="45.6624962" lon="11.5481995"><ele>107.0</ele><time>2026-04-17T16:11:12.392Z</time></trkpt><trkpt lat="45.6624537" lon="11.5481157"><ele>107.00000000000001</ele><time>2026-04-17T16:11:13.395Z</time></trkpt><trkpt lat="45.6624108" lon="11.5480313"><ele>107.0</ele><time>2026-04-17T16:11:14.394Z</time></trkpt><trkpt lat="45.6623618" lon="11.5479531"><ele>107.0</ele><time>2026-04-17T16:11:15.387Z</time></trkpt><trkpt lat="45.6623081" lon="11.5478787"><ele>107.0</ele><time>2026-04-17T16:11:16.385Z</time></trkpt><trkpt lat="45.6622557" lon="11.5478062"><ele>107.0</ele><time>2026-04-17T16:11:17.385Z</time></trkpt><trkpt lat="45.6622058" lon="11.5477281"><ele>107.00000000000001</ele><time>2026-04-17T16:11:18.388Z</time></trkpt><trkpt lat="45.6621575" lon="11.547651"><ele>107.0</ele><time>2026-04-17T16:11:19.386Z</time></trkpt><trkpt lat="45.6621091" lon="11.5475812"><ele>105.66666666666666</ele><time>2026-04-17T16:11:20.39Z</time></trkpt><trkpt lat="45.662047" lon="11.5475263"><ele>104.33333333333333</ele><time>2026-04-17T16:11:21.388Z</time></trkpt><trkpt lat="45.6619749" lon="11.5474922"><ele>103.0</ele><time>2026-04-17T16:11:22.389Z</time></trkpt><trkpt lat="45.6619103" lon="11.547481"><ele>101.66666666666666</ele><time>2026-04-17T16:11:23.389Z</time></trkpt><trkpt lat="45.6617966" lon="11.5475306"><ele>100.33333333333333</ele><time>2026-04-17T16:11:25.383Z</time></trkpt><trkpt lat="45.6616962" lon="11.5475781"><ele>99.0</ele><time>2026-04-17T16:11:27.389Z</time></trkpt><trkpt lat="45.6616168" lon="11.5476079"><ele>98.42857142857143</ele><time>2026-04-17T16:11:29.391Z</time></trkpt><trkpt lat="45.6615528" lon="11.5476303"><ele>97.85714285714285</ele><time>2026-04-17T16:11:31.397Z</time></trkpt><trkpt lat="45.6614762" lon="11.5476736"><ele>97.28571428571428</ele><time>2026-04-17T16:11:34.396Z</time></trkpt><trkpt lat="45.6614227" lon="11.5477331"><ele>96.71428571428572</ele><time>2026-04-17T16:11:37.393Z</time></trkpt><trkpt lat="45.6613595" lon="11.5477899"><ele>96.14285714285714</ele><time>2026-04-17T16:11:41.392Z</time></trkpt><trkpt lat="45.6612951" lon="11.5478514"><ele>95.57142857142857</ele><time>2026-04-17T16:11:45.379Z</time></trkpt><trkpt lat="45.6612907" lon="11.5479427"><ele>95.0</ele><time>2026-04-17T16:11:49.379Z</time></trkpt><trkpt lat="45.6613095" lon="11.5480438"><ele>95.0</ele><time>2026-04-17T16:11:55.377Z</time></trkpt><trkpt lat="45.6613" lon="11.5481368"><ele>95.0</ele><time>2026-04-17T16:12:01.382Z</time></trkpt><trkpt lat="45.6613078" lon="11.5482295"><ele>95.0</ele><time>2026-04-17T16:12:07.383Z</time></trkpt><trkpt lat="45.6612953" lon="11.5483349"><ele>95.0</ele><time>2026-04-17T16:12:12.379Z</time></trkpt><trkpt lat="45.6613218" lon="11.548424"><ele>95.0</ele><time>2026-04-17T16:12:17.371Z</time></trkpt><trkpt lat="45.6613251" lon="11.5485234"><ele>95.0</ele><time>2026-04-17T16:12:22.378Z</time></trkpt><trkpt lat="45.6613308" lon="11.5486267"><ele>95.0</ele><time>2026-04-17T16:12:27.378Z</time></trkpt><trkpt lat="45.6613355" lon="11.5487183"><ele>96.0</ele><time>2026-04-17T16:12:31.379Z</time></trkpt><trkpt lat="45.6613377" lon="11.5488199"><ele>97.0</ele><time>2026-04-17T16:12:36.379Z</time></trkpt><trkpt lat="45.6613281" lon="11.5489183"><ele>98.0</ele><time>2026-04-17T16:12:41.38Z</time></trkpt><trkpt lat="45.6613401" lon="11.5490235"><ele>99.0</ele><time>2026-04-17T16:12:46.379Z</time></trkpt><trkpt lat="45.6613511" lon="11.5491146"><ele>100.0</ele><time>2026-04-17T16:12:50.379Z</time></trkpt><trkpt lat="45.6613574" lon="11.5492108"><ele>101.0</ele><time>2026-04-17T16:12:54.378Z</time></trkpt><trkpt lat="45.6613615" lon="11.5493075"><ele>102.0</ele><time>2026-04-17T16:12:58.379Z</time></trkpt><trkpt lat="45.6613605" lon="11.5493989"><ele>102.0</ele><time>2026-04-17T16:13:02.371Z</time></trkpt><trkpt lat="45.6613733" lon="11.5495045"><ele>102.0</ele><time>2026-04-17T16:13:07.38Z</time></trkpt><trkpt lat="45.6613782" lon="11.5495946"><ele>102.0</ele><time>2026-04-17T16:13:11.379Z</time></trkpt><trkpt lat="45.6613619" lon="11.5497021"><ele>102.0</ele><time>2026-04-17T16:13:16.381Z</time></trkpt><trkpt lat="45.6613699" lon="11.5498204"><ele>102.0</ele><time>2026-04-17T16:13:20.381Z</time></trkpt><trkpt lat="45.6613979" lon="11.5499152"><ele>102.0</ele><time>2026-04-17T16:13:22.38Z</time></trkpt><trkpt lat="45.6614093" lon="11.5500215"><ele>102.0</ele><time>2026-04-17T16:13:26.381Z</time></trkpt><trkpt lat="45.6614168" lon="11.5501186"><ele>102.57142857142857</ele><time>2026-04-17T16:13:30.379Z</time></trkpt><trkpt lat="45.6614227" lon="11.5502142"><ele>103.14285714285714</ele><time>2026-04-17T16:13:34.382Z</time></trkpt><trkpt lat="45.6614292" lon="11.5503075"><ele>103.71428571428572</ele><time>2026-04-17T16:13:39.381Z</time></trkpt><trkpt lat="45.6614318" lon="11.5504099"><ele>104.28571428571428</ele><time>2026-04-17T16:13:45.381Z</time></trkpt><trkpt lat="45.6614358" lon="11.5505102"><ele>104.85714285714285</ele><time>2026-04-17T16:13:50.38Z</time></trkpt><trkpt lat="45.6614519" lon="11.5506109"><ele>105.42857142857143</ele><time>2026-04-17T16:13:55.378Z</time></trkpt><trkpt lat="45.6614543" lon="11.5507177"><ele>106.0</ele><time>2026-04-17T16:14:00.379Z</time></trkpt><trkpt lat="45.6614816" lon="11.5508153"><ele>106.28571428571429</ele><time>2026-04-17T16:14:05.378Z</time></trkpt><trkpt lat="45.6615271" lon="11.5509033"><ele>106.57142857142857</ele><time>2026-04-17T16:14:10.379Z</time></trkpt><trkpt lat="45.6615907" lon="11.5509163"><ele>106.85714285714286</ele><time>2026-04-17T16:14:16.379Z</time></trkpt><trkpt lat="45.6616246" lon="11.5508294"><ele>107.14285714285714</ele><time>2026-04-17T16:14:22.38Z</time></trkpt><trkpt lat="45.6616459" lon="11.5507326"><ele>107.42857142857142</ele><time>2026-04-17T16:14:28.383Z</time></trkpt><trkpt lat="45.6616331" lon="11.5508435"><ele>107.71428571428571</ele><time>2026-04-17T16:14:44.379Z</time></trkpt><trkpt lat="45.6616102" lon="11.5509465"><ele>108.0</ele><time>2026-04-17T16:14:46.382Z</time></trkpt><trkpt lat="45.6616174" lon="11.5510652"><ele>108.2</ele><time>2026-04-17T16:14:48.383Z</time></trkpt><trkpt lat="45.6616564" lon="11.5512263"><ele>108.4</ele><time>2026-04-17T16:14:50.38Z</time></trkpt><trkpt lat="45.6617209" lon="11.5513506"><ele>108.60000000000001</ele><time>2026-04-17T16:14:52.381Z</time></trkpt><trkpt lat="45.6618038" lon="11.5514559"><ele>108.80000000000001</ele><time>2026-04-17T16:14:54.38Z</time></trkpt><trkpt lat="45.661821" lon="11.5515427"><ele>109.0</ele><time>2026-04-17T16:14:59.377Z</time></trkpt><trkpt lat="45.6617371" lon="11.5515798"><ele>109.0</ele><time>2026-04-17T16:15:24.377Z</time></trkpt><trkpt lat="45.6616392" lon="11.5515062"><ele>109.0</ele><time>2026-04-17T16:15:26.379Z</time></trkpt><trkpt lat="45.6615401" lon="11.551407"><ele>109.0</ele><time>2026-04-17T16:15:28.38Z</time></trkpt><trkpt lat="45.6614447" lon="11.5513229"><ele>109.0</ele><time>2026-04-17T16:15:30.379Z</time></trkpt><trkpt lat="45.6613668" lon="11.5512272"><ele>109.0</ele><time>2026-04-17T16:15:32.378Z</time></trkpt><trkpt lat="45.6613045" lon="11.5511066"><ele>108.80000000000001</ele><time>2026-04-17T16:15:34.375Z</time></trkpt><trkpt lat="45.6612642" lon="11.5509563"><ele>108.60000000000001</ele><time>2026-04-17T16:15:36.375Z</time></trkpt><trkpt lat="45.661219" lon="11.5507836"><ele>108.4</ele><time>2026-04-17T16:15:38.376Z</time></trkpt><trkpt lat="45.6611889" lon="11.5506901"><ele>108.2</ele><time>2026-04-17T16:15:39.374Z</time></trkpt><trkpt lat="45.6611537" lon="11.5505852"><ele>108.0</ele><time>2026-04-17T16:15:40.376Z</time></trkpt><trkpt lat="45.6611152" lon="11.5504859"><ele>107.83333333333333</ele><time>2026-04-17T16:15:41.377Z</time></trkpt><trkpt lat="45.6610782" lon="11.5503797"><ele>107.66666666666666</ele><time>2026-04-17T16:15:42.378Z</time></trkpt><trkpt lat="45.6610461" lon="11.5502699"><ele>107.5</ele><time>2026-04-17T16:15:43.38Z</time></trkpt><trkpt lat="45.6610206" lon="11.5501614"><ele>107.33333333333333</ele><time>2026-04-17T16:15:44.381Z</time></trkpt><trkpt lat="45.6610014" lon="11.5500491"><ele>107.16666666666666</ele><time>2026-04-17T16:15:45.379Z</time></trkpt><trkpt lat="45.6609813" lon="11.5499308"><ele>107.0</ele><time>2026-04-17T16:15:46.381Z</time></trkpt><trkpt lat="45.6609676" lon="11.5497999"><ele>106.16666666666666</ele><time>2026-04-17T16:15:47.377Z</time></trkpt><trkpt lat="45.660963" lon="11.5496789"><ele>105.33333333333333</ele><time>2026-04-17T16:15:48.376Z</time></trkpt><trkpt lat="45.6609675" lon="11.5495632"><ele>104.5</ele><time>2026-04-17T16:15:49.376Z</time></trkpt><trkpt lat="45.6609745" lon="11.5494516"><ele>103.66666666666666</ele><time>2026-04-17T16:15:50.378Z</time></trkpt><trkpt lat="45.6609805" lon="11.5493481"><ele>102.83333333333333</ele><time>2026-04-17T16:15:51.378Z</time></trkpt><trkpt lat="45.6609818" lon="11.5492411"><ele>102.0</ele><time>2026-04-17T16:15:52.378Z</time></trkpt><trkpt lat="45.6609736" lon="11.5491297"><ele>100.8</ele><time>2026-04-17T16:15:53.38Z</time></trkpt><trkpt lat="45.6609452" lon="11.5490303"><ele>99.6</ele><time>2026-04-17T16:15:54.379Z</time></trkpt><trkpt lat="45.6609095" lon="11.5489398"><ele>98.39999999999999</ele><time>2026-04-17T16:15:55.379Z</time></trkpt><trkpt lat="45.6608541" lon="11.5487875"><ele>97.19999999999999</ele><time>2026-04-17T16:15:57.379Z</time></trkpt><trkpt lat="45.6607964" lon="11.54866"><ele>96.0</ele><time>2026-04-17T16:15:59.379Z</time></trkpt><trkpt lat="45.6607317" lon="11.5485497"><ele>96.0</ele><time>2026-04-17T16:16:01.377Z</time></trkpt><trkpt lat="45.6606602" lon="11.5484916"><ele>96.0</ele><time>2026-04-17T16:16:03.381Z</time></trkpt><trkpt lat="45.6605951" lon="11.5485689"><ele>96.0</ele><time>2026-04-17T16:16:06.377Z</time></trkpt><trkpt lat="45.6605587" lon="11.5486486"><ele>96.0</ele><time>2026-04-17T16:16:09.379Z</time></trkpt><trkpt lat="45.6604986" lon="11.5487246"><ele>96.0</ele><time>2026-04-17T16:16:13.378Z</time></trkpt><trkpt lat="45.660439" lon="11.5487841"><ele>96.0</ele><time>2026-04-17T16:16:17.382Z</time></trkpt><trkpt lat="45.6603885" lon="11.5488615"><ele>95.99999999999999</ele><time>2026-04-17T16:16:21.383Z</time></trkpt><trkpt lat="45.660331" lon="11.5489198"><ele>96.0</ele><time>2026-04-17T16:16:25.382Z</time></trkpt><trkpt lat="45.6602884" lon="11.5489938"><ele>96.0</ele><time>2026-04-17T16:16:30.381Z</time></trkpt><trkpt lat="45.6602583" lon="11.549079"><ele>96.0</ele><time>2026-04-17T16:16:35.377Z</time></trkpt><trkpt lat="45.6602173" lon="11.5491675"><ele>96.0</ele><time>2026-04-17T16:16:41.379Z</time></trkpt><trkpt lat="45.6602025" lon="11.5492613"><ele>95.99999999999999</ele><time>2026-04-17T16:16:46.376Z</time></trkpt><trkpt lat="45.6601719" lon="11.5493459"><ele>96.0</ele><time>2026-04-17T16:16:51.377Z</time></trkpt><trkpt lat="45.660143" lon="11.5494283"><ele>96.28571428571428</ele><time>2026-04-17T16:16:56.378Z</time></trkpt><trkpt lat="45.6601106" lon="11.5495173"><ele>96.57142857142857</ele><time>2026-04-17T16:17:03.377Z</time></trkpt><trkpt lat="45.6600737" lon="11.5495987"><ele>96.85714285714286</ele><time>2026-04-17T16:17:09.377Z</time></trkpt><trkpt lat="45.660052" lon="11.549684"><ele>97.14285714285714</ele><time>2026-04-17T16:17:14.383Z</time></trkpt><trkpt lat="45.6600327" lon="11.5497777"><ele>97.42857142857143</ele><time>2026-04-17T16:17:21.375Z</time></trkpt><trkpt lat="45.6600205" lon="11.5498838"><ele>97.71428571428571</ele><time>2026-04-17T16:17:26.378Z</time></trkpt><trkpt lat="45.6599979" lon="11.5499833"><ele>98.0</ele><time>2026-04-17T16:17:32.377Z</time></trkpt><trkpt lat="45.6599945" lon="11.5500793"><ele>98.33333333333333</ele><time>2026-04-17T16:17:38.376Z</time></trkpt><trkpt lat="45.6599972" lon="11.5501836"><ele>98.66666666666666</ele><time>2026-04-17T16:17:43.376Z</time></trkpt><trkpt lat="45.6599942" lon="11.5502962"><ele>99.0</ele><time>2026-04-17T16:17:47.376Z</time></trkpt><trkpt lat="45.6600028" lon="11.5504429"><ele>99.33333333333334</ele><time>2026-04-17T16:17:49.377Z</time></trkpt><trkpt lat="45.6600173" lon="11.5505332"><ele>99.66666666666667</ele><time>2026-04-17T16:17:52.377Z</time></trkpt><trkpt lat="45.6600321" lon="11.5506583"><ele>100.0</ele><time>2026-04-17T16:17:55.379Z</time></trkpt><trkpt lat="45.6600484" lon="11.550757"><ele>100.00000000000001</ele><time>2026-04-17T16:17:57.378Z</time></trkpt><trkpt lat="45.660075" lon="11.5508456"><ele>100.0</ele><time>2026-04-17T16:17:59.379Z</time></trkpt><trkpt lat="45.6601122" lon="11.550928"><ele>100.0</ele><time>2026-04-17T16:18:01.379Z</time></trkpt><trkpt lat="45.6601579" lon="11.5510227"><ele>100.0</ele><time>2026-04-17T16:18:04.379Z</time></trkpt><trkpt lat="45.6602121" lon="11.5510904"><ele>100.0</ele><time>2026-04-17T16:18:08.379Z</time></trkpt><trkpt lat="45.6602605" lon="11.5511639"><ele>100.00000000000001</ele><time>2026-04-17T16:18:11.378Z</time></trkpt><trkpt lat="45.6603188" lon="11.5512137"><ele>100.0</ele><time>2026-04-17T16:18:15.377Z</time></trkpt><trkpt lat="45.6603739" lon="11.5512621"><ele>100.71428571428572</ele><time>2026-04-17T16:18:19.376Z</time></trkpt><trkpt lat="45.6604319" lon="11.5513215"><ele>101.42857142857143</ele><time>2026-04-17T16:18:22.381Z</time></trkpt><trkpt lat="45.6604993" lon="11.5513592"><ele>102.14285714285714</ele><time>2026-04-17T16:18:28.38Z</time></trkpt><trkpt lat="45.6605688" lon="11.5514008"><ele>102.85714285714286</ele><time>2026-04-17T16:18:34.381Z</time></trkpt><trkpt lat="45.6606308" lon="11.551431"><ele>103.57142857142857</ele><time>2026-04-17T16:18:40.381Z</time></trkpt><trkpt lat="45.660636" lon="11.5513254"><ele>104.28571428571429</ele><time>2026-04-17T16:18:47.381Z</time></trkpt><trkpt lat="45.6606245" lon="11.5512197"><ele>105.0</ele><time>2026-04-17T16:18:53.383Z</time></trkpt><trkpt lat="45.6605935" lon="11.5511327"><ele>105.28571428571429</ele><time>2026-04-17T16:18:59.381Z</time></trkpt><trkpt lat="45.66055" lon="11.5510487"><ele>105.57142857142857</ele><time>2026-04-17T16:19:05.381Z</time></trkpt><trkpt lat="45.6605096" lon="11.550959"><ele>105.85714285714286</ele><time>2026-04-17T16:19:11.38Z</time></trkpt><trkpt lat="45.6604729" lon="11.5508748"><ele>106.14285714285714</ele><time>2026-04-17T16:19:16.381Z</time></trkpt><trkpt lat="45.6604475" lon="11.5507883"><ele>106.42857142857143</ele><time>2026-04-17T16:19:21.381Z</time></trkpt><trkpt lat="45.6604149" lon="11.5506907"><ele>106.71428571428572</ele><time>2026-04-17T16:19:27.381Z</time></trkpt><trkpt lat="45.6603857" lon="11.5506011"><ele>107.0</ele><time>2026-04-17T16:19:32.382Z</time></trkpt><trkpt lat="45.6603773" lon="11.5505001"><ele>106.99999999999999</ele><time>2026-04-17T16:19:37.382Z</time></trkpt><trkpt lat="45.6603697" lon="11.5506068"><ele>107.0</ele><time>2026-04-17T16:23:08.381Z</time></trkpt><trkpt lat="45.6604026" lon="11.5507192"><ele>107.0</ele><time>2026-04-17T16:23:11.382Z</time></trkpt><trkpt lat="45.6604307" lon="11.550804"><ele>107.0</ele><time>2026-04-17T16:23:13.386Z</time></trkpt><trkpt lat="45.6604596" lon="11.5508893"><ele>106.99999999999999</ele><time>2026-04-17T16:23:15.382Z</time></trkpt><trkpt lat="45.660498" lon="11.5509801"><ele>107.0</ele><time>2026-04-17T16:23:17.376Z</time></trkpt><trkpt lat="45.6605463" lon="11.5510813"><ele>106.99999999999999</ele><time>2026-04-17T16:23:19.382Z</time></trkpt><trkpt lat="45.6606264" lon="11.5511352"><ele>107.0</ele><time>2026-04-17T16:23:21.383Z</time></trkpt><trkpt lat="45.6607084" lon="11.5511117"><ele>107.0</ele><time>2026-04-17T16:23:23.387Z</time></trkpt><trkpt lat="45.660769" lon="11.5510507"><ele>107.0</ele><time>2026-04-17T16:23:26.383Z</time></trkpt><trkpt lat="45.6608402" lon="11.5509961"><ele>106.99999999999999</ele><time>2026-04-17T16:23:30.384Z</time></trkpt><trkpt lat="45.6608634" lon="11.5509007"><ele>107.0</ele><time>2026-04-17T16:23:32.381Z</time></trkpt><trkpt lat="45.6608735" lon="11.5507639"><ele>106.99999999999999</ele><time>2026-04-17T16:23:34.38Z</time></trkpt><trkpt lat="45.6608583" lon="11.5506419"><ele>107.0</ele><time>2026-04-17T16:23:36.381Z</time></trkpt><trkpt lat="45.6608207" lon="11.5505473"><ele>107.0</ele><time>2026-04-17T16:23:38.384Z</time></trkpt><trkpt lat="45.6607794" lon="11.5504698"><ele>107.0</ele><time>2026-04-17T16:23:40.38Z</time></trkpt><trkpt lat="45.6607321" lon="11.5504066"><ele>106.99999999999999</ele><time>2026-04-17T16:23:43.384Z</time></trkpt><trkpt lat="45.6607175" lon="11.5503084"><ele>107.0</ele><time>2026-04-17T16:23:46.382Z</time></trkpt><trkpt lat="45.660702" lon="11.5501782"><ele>106.57142857142858</ele><time>2026-04-17T16:23:49.381Z</time></trkpt><trkpt lat="45.6606752" lon="11.5500764"><ele>106.14285714285714</ele><time>2026-04-17T16:23:51.38Z</time></trkpt><trkpt lat="45.6606165" lon="11.5499931"><ele>105.71428571428572</ele><time>2026-04-17T16:23:53.381Z</time></trkpt><trkpt lat="45.6605466" lon="11.5499563"><ele>105.28571428571429</ele><time>2026-04-17T16:23:55.379Z</time></trkpt><trkpt lat="45.6604829" lon="11.5499343"><ele>104.85714285714286</ele><time>2026-04-17T16:23:57.38Z</time></trkpt><trkpt lat="45.660404" lon="11.549926"><ele>104.42857142857143</ele><time>2026-04-17T16:24:00.38Z</time></trkpt><trkpt lat="45.6603366" lon="11.5499384"><ele>104.0</ele><time>2026-04-17T16:24:05.379Z</time></trkpt><trkpt lat="45.6602332" lon="11.5498818"><ele>103.99999999999999</ele><time>2026-04-17T16:24:07.38Z</time></trkpt><trkpt lat="45.6601821" lon="11.5498176"><ele>104.0</ele><time>2026-04-17T16:24:15.384Z</time></trkpt><trkpt lat="45.6601976" lon="11.5497186"><ele>104.0</ele><time>2026-04-17T16:24:17.382Z</time></trkpt><trkpt lat="45.6602267" lon="11.5495897"><ele>104.0</ele><time>2026-04-17T16:24:19.381Z</time></trkpt><trkpt lat="45.660268" lon="11.5494293"><ele>103.99999999999999</ele><time>2026-04-17T16:24:21.383Z</time></trkpt><trkpt lat="45.6602936" lon="11.5493449"><ele>104.0</ele><time>2026-04-17T16:24:22.383Z</time></trkpt><trkpt lat="45.6603427" lon="11.5492024"><ele>102.85714285714285</ele><time>2026-04-17T16:24:24.382Z</time></trkpt><trkpt lat="45.6603763" lon="11.5490999"><ele>101.71428571428572</ele><time>2026-04-17T16:24:26.38Z</time></trkpt><trkpt lat="45.6604116" lon="11.5490078"><ele>100.57142857142857</ele><time>2026-04-17T16:24:28.382Z</time></trkpt><trkpt lat="45.6604506" lon="11.5489261"><ele>99.42857142857142</ele><time>2026-04-17T16:24:30.378Z</time></trkpt><trkpt lat="45.6604854" lon="11.5488509"><ele>98.28571428571428</ele><time>2026-04-17T16:24:32.381Z</time></trkpt><trkpt lat="45.6605285" lon="11.5487763"><ele>97.14285714285714</ele><time>2026-04-17T16:24:34.38Z</time></trkpt><trkpt lat="45.6605778" lon="11.5486912"><ele>96.0</ele><time>2026-04-17T16:24:36.379Z</time></trkpt><trkpt lat="45.6606194" lon="11.5486114"><ele>95.99999999999999</ele><time>2026-04-17T16:24:39.377Z</time></trkpt><trkpt lat="45.6606681" lon="11.548542"><ele>96.0</ele><time>2026-04-17T16:24:43.383Z</time></trkpt><trkpt lat="45.6606268" lon="11.5486289"><ele>96.0</ele><time>2026-04-17T16:24:51.381Z</time></trkpt><trkpt lat="45.6605817" lon="11.5486939"><ele>96.0</ele><time>2026-04-17T16:24:56.381Z</time></trkpt><trkpt lat="45.6605457" lon="11.5487816"><ele>96.0</ele><time>2026-04-17T16:25:02.371Z</time></trkpt><trkpt lat="45.6604973" lon="11.5488551"><ele>95.99999999999999</ele><time>2026-04-17T16:25:08.379Z</time></trkpt><trkpt lat="45.6604609" lon="11.5489303"><ele>96.0</ele><time>2026-04-17T16:25:14.381Z</time></trkpt><trkpt lat="45.6604449" lon="11.5490285"><ele>95.99999999999999</ele><time>2026-04-17T16:25:22.381Z</time></trkpt><trkpt lat="45.660407" lon="11.5491074"><ele>96.0</ele><time>2026-04-17T16:25:28.381Z</time></trkpt><trkpt lat="45.6603681" lon="11.5491836"><ele>96.0</ele><time>2026-04-17T16:25:35.376Z</time></trkpt><trkpt lat="45.6603438" lon="11.5492819"><ele>96.0</ele><time>2026-04-17T16:25:42.377Z</time></trkpt><trkpt lat="45.6603132" lon="11.5493687"><ele>96.0</ele><time>2026-04-17T16:25:49.379Z</time></trkpt><trkpt lat="45.6602796" lon="11.5494501"><ele>95.99999999999999</ele><time>2026-04-17T16:25:55.378Z</time></trkpt><trkpt lat="45.660244" lon="11.5495369"><ele>96.0</ele><time>2026-04-17T16:26:02.377Z</time></trkpt><trkpt lat="45.6602245" lon="11.5496231"><ele>96.85714285714285</ele><time>2026-04-17T16:26:08.379Z</time></trkpt><trkpt lat="45.6602008" lon="11.5497128"><ele>97.71428571428571</ele><time>2026-04-17T16:26:14.38Z</time></trkpt><trkpt lat="45.6601743" lon="11.5498076"><ele>98.57142857142857</ele><time>2026-04-17T16:26:19.382Z</time></trkpt><trkpt lat="45.6602479" lon="11.5497765"><ele>99.42857142857142</ele><time>2026-04-17T16:26:28.379Z</time></trkpt><trkpt lat="45.6603157" lon="11.5497729"><ele>100.28571428571429</ele><time>2026-04-17T16:26:34.377Z</time></trkpt><trkpt lat="45.6603927" lon="11.5497637"><ele>101.14285714285714</ele><time>2026-04-17T16:26:38.377Z</time></trkpt><trkpt lat="45.6604714" lon="11.5497796"><ele>102.0</ele><time>2026-04-17T16:26:41.378Z</time></trkpt><trkpt lat="45.6605493" lon="11.549852"><ele>102.0</ele><time>2026-04-17T16:26:44.379Z</time></trkpt><trkpt lat="45.6606102" lon="11.5499306"><ele>102.0</ele><time>2026-04-17T16:26:47.379Z</time></trkpt><trkpt lat="45.6606474" lon="11.5500088"><ele>102.0</ele><time>2026-04-17T16:26:51.378Z</time></trkpt><trkpt lat="45.6606782" lon="11.5501399"><ele>102.0</ele><time>2026-04-17T16:26:56.379Z</time></trkpt><trkpt lat="45.6606934" lon="11.5502368"><ele>102.0</ele><time>2026-04-17T16:27:00.379Z</time></trkpt><trkpt lat="45.6607309" lon="11.5503303"><ele>102.0</ele><time>2026-04-17T16:27:05.379Z</time></trkpt><trkpt lat="45.6607764" lon="11.5504272"><ele>102.83333333333333</ele><time>2026-04-17T16:27:07.377Z</time></trkpt><trkpt lat="45.6608299" lon="11.550527"><ele>103.66666666666666</ele><time>2026-04-17T16:27:10.376Z</time></trkpt><trkpt lat="45.6608687" lon="11.5506263"><ele>104.5</ele><time>2026-04-17T16:27:14.38Z</time></trkpt><trkpt lat="45.6608628" lon="11.5507377"><ele>105.33333333333333</ele><time>2026-04-17T16:27:20.38Z</time></trkpt><trkpt lat="45.6608548" lon="11.5508365"><ele>106.16666666666666</ele><time>2026-04-17T16:27:24.379Z</time></trkpt><trkpt lat="45.660844" lon="11.5509675"><ele>107.0</ele><time>2026-04-17T16:27:27.381Z</time></trkpt><trkpt lat="45.6607938" lon="11.5510521"><ele>107.00000000000001</ele><time>2026-04-17T16:27:32.378Z</time></trkpt><trkpt lat="45.6607327" lon="11.5510984"><ele>107.0</ele><time>2026-04-17T16:27:37.378Z</time></trkpt><trkpt lat="45.6606795" lon="11.5511478"><ele>107.0</ele><time>2026-04-17T16:28:01.38Z</time></trkpt><trkpt lat="45.660637" lon="11.551224"><ele>107.0</ele><time>2026-04-17T16:28:06.379Z</time></trkpt><trkpt lat="45.6606345" lon="11.5513182"><ele>107.0</ele><time>2026-04-17T16:28:17.379Z</time></trkpt><trkpt lat="45.6606309" lon="11.5514118"><ele>107.00000000000001</ele><time>2026-04-17T16:28:21.379Z</time></trkpt><trkpt lat="45.6605558" lon="11.5514034"><ele>107.0</ele><time>2026-04-17T16:28:23.381Z</time></trkpt><trkpt lat="45.6604304" lon="11.5513407"><ele>106.71428571428572</ele><time>2026-04-17T16:28:25.383Z</time></trkpt><trkpt lat="45.6603623" lon="11.551295"><ele>106.42857142857143</ele><time>2026-04-17T16:28:26.38Z</time></trkpt><trkpt lat="45.660301" lon="11.5512302"><ele>106.14285714285714</ele><time>2026-04-17T16:28:27.38Z</time></trkpt><trkpt lat="45.6602418" lon="11.5511626"><ele>105.85714285714286</ele><time>2026-04-17T16:28:28.382Z</time></trkpt><trkpt lat="45.6601832" lon="11.5510945"><ele>105.57142857142857</ele><time>2026-04-17T16:28:29.378Z</time></trkpt><trkpt lat="45.660134" lon="11.5510233"><ele>105.28571428571429</ele><time>2026-04-17T16:28:30.377Z</time></trkpt><trkpt lat="45.6600996" lon="11.550942"><ele>105.0</ele><time>2026-04-17T16:28:31.377Z</time></trkpt><trkpt lat="45.6600743" lon="11.5508569"><ele>104.83333333333333</ele><time>2026-04-17T16:28:32.376Z</time></trkpt><trkpt lat="45.6600305" lon="11.5507101"><ele>104.66666666666666</ele><time>2026-04-17T16:28:34.378Z</time></trkpt><trkpt lat="45.6600214" lon="11.5505844"><ele>104.5</ele><time>2026-04-17T16:28:36.375Z</time></trkpt><trkpt lat="45.6600117" lon="11.5504637"><ele>104.33333333333333</ele><time>2026-04-17T16:28:39.376Z</time></trkpt><trkpt lat="45.659995" lon="11.5503705"><ele>104.16666666666666</ele><time>2026-04-17T16:28:42.376Z</time></trkpt><trkpt lat="45.659977" lon="11.5502459"><ele>104.0</ele><time>2026-04-17T16:28:46.38Z</time></trkpt><trkpt lat="45.6599465" lon="11.5501569"><ele>103.99999999999999</ele><time>2026-04-17T16:28:48.38Z</time></trkpt><trkpt lat="45.659957" lon="11.5500657"><ele>104.0</ele><time>2026-04-17T16:28:50.38Z</time></trkpt><trkpt lat="45.6599669" lon="11.5499602"><ele>104.0</ele><time>2026-04-17T16:28:52.372Z</time></trkpt><trkpt lat="45.659984" lon="11.5498246"><ele>104.0</ele><time>2026-04-17T16:28:54.377Z</time></trkpt><trkpt lat="45.6600338" lon="11.5496546"><ele>103.99999999999999</ele><time>2026-04-17T16:28:56.379Z</time></trkpt><trkpt lat="45.6600692" lon="11.5495576"><ele>104.0</ele><time>2026-04-17T16:28:57.377Z</time></trkpt><trkpt lat="45.6601091" lon="11.5494559"><ele>102.99999999999999</ele><time>2026-04-17T16:28:58.378Z</time></trkpt><trkpt lat="45.6601482" lon="11.5493563"><ele>102.0</ele><time>2026-04-17T16:28:59.378Z</time></trkpt><trkpt lat="45.660188" lon="11.5492573"><ele>101.0</ele><time>2026-04-17T16:29:00.378Z</time></trkpt><trkpt lat="45.6602264" lon="11.5491574"><ele>100.0</ele><time>2026-04-17T16:29:01.375Z</time></trkpt><trkpt lat="45.6602653" lon="11.5490525"><ele>98.99999999999999</ele><time>2026-04-17T16:29:02.375Z</time></trkpt><trkpt lat="45.6603119" lon="11.54895"><ele>98.0</ele><time>2026-04-17T16:29:03.376Z</time></trkpt><trkpt lat="45.6603696" lon="11.548858"><ele>97.66666666666666</ele><time>2026-04-17T16:29:04.377Z</time></trkpt><trkpt lat="45.6604313" lon="11.5487704"><ele>97.33333333333333</ele><time>2026-04-17T16:29:05.377Z</time></trkpt><trkpt lat="45.6604859" lon="11.5486873"><ele>97.0</ele><time>2026-04-17T16:29:06.376Z</time></trkpt><trkpt lat="45.6605338" lon="11.5486107"><ele>96.66666666666666</ele><time>2026-04-17T16:29:07.377Z</time></trkpt><trkpt lat="45.6606098" lon="11.5485051"><ele>96.33333333333333</ele><time>2026-04-17T16:29:09.375Z</time></trkpt><trkpt lat="45.6606883" lon="11.5484983"><ele>96.0</ele><time>2026-04-17T16:29:11.378Z</time></trkpt><trkpt lat="45.6607408" lon="11.5485918"><ele>95.99999999999999</ele><time>2026-04-17T16:29:14.378Z</time></trkpt><trkpt lat="45.6607822" lon="11.5486667"><ele>96.0</ele><time>2026-04-17T16:29:18.379Z</time></trkpt><trkpt lat="45.6608261" lon="11.5487459"><ele>96.0</ele><time>2026-04-17T16:29:22.383Z</time></trkpt><trkpt lat="45.6608672" lon="11.5488404"><ele>96.0</ele><time>2026-04-17T16:29:26.382Z</time></trkpt><trkpt lat="45.6608949" lon="11.5489419"><ele>96.0</ele><time>2026-04-17T16:29:30.38Z</time></trkpt><trkpt lat="45.6609391" lon="11.5490329"><ele>95.99999999999999</ele><time>2026-04-17T16:29:34.38Z</time></trkpt><trkpt lat="45.6609518" lon="11.5491304"><ele>96.0</ele><time>2026-04-17T16:29:38.377Z</time></trkpt><trkpt lat="45.6609393" lon="11.5492386"><ele>95.99999999999999</ele><time>2026-04-17T16:29:42.378Z</time></trkpt><trkpt lat="45.6609388" lon="11.5493372"><ele>96.0</ele><time>2026-04-17T16:29:46.38Z</time></trkpt><trkpt lat="45.6609274" lon="11.549436"><ele>96.0</ele><time>2026-04-17T16:29:50.379Z</time></trkpt><trkpt lat="45.6609375" lon="11.5495378"><ele>96.0</ele><time>2026-04-17T16:29:54.377Z</time></trkpt><trkpt lat="45.6609522" lon="11.5496353"><ele>96.0</ele><time>2026-04-17T16:29:57.379Z</time></trkpt><trkpt lat="45.6609715" lon="11.5497516"><ele>95.99999999999999</ele><time>2026-04-17T16:30:01.371Z</time></trkpt><trkpt lat="45.6609738" lon="11.5498592"><ele>96.0</ele><time>2026-04-17T16:30:05.373Z</time></trkpt><trkpt lat="45.6609914" lon="11.5499517"><ele>96.85714285714285</ele><time>2026-04-17T16:30:09.372Z</time></trkpt><trkpt lat="45.6609934" lon="11.5500517"><ele>97.71428571428571</ele><time>2026-04-17T16:30:12.375Z</time></trkpt><trkpt lat="45.6610059" lon="11.5501411"><ele>98.57142857142857</ele><time>2026-04-17T16:30:15.376Z</time></trkpt><trkpt lat="45.6610494" lon="11.5502191"><ele>99.42857142857142</ele><time>2026-04-17T16:30:19.378Z</time></trkpt><trkpt lat="45.6610826" lon="11.550318"><ele>100.28571428571429</ele><time>2026-04-17T16:30:23.376Z</time></trkpt><trkpt lat="45.6611178" lon="11.55042"><ele>101.14285714285714</ele><time>2026-04-17T16:30:27.375Z</time></trkpt><trkpt lat="45.6611356" lon="11.5505203"><ele>102.0</ele><time>2026-04-17T16:30:31.37Z</time></trkpt><trkpt lat="45.6611575" lon="11.5506133"><ele>103.0</ele><time>2026-04-17T16:30:35.372Z</time></trkpt><trkpt lat="45.661187" lon="11.5507007"><ele>104.0</ele><time>2026-04-17T16:30:39.371Z</time></trkpt><trkpt lat="45.6612314" lon="11.550798"><ele>105.0</ele><time>2026-04-17T16:30:43.375Z</time></trkpt><trkpt lat="45.6612529" lon="11.5508968"><ele>106.0</ele><time>2026-04-17T16:30:47.375Z</time></trkpt><trkpt lat="45.6612734" lon="11.5509921"><ele>107.0</ele><time>2026-04-17T16:30:50.378Z</time></trkpt><trkpt lat="45.6613264" lon="11.551099"><ele>108.0</ele><time>2026-04-17T16:30:53.376Z</time></trkpt><trkpt lat="45.6613795" lon="11.5511818"><ele>108.16666666666667</ele><time>2026-04-17T16:30:57.376Z</time></trkpt><trkpt lat="45.661448" lon="11.5512449"><ele>108.33333333333334</ele><time>2026-04-17T16:31:01.371Z</time></trkpt><trkpt lat="45.6615" lon="11.5512974"><ele>108.5</ele><time>2026-04-17T16:31:04.371Z</time></trkpt><trkpt lat="45.6615764" lon="11.5513672"><ele>108.66666666666667</ele><time>2026-04-17T16:31:08.375Z</time></trkpt><trkpt lat="45.6616323" lon="11.5514267"><ele>108.83333333333334</ele><time>2026-04-17T16:31:11.375Z</time></trkpt><trkpt lat="45.6616951" lon="11.5514781"><ele>109.0</ele><time>2026-04-17T16:31:16.378Z</time></trkpt><trkpt lat="45.6617678" lon="11.5515038"><ele>109.00000000000001</ele><time>2026-04-17T16:31:21.377Z</time></trkpt><trkpt lat="45.6618369" lon="11.5514822"><ele>109.0</ele><time>2026-04-17T16:31:25.377Z</time></trkpt><trkpt lat="45.6619053" lon="11.5515169"><ele>109.0</ele><time>2026-04-17T16:31:27.377Z</time></trkpt><trkpt lat="45.6619742" lon="11.5515501"><ele>109.0</ele><time>2026-04-17T16:31:32.373Z</time></trkpt><trkpt lat="45.6620441" lon="11.5516125"><ele>109.00000000000001</ele><time>2026-04-17T16:31:36.373Z</time></trkpt><trkpt lat="45.6621159" lon="11.5516621"><ele>109.0</ele><time>2026-04-17T16:31:39.372Z</time></trkpt><trkpt lat="45.6621885" lon="11.5516768"><ele>109.71428571428572</ele><time>2026-04-17T16:31:43.377Z</time></trkpt><trkpt lat="45.6622628" lon="11.5516985"><ele>110.42857142857143</ele><time>2026-04-17T16:31:47.376Z</time></trkpt><trkpt lat="45.6623371" lon="11.5517243"><ele>111.14285714285714</ele><time>2026-04-17T16:31:51.376Z</time></trkpt><trkpt lat="45.6624135" lon="11.5517358"><ele>111.85714285714286</ele><time>2026-04-17T16:31:55.378Z</time></trkpt><trkpt lat="45.6624805" lon="11.5517427"><ele>112.57142857142856</ele><time>2026-04-17T16:31:59.376Z</time></trkpt><trkpt lat="45.6625483" lon="11.5517536"><ele>113.28571428571428</ele><time>2026-04-17T16:32:03.371Z</time></trkpt><trkpt lat="45.6626275" lon="11.5517843"><ele>114.0</ele><time>2026-04-17T16:32:06.37Z</time></trkpt><trkpt lat="45.6627124" lon="11.5518128"><ele>115.14285714285714</ele><time>2026-04-17T16:32:10.372Z</time></trkpt><trkpt lat="45.6627892" lon="11.5518181"><ele>116.28571428571428</ele><time>2026-04-17T16:32:15.376Z</time></trkpt><trkpt lat="45.6628552" lon="11.5518343"><ele>117.42857142857142</ele><time>2026-04-17T16:32:19.377Z</time></trkpt><trkpt lat="45.6629304" lon="11.5518612"><ele>118.57142857142856</ele><time>2026-04-17T16:32:23.376Z</time></trkpt><trkpt lat="45.6630014" lon="11.5518983"><ele>119.71428571428571</ele><time>2026-04-17T16:32:27.373Z</time></trkpt><trkpt lat="45.6630651" lon="11.5519109"><ele>120.85714285714283</ele><time>2026-04-17T16:32:33.374Z</time></trkpt><trkpt lat="45.6631326" lon="11.5519234"><ele>121.99999999999999</ele><time>2026-04-17T16:32:40.373Z</time></trkpt><trkpt lat="45.6631972" lon="11.5519524"><ele>121.99999999999999</ele><time>2026-04-17T16:32:44.374Z</time></trkpt><trkpt lat="45.6632595" lon="11.5519682"><ele>122.0</ele><time>2026-04-17T16:32:48.373Z</time></trkpt><trkpt lat="45.6633254" lon="11.551999"><ele>121.99999999999999</ele><time>2026-04-17T16:32:53.373Z</time></trkpt><trkpt lat="45.66341" lon="11.5520482"><ele>121.99999999999999</ele><time>2026-04-17T16:32:57.373Z</time></trkpt><trkpt lat="45.6634737" lon="11.5520691"><ele>122.0</ele><time>2026-04-17T16:33:00.37Z</time></trkpt><trkpt lat="45.6635375" lon="11.5520706"><ele>121.99999999999999</ele><time>2026-04-17T16:33:05.372Z</time></trkpt><trkpt lat="45.6636022" lon="11.5520692"><ele>121.99999999999999</ele><time>2026-04-17T16:33:10.372Z</time></trkpt><trkpt lat="45.6636786" lon="11.552096"><ele>123.28571428571428</ele><time>2026-04-17T16:33:15.374Z</time></trkpt><trkpt lat="45.6637459" lon="11.5521025"><ele>124.57142857142857</ele><time>2026-04-17T16:33:21.375Z</time></trkpt><trkpt lat="45.6636988" lon="11.5520192"><ele>125.85714285714286</ele><time>2026-04-17T16:33:39.376Z</time></trkpt><trkpt lat="45.6636443" lon="11.5519641"><ele>127.14285714285714</ele><time>2026-04-17T16:33:43.376Z</time></trkpt><trkpt lat="45.6637105" lon="11.5519688"><ele>128.42857142857144</ele><time>2026-04-17T16:36:23.381Z</time></trkpt><trkpt lat="45.6637626" lon="11.5520255"><ele>129.71428571428572</ele><time>2026-04-17T16:36:29.379Z</time></trkpt><trkpt lat="45.6638168" lon="11.5520948"><ele>131.0</ele><time>2026-04-17T16:36:34.377Z</time></trkpt><trkpt lat="45.6638512" lon="11.552187"><ele>131.0</ele><time>2026-04-17T16:36:37.379Z</time></trkpt><trkpt lat="45.6639129" lon="11.5522114"><ele>131.0</ele><time>2026-04-17T16:36:40.389Z</time></trkpt><trkpt lat="45.6639725" lon="11.5521726"><ele>131.0</ele><time>2026-04-17T16:36:46.379Z</time></trkpt><trkpt lat="45.6639711" lon="11.5520755"><ele>131.0</ele><time>2026-04-17T16:37:48.379Z</time></trkpt><trkpt lat="45.6639793" lon="11.5519707"><ele>131.0</ele><time>2026-04-17T16:37:54.38Z</time></trkpt><trkpt lat="45.6640046" lon="11.5518825"><ele>131.0</ele><time>2026-04-17T16:37:59.378Z</time></trkpt><trkpt lat="45.6640629" lon="11.5518298"><ele>131.0</ele><time>2026-04-17T16:38:04.38Z</time></trkpt><trkpt lat="45.6641132" lon="11.5519112"><ele>131.0</ele><time>2026-04-17T16:38:09.38Z</time></trkpt><trkpt lat="45.6641379" lon="11.5520088"><ele>131.0</ele><time>2026-04-17T16:38:14.382Z</time></trkpt><trkpt lat="45.6641724" lon="11.5521064"><ele>131.0</ele><time>2026-04-17T16:38:18.382Z</time></trkpt><trkpt lat="45.6642101" lon="11.5522089"><ele>131.0</ele><time>2026-04-17T16:38:22.38Z</time></trkpt><trkpt lat="45.6642583" lon="11.5522847"><ele>131.0</ele><time>2026-04-17T16:38:26.379Z</time></trkpt><trkpt lat="45.664295" lon="11.5523707"><ele>131.0</ele><time>2026-04-17T16:38:30.38Z</time></trkpt><trkpt lat="45.6643357" lon="11.5524612"><ele>131.0</ele><time>2026-04-17T16:38:34.382Z</time></trkpt><trkpt lat="45.6643825" lon="11.5525524"><ele>131.0</ele><time>2026-04-17T16:38:38.382Z</time></trkpt><trkpt lat="45.6644086" lon="11.5526392"><ele>131.0</ele><time>2026-04-17T16:38:41.38Z</time></trkpt><trkpt lat="45.6644207" lon="11.5527539"><ele>131.0</ele><time>2026-04-17T16:38:45.382Z</time></trkpt><trkpt lat="45.6644233" lon="11.5528713"><ele>131.0</ele><time>2026-04-17T16:38:49.38Z</time></trkpt><trkpt lat="45.6644371" lon="11.5529843"><ele>131.0</ele><time>2026-04-17T16:38:53.383Z</time></trkpt><trkpt lat="45.6644635" lon="11.5530736"><ele>131.0</ele><time>2026-04-17T16:38:56.38Z</time></trkpt><trkpt lat="45.6645294" lon="11.5531386"><ele>133.33333333333331</ele><time>2026-04-17T16:39:00.379Z</time></trkpt><trkpt lat="45.6646101" lon="11.5531625"><ele>135.66666666666666</ele><time>2026-04-17T16:39:04.377Z</time></trkpt><trkpt lat="45.6646872" lon="11.5531797"><ele>138.0</ele><time>2026-04-17T16:39:08.377Z</time></trkpt><trkpt lat="45.6647486" lon="11.5532034"><ele>140.33333333333334</ele><time>2026-04-17T16:39:11.377Z</time></trkpt><trkpt lat="45.664831" lon="11.553195"><ele>142.66666666666669</ele><time>2026-04-17T16:39:16.378Z</time></trkpt><trkpt lat="45.6649018" lon="11.553226"><ele>145.0</ele><time>2026-04-17T16:39:20.375Z</time></trkpt><trkpt lat="45.6649867" lon="11.5532386"><ele>145.0</ele><time>2026-04-17T16:39:24.376Z</time></trkpt><trkpt lat="45.6650487" lon="11.5532667"><ele>145.0</ele><time>2026-04-17T16:39:27.377Z</time></trkpt><trkpt lat="45.6651087" lon="11.5533"><ele>145.0</ele><time>2026-04-17T16:39:30.377Z</time></trkpt><trkpt lat="45.6651818" lon="11.5533443"><ele>145.0</ele><time>2026-04-17T16:39:34.377Z</time></trkpt><trkpt lat="45.6652647" lon="11.553403"><ele>145.0</ele><time>2026-04-17T16:39:38.377Z</time></trkpt><trkpt lat="45.6653351" lon="11.5534441"><ele>145.0</ele><time>2026-04-17T16:39:42.379Z</time></trkpt><trkpt lat="45.6653983" lon="11.5534486"><ele>145.0</ele><time>2026-04-17T16:39:45.378Z</time></trkpt><trkpt lat="45.665478" lon="11.5534353"><ele>145.14285714285714</ele><time>2026-04-17T16:39:49.377Z</time></trkpt><trkpt lat="45.6655582" lon="11.5534002"><ele>145.2857142857143</ele><time>2026-04-17T16:39:53.38Z</time></trkpt><trkpt lat="45.6656336" lon="11.553357"><ele>145.42857142857144</ele><time>2026-04-17T16:39:57.377Z</time></trkpt><trkpt lat="45.6656924" lon="11.5533233"><ele>145.57142857142858</ele><time>2026-04-17T16:40:00.38Z</time></trkpt><trkpt lat="45.6657624" lon="11.5533289"><ele>145.71428571428572</ele><time>2026-04-17T16:40:03.379Z</time></trkpt><trkpt lat="45.6658243" lon="11.5533011"><ele>145.85714285714286</ele><time>2026-04-17T16:40:06.376Z</time></trkpt><trkpt lat="45.6658866" lon="11.5532235"><ele>146.0</ele><time>2026-04-17T16:40:09.379Z</time></trkpt><trkpt lat="45.6659391" lon="11.5531668"><ele>146.0</ele><time>2026-04-17T16:40:11.377Z</time></trkpt><trkpt lat="45.6660042" lon="11.5530943"><ele>146.0</ele><time>2026-04-17T16:40:13.381Z</time></trkpt><trkpt lat="45.6660768" lon="11.5530053"><ele>146.0</ele><time>2026-04-17T16:40:15.38Z</time></trkpt><trkpt lat="45.6661475" lon="11.5528807"><ele>146.0</ele><time>2026-04-17T16:40:17.378Z</time></trkpt><trkpt lat="45.666207" lon="11.55274"><ele>146.0</ele><time>2026-04-17T16:40:19.382Z</time></trkpt><trkpt lat="45.6662754" lon="11.5526019"><ele>144.5</ele><time>2026-04-17T16:40:21.378Z</time></trkpt><trkpt lat="45.666372" lon="11.5524896"><ele>143.0</ele><time>2026-04-17T16:40:23.382Z</time></trkpt><trkpt lat="45.6664902" lon="11.5524249"><ele>141.5</ele><time>2026-04-17T16:40:25.38Z</time></trkpt><trkpt lat="45.6665545" lon="11.5524097"><ele>140.0</ele><time>2026-04-17T16:40:26.379Z</time></trkpt><trkpt lat="45.6666198" lon="11.5524018"><ele>138.5</ele><time>2026-04-17T16:40:27.38Z</time></trkpt><trkpt lat="45.666685" lon="11.5523972"><ele>137.0</ele><time>2026-04-17T16:40:28.382Z</time></trkpt><trkpt lat="45.6667495" lon="11.5523982"><ele>137.0</ele><time>2026-04-17T16:40:29.381Z</time></trkpt><trkpt lat="45.6668717" lon="11.5524137"><ele>137.0</ele><time>2026-04-17T16:40:31.381Z</time></trkpt><trkpt lat="45.666987" lon="11.5524248"><ele>137.0</ele><time>2026-04-17T16:40:33.382Z</time></trkpt><trkpt lat="45.667095" lon="11.5524447"><ele>137.0</ele><time>2026-04-17T16:40:35.379Z</time></trkpt><trkpt lat="45.6671942" lon="11.5524774"><ele>137.0</ele><time>2026-04-17T16:40:37.379Z</time></trkpt><trkpt lat="45.6672708" lon="11.5525534"><ele>136.71428571428572</ele><time>2026-04-17T16:40:39.38Z</time></trkpt><trkpt lat="45.6673335" lon="11.5526421"><ele>136.42857142857144</ele><time>2026-04-17T16:40:41.381Z</time></trkpt><trkpt lat="45.6673759" lon="11.5527386"><ele>136.14285714285714</ele><time>2026-04-17T16:40:43.387Z</time></trkpt><trkpt lat="45.6674175" lon="11.552823"><ele>135.85714285714286</ele><time>2026-04-17T16:40:45.381Z</time></trkpt><trkpt lat="45.6674585" lon="11.5529023"><ele>135.57142857142856</ele><time>2026-04-17T16:40:47.38Z</time></trkpt><trkpt lat="45.6674981" lon="11.5529841"><ele>135.28571428571428</ele><time>2026-04-17T16:40:49.382Z</time></trkpt><trkpt lat="45.6675382" lon="11.5530615"><ele>135.0</ele><time>2026-04-17T16:40:51.379Z</time></trkpt><trkpt lat="45.6675802" lon="11.5531386"><ele>135.28571428571428</ele><time>2026-04-17T16:40:53.381Z</time></trkpt><trkpt lat="45.667624" lon="11.5532072"><ele>135.57142857142856</ele><time>2026-04-17T16:40:55.379Z</time></trkpt><trkpt lat="45.6676934" lon="11.5533001"><ele>135.85714285714286</ele><time>2026-04-17T16:40:58.382Z</time></trkpt><trkpt lat="45.6677484" lon="11.5533538"><ele>136.14285714285714</ele><time>2026-04-17T16:41:00.381Z</time></trkpt><trkpt lat="45.6678126" lon="11.5533954"><ele>136.42857142857144</ele><time>2026-04-17T16:41:02.379Z</time></trkpt><trkpt lat="45.6678834" lon="11.5534221"><ele>136.71428571428572</ele><time>2026-04-17T16:41:04.378Z</time></trkpt><trkpt lat="45.6679533" lon="11.5534616"><ele>137.0</ele><time>2026-04-17T16:41:06.379Z</time></trkpt><trkpt lat="45.6680245" lon="11.5535015"><ele>137.0</ele><time>2026-04-17T16:41:08.38Z</time></trkpt><trkpt lat="45.6680953" lon="11.5535305"><ele>137.0</ele><time>2026-04-17T16:41:10.38Z</time></trkpt><trkpt lat="45.6681681" lon="11.5535536"><ele>137.0</ele><time>2026-04-17T16:41:12.38Z</time></trkpt><trkpt lat="45.6682452" lon="11.5535761"><ele>137.0</ele><time>2026-04-17T16:41:14.376Z</time></trkpt><trkpt lat="45.6683229" lon="11.553602"><ele>137.0</ele><time>2026-04-17T16:41:16.381Z</time></trkpt><trkpt lat="45.6684058" lon="11.5536288"><ele>137.0</ele><time>2026-04-17T16:41:18.382Z</time></trkpt><trkpt lat="45.6684913" lon="11.5536692"><ele>136.4</ele><time>2026-04-17T16:41:20.381Z</time></trkpt><trkpt lat="45.6685778" lon="11.5537294"><ele>135.79999999999998</ele><time>2026-04-17T16:41:22.382Z</time></trkpt><trkpt lat="45.6686545" lon="11.5538057"><ele>135.2</ele><time>2026-04-17T16:41:24.38Z</time></trkpt><trkpt lat="45.6687256" lon="11.5538987"><ele>134.6</ele><time>2026-04-17T16:41:26.38Z</time></trkpt><trkpt lat="45.6687788" lon="11.5540406"><ele>134.0</ele><time>2026-04-17T16:41:28.382Z</time></trkpt><trkpt lat="45.6688393" lon="11.5542012"><ele>134.0</ele><time>2026-04-17T16:41:30.381Z</time></trkpt><trkpt lat="45.6688756" lon="11.5542846"><ele>134.0</ele><time>2026-04-17T16:41:31.38Z</time></trkpt><trkpt lat="45.6689131" lon="11.5543677"><ele>134.0</ele><time>2026-04-17T16:41:32.381Z</time></trkpt><trkpt lat="45.6689507" lon="11.554458"><ele>134.0</ele><time>2026-04-17T16:41:33.382Z</time></trkpt><trkpt lat="45.6689902" lon="11.5545526"><ele>134.0</ele><time>2026-04-17T16:41:34.381Z</time></trkpt><trkpt lat="45.6690293" lon="11.554653"><ele>134.0</ele><time>2026-04-17T16:41:35.383Z</time></trkpt><trkpt lat="45.6690637" lon="11.5547489"><ele>134.0</ele><time>2026-04-17T16:41:36.381Z</time></trkpt><trkpt lat="45.6691063" lon="11.5548806"><ele>133.83333333333331</ele><time>2026-04-17T16:41:38.381Z</time></trkpt><trkpt lat="45.6691415" lon="11.5549853"><ele>133.66666666666666</ele><time>2026-04-17T16:41:40.381Z</time></trkpt><trkpt lat="45.669186" lon="11.5550692"><ele>133.5</ele><time>2026-04-17T16:41:44.381Z</time></trkpt><trkpt lat="45.6692863" lon="11.5550627"><ele>133.33333333333334</ele><time>2026-04-17T16:41:47.381Z</time></trkpt><trkpt lat="45.6693576" lon="11.5550535"><ele>133.16666666666669</ele><time>2026-04-17T16:41:49.381Z</time></trkpt><trkpt lat="45.669425" lon="11.5550871"><ele>133.0</ele><time>2026-04-17T16:41:52.381Z</time></trkpt><trkpt lat="45.6694499" lon="11.5551709"><ele>133.0</ele><time>2026-04-17T16:42:12.382Z</time></trkpt><trkpt lat="45.6694514" lon="11.5552654"><ele>133.0</ele><time>2026-04-17T16:42:17.38Z</time></trkpt><trkpt lat="45.6694533" lon="11.5553563"><ele>133.0</ele><time>2026-04-17T16:42:21.378Z</time></trkpt><trkpt lat="45.6694524" lon="11.5554607"><ele>133.0</ele><time>2026-04-17T16:42:25.379Z</time></trkpt><trkpt lat="45.6694299" lon="11.5555584"><ele>133.0</ele><time>2026-04-17T16:42:28.381Z</time></trkpt><trkpt lat="45.6694273" lon="11.555655"><ele>133.0</ele><time>2026-04-17T16:42:32.378Z</time></trkpt><trkpt lat="45.6694365" lon="11.5557461"><ele>133.0</ele><time>2026-04-17T16:42:36.377Z</time></trkpt><trkpt lat="45.6694363" lon="11.5558715"><ele>133.0</ele><time>2026-04-17T16:42:40.378Z</time></trkpt><trkpt lat="45.6694377" lon="11.5559872"><ele>133.0</ele><time>2026-04-17T16:42:42.38Z</time></trkpt><trkpt lat="45.6694611" lon="11.5561241"><ele>133.0</ele><time>2026-04-17T16:42:44.379Z</time></trkpt><trkpt lat="45.6694925" lon="11.5562658"><ele>133.0</ele><time>2026-04-17T16:42:46.38Z</time></trkpt><trkpt lat="45.6694721" lon="11.5564099"><ele>133.0</ele><time>2026-04-17T16:42:48.38Z</time></trkpt><trkpt lat="45.669438" lon="11.556496"><ele>131.5</ele><time>2026-04-17T16:42:49.375Z</time></trkpt><trkpt lat="45.6694022" lon="11.5565885"><ele>130.0</ele><time>2026-04-17T16:42:50.382Z</time></trkpt><trkpt lat="45.6693816" lon="11.5566967"><ele>128.5</ele><time>2026-04-17T16:42:51.382Z</time></trkpt><trkpt lat="45.6693808" lon="11.5568111"><ele>127.0</ele><time>2026-04-17T16:42:52.38Z</time></trkpt><trkpt lat="45.669402" lon="11.5569305"><ele>125.50000000000001</ele><time>2026-04-17T16:42:53.38Z</time></trkpt><trkpt lat="45.6694249" lon="11.5570227"><ele>124.0</ele><time>2026-04-17T16:42:54.381Z</time></trkpt><trkpt lat="45.669459" lon="11.5571019"><ele>121.66666666666667</ele><time>2026-04-17T16:42:56.38Z</time></trkpt><trkpt lat="45.6695013" lon="11.5571984"><ele>119.33333333333334</ele><time>2026-04-17T16:43:00.38Z</time></trkpt><trkpt lat="45.6695687" lon="11.5572765"><ele>117.0</ele><time>2026-04-17T16:43:07.378Z</time></trkpt><trkpt lat="45.6696148" lon="11.5573747"><ele>114.66666666666666</ele><time>2026-04-17T16:43:10.378Z</time></trkpt><trkpt lat="45.6696847" lon="11.5574259"><ele>112.33333333333333</ele><time>2026-04-17T16:43:12.379Z</time></trkpt><trkpt lat="45.6698043" lon="11.55741"><ele>110.0</ele><time>2026-04-17T16:43:14.378Z</time></trkpt><trkpt lat="45.6698781" lon="11.5573899"><ele>109.99999999999999</ele><time>2026-04-17T16:43:15.378Z</time></trkpt><trkpt lat="45.6699498" lon="11.5573619"><ele>110.0</ele><time>2026-04-17T16:43:16.38Z</time></trkpt><trkpt lat="45.6700252" lon="11.5573309"><ele>110.0</ele><time>2026-04-17T16:43:17.381Z</time></trkpt><trkpt lat="45.6700954" lon="11.5572929"><ele>110.0</ele><time>2026-04-17T16:43:18.382Z</time></trkpt><trkpt lat="45.6701594" lon="11.5572564"><ele>109.99999999999999</ele><time>2026-04-17T16:43:19.381Z</time></trkpt><trkpt lat="45.6702625" lon="11.5572497"><ele>110.0</ele><time>2026-04-17T16:43:21.382Z</time></trkpt><trkpt lat="45.6703105" lon="11.5573172"><ele>108.49999999999999</ele><time>2026-04-17T16:43:23.381Z</time></trkpt><trkpt lat="45.6703497" lon="11.5574186"><ele>107.0</ele><time>2026-04-17T16:43:25.381Z</time></trkpt><trkpt lat="45.670389" lon="11.5575231"><ele>105.5</ele><time>2026-04-17T16:43:27.382Z</time></trkpt><trkpt lat="45.6704256" lon="11.5576759"><ele>104.0</ele><time>2026-04-17T16:43:29.379Z</time></trkpt><trkpt lat="45.6704344" lon="11.5577708"><ele>102.49999999999999</ele><time>2026-04-17T16:43:30.38Z</time></trkpt><trkpt lat="45.6704446" lon="11.5578746"><ele>101.0</ele><time>2026-04-17T16:43:31.38Z</time></trkpt><trkpt lat="45.6704496" lon="11.5579815"><ele>99.16666666666666</ele><time>2026-04-17T16:43:32.379Z</time></trkpt><trkpt lat="45.6704504" lon="11.5580763"><ele>97.33333333333333</ele><time>2026-04-17T16:43:33.378Z</time></trkpt><trkpt lat="45.6704471" lon="11.5582309"><ele>95.5</ele><time>2026-04-17T16:43:35.378Z</time></trkpt><trkpt lat="45.6704339" lon="11.558348"><ele>93.66666666666666</ele><time>2026-04-17T16:43:37.377Z</time></trkpt><trkpt lat="45.6704214" lon="11.5584448"><ele>91.83333333333333</ele><time>2026-04-17T16:43:39.379Z</time></trkpt><trkpt lat="45.6704406" lon="11.5585397"><ele>90.0</ele><time>2026-04-17T16:43:42.377Z</time></trkpt><trkpt lat="45.6704272" lon="11.5586622"><ele>89.5</ele><time>2026-04-17T16:43:45.378Z</time></trkpt><trkpt lat="45.6704523" lon="11.5587883"><ele>89.0</ele><time>2026-04-17T16:43:47.379Z</time></trkpt><trkpt lat="45.6704687" lon="11.5589467"><ele>88.5</ele><time>2026-04-17T16:43:49.38Z</time></trkpt><trkpt lat="45.6704741" lon="11.5590419"><ele>88.0</ele><time>2026-04-17T16:43:50.381Z</time></trkpt><trkpt lat="45.6704749" lon="11.559148"><ele>87.5</ele><time>2026-04-17T16:43:51.38Z</time></trkpt><trkpt lat="45.6704724" lon="11.5592626"><ele>87.0</ele><time>2026-04-17T16:43:52.38Z</time></trkpt><trkpt lat="45.6704615" lon="11.5593776"><ele>87.0</ele><time>2026-04-17T16:43:53.381Z</time></trkpt><trkpt lat="45.670437" lon="11.5594978"><ele>87.0</ele><time>2026-04-17T16:43:54.381Z</time></trkpt><trkpt lat="45.6703977" lon="11.5596127"><ele>87.0</ele><time>2026-04-17T16:43:55.38Z</time></trkpt><trkpt lat="45.6703389" lon="11.5597112"><ele>87.0</ele><time>2026-04-17T16:43:56.381Z</time></trkpt><trkpt lat="45.6702669" lon="11.5597913"><ele>87.0</ele><time>2026-04-17T16:43:57.382Z</time></trkpt><trkpt lat="45.6701865" lon="11.5598538"><ele>86.83333333333333</ele><time>2026-04-17T16:43:58.384Z</time></trkpt><trkpt lat="45.6701006" lon="11.5599166"><ele>86.66666666666667</ele><time>2026-04-17T16:43:59.38Z</time></trkpt><trkpt lat="45.6700162" lon="11.5599906"><ele>86.5</ele><time>2026-04-17T16:44:00.38Z</time></trkpt><trkpt lat="45.6699515" lon="11.560068"><ele>86.33333333333334</ele><time>2026-04-17T16:44:01.381Z</time></trkpt><trkpt lat="45.6699108" lon="11.5601414"><ele>86.16666666666667</ele><time>2026-04-17T16:44:02.38Z</time></trkpt><trkpt lat="45.6698684" lon="11.5602652"><ele>86.0</ele><time>2026-04-17T16:44:04.382Z</time></trkpt><trkpt lat="45.6698405" lon="11.5603639"><ele>86.0</ele><time>2026-04-17T16:44:07.379Z</time></trkpt><trkpt lat="45.6698451" lon="11.5602611"><ele>86.0</ele><time>2026-04-17T16:44:16.382Z</time></trkpt><trkpt lat="45.669784" lon="11.5601917"><ele>86.0</ele><time>2026-04-17T16:44:19.381Z</time></trkpt><trkpt lat="45.6697106" lon="11.5601843"><ele>86.0</ele><time>2026-04-17T16:44:21.383Z</time></trkpt><trkpt lat="45.6696398" lon="11.5601681"><ele>86.0</ele><time>2026-04-17T16:44:23.381Z</time></trkpt><trkpt lat="45.6695577" lon="11.5601426"><ele>86.0</ele><time>2026-04-17T16:44:25.381Z</time></trkpt><trkpt lat="45.6694815" lon="11.5601237"><ele>86.0</ele><time>2026-04-17T16:44:27.38Z</time></trkpt><trkpt lat="45.6693934" lon="11.5600927"><ele>86.0</ele><time>2026-04-17T16:44:29.38Z</time></trkpt><trkpt lat="45.6693037" lon="11.5600569"><ele>86.0</ele><time>2026-04-17T16:44:31.381Z</time></trkpt><trkpt lat="45.6692211" lon="11.5600275"><ele>86.0</ele><time>2026-04-17T16:44:33.379Z</time></trkpt><trkpt lat="45.6691425" lon="11.5599971"><ele>86.0</ele><time>2026-04-17T16:44:35.379Z</time></trkpt><trkpt lat="45.6690594" lon="11.5599604"><ele>86.0</ele><time>2026-04-17T16:44:37.379Z</time></trkpt><trkpt lat="45.6689777" lon="11.5599366"><ele>86.0</ele><time>2026-04-17T16:44:39.38Z</time></trkpt><trkpt lat="45.6688903" lon="11.5599124"><ele>86.0</ele><time>2026-04-17T16:44:41.372Z</time></trkpt><trkpt lat="45.6688174" lon="11.5599042"><ele>86.0</ele><time>2026-04-17T16:44:43.382Z</time></trkpt><trkpt lat="45.6687377" lon="11.5598999"><ele>86.0</ele><time>2026-04-17T16:44:45.38Z</time></trkpt><trkpt lat="45.6686528" lon="11.5599085"><ele>86.0</ele><time>2026-04-17T16:44:47.381Z</time></trkpt><trkpt lat="45.668574" lon="11.5599355"><ele>86.0</ele><time>2026-04-17T16:44:49.381Z</time></trkpt><trkpt lat="45.6684853" lon="11.5599733"><ele>85.8</ele><time>2026-04-17T16:44:51.383Z</time></trkpt><trkpt lat="45.6683953" lon="11.560014"><ele>85.6</ele><time>2026-04-17T16:44:53.381Z</time></trkpt><trkpt lat="45.6683102" lon="11.5600496"><ele>85.4</ele><time>2026-04-17T16:44:55.382Z</time></trkpt><trkpt lat="45.6682229" lon="11.5600914"><ele>85.2</ele><time>2026-04-17T16:44:57.381Z</time></trkpt><trkpt lat="45.6681295" lon="11.5601304"><ele>85.0</ele><time>2026-04-17T16:44:59.383Z</time></trkpt><trkpt lat="45.6680333" lon="11.560168"><ele>85.0</ele><time>2026-04-17T16:45:01.38Z</time></trkpt><trkpt lat="45.6679317" lon="11.5602181"><ele>85.0</ele><time>2026-04-17T16:45:03.38Z</time></trkpt><trkpt lat="45.6678319" lon="11.5602827"><ele>85.0</ele><time>2026-04-17T16:45:05.38Z</time></trkpt><trkpt lat="45.6677266" lon="11.5603198"><ele>85.0</ele><time>2026-04-17T16:45:07.378Z</time></trkpt><trkpt lat="45.6676082" lon="11.5603052"><ele>85.0</ele><time>2026-04-17T16:45:09.38Z</time></trkpt><trkpt lat="45.6675469" lon="11.5602752"><ele>85.0</ele><time>2026-04-17T16:45:10.384Z</time></trkpt><trkpt lat="45.6674904" lon="11.5602351"><ele>85.0</ele><time>2026-04-17T16:45:11.381Z</time></trkpt><trkpt lat="45.6673873" lon="11.5601398"><ele>85.0</ele><time>2026-04-17T16:45:13.381Z</time></trkpt><trkpt lat="45.6672776" lon="11.560068"><ele>85.0</ele><time>2026-04-17T16:45:15.382Z</time></trkpt><trkpt lat="45.6671643" lon="11.560033"><ele>85.0</ele><time>2026-04-17T16:45:17.383Z</time></trkpt><trkpt lat="45.6670414" lon="11.5600282"><ele>84.8</ele><time>2026-04-17T16:45:19.374Z</time></trkpt><trkpt lat="45.6669357" lon="11.5600416"><ele>84.6</ele><time>2026-04-17T16:45:21.378Z</time></trkpt><trkpt lat="45.6668254" lon="11.5600578"><ele>84.4</ele><time>2026-04-17T16:45:23.381Z</time></trkpt><trkpt lat="45.6667185" lon="11.5600521"><ele>84.2</ele><time>2026-04-17T16:45:25.383Z</time></trkpt><trkpt lat="45.6666221" lon="11.5600565"><ele>84.0</ele><time>2026-04-17T16:45:27.382Z</time></trkpt><trkpt lat="45.6665311" lon="11.560076"><ele>84.0</ele><time>2026-04-17T16:45:29.381Z</time></trkpt><trkpt lat="45.6664573" lon="11.5601462"><ele>84.0</ele><time>2026-04-17T16:45:31.378Z</time></trkpt><trkpt lat="45.6663779" lon="11.5602397"><ele>84.0</ele><time>2026-04-17T16:45:33.38Z</time></trkpt><trkpt lat="45.6662722" lon="11.5602731"><ele>84.0</ele><time>2026-04-17T16:45:35.378Z</time></trkpt><trkpt lat="45.666209" lon="11.5602692"><ele>84.0</ele><time>2026-04-17T16:45:36.382Z</time></trkpt><trkpt lat="45.6660897" lon="11.5602544"><ele>84.2</ele><time>2026-04-17T16:45:38.381Z</time></trkpt><trkpt lat="45.665972" lon="11.5602689"><ele>84.4</ele><time>2026-04-17T16:45:40.38Z</time></trkpt><trkpt lat="45.6658523" lon="11.5602794"><ele>84.6</ele><time>2026-04-17T16:45:42.381Z</time></trkpt><trkpt lat="45.6657222" lon="11.5602263"><ele>84.8</ele><time>2026-04-17T16:45:44.382Z</time></trkpt><trkpt lat="45.6656524" lon="11.5602015"><ele>85.0</ele><time>2026-04-17T16:45:45.38Z</time></trkpt><trkpt lat="45.665583" lon="11.5601936"><ele>85.0</ele><time>2026-04-17T16:45:46.383Z</time></trkpt><trkpt lat="45.6655135" lon="11.5601925"><ele>85.0</ele><time>2026-04-17T16:45:47.381Z</time></trkpt><trkpt lat="45.6653974" lon="11.5601771"><ele>85.0</ele><time>2026-04-17T16:45:49.382Z</time></trkpt><trkpt lat="45.6653025" lon="11.5601634"><ele>85.0</ele><time>2026-04-17T16:45:51.379Z</time></trkpt><trkpt lat="45.6652595" lon="11.5602422"><ele>85.0</ele><time>2026-04-17T16:45:53.383Z</time></trkpt><trkpt lat="45.6652023" lon="11.5603095"><ele>85.0</ele><time>2026-04-17T16:45:55.382Z</time></trkpt><trkpt lat="45.6651016" lon="11.5603268"><ele>84.8</ele><time>2026-04-17T16:45:57.383Z</time></trkpt><trkpt lat="45.6649999" lon="11.560337"><ele>84.6</ele><time>2026-04-17T16:45:59.382Z</time></trkpt><trkpt lat="45.664896" lon="11.5603586"><ele>84.4</ele><time>2026-04-17T16:46:01.38Z</time></trkpt><trkpt lat="45.6647966" lon="11.5603813"><ele>84.2</ele><time>2026-04-17T16:46:03.378Z</time></trkpt><trkpt lat="45.664696" lon="11.560412"><ele>84.0</ele><time>2026-04-17T16:46:05.377Z</time></trkpt><trkpt lat="45.664591" lon="11.5604366"><ele>84.0</ele><time>2026-04-17T16:46:07.381Z</time></trkpt><trkpt lat="45.6644871" lon="11.5604395"><ele>84.0</ele><time>2026-04-17T16:46:09.383Z</time></trkpt><trkpt lat="45.6643862" lon="11.5604525"><ele>84.0</ele><time>2026-04-17T16:46:11.381Z</time></trkpt><trkpt lat="45.6642912" lon="11.5604674"><ele>84.0</ele><time>2026-04-17T16:46:13.377Z</time></trkpt><trkpt lat="45.6641952" lon="11.5604599"><ele>84.0</ele><time>2026-04-17T16:46:15.383Z</time></trkpt><trkpt lat="45.6641079" lon="11.5604472"><ele>84.0</ele><time>2026-04-17T16:46:17.381Z</time></trkpt><trkpt lat="45.6640221" lon="11.5604427"><ele>84.0</ele><time>2026-04-17T16:46:19.383Z</time></trkpt><trkpt lat="45.663935" lon="11.5604481"><ele>84.0</ele><time>2026-04-17T16:46:21.382Z</time></trkpt><trkpt lat="45.6638618" lon="11.5604398"><ele>84.0</ele><time>2026-04-17T16:46:23.383Z</time></trkpt><trkpt lat="45.6638042" lon="11.560382"><ele>84.0</ele><time>2026-04-17T16:46:25.382Z</time></trkpt><trkpt lat="45.6637771" lon="11.5602796"><ele>84.0</ele><time>2026-04-17T16:46:27.381Z</time></trkpt><trkpt lat="45.6637606" lon="11.5601665"><ele>84.16666666666667</ele><time>2026-04-17T16:46:29.382Z</time></trkpt><trkpt lat="45.6637276" lon="11.5600652"><ele>84.33333333333333</ele><time>2026-04-17T16:46:31.383Z</time></trkpt><trkpt lat="45.6636696" lon="11.5599914"><ele>84.5</ele><time>2026-04-17T16:46:33.382Z</time></trkpt><trkpt lat="45.6635846" lon="11.5599458"><ele>84.66666666666666</ele><time>2026-04-17T16:46:35.383Z</time></trkpt><trkpt lat="45.6634927" lon="11.5599207"><ele>84.83333333333333</ele><time>2026-04-17T16:46:37.383Z</time></trkpt><trkpt lat="45.6634049" lon="11.5598898"><ele>85.0</ele><time>2026-04-17T16:46:39.382Z</time></trkpt><trkpt lat="45.6633114" lon="11.5598588"><ele>84.5</ele><time>2026-04-17T16:46:41.381Z</time></trkpt><trkpt lat="45.663208" lon="11.5598208"><ele>84.0</ele><time>2026-04-17T16:46:43.384Z</time></trkpt><trkpt lat="45.6630957" lon="11.5597801"><ele>83.5</ele><time>2026-04-17T16:46:45.385Z</time></trkpt><trkpt lat="45.6629833" lon="11.5597497"><ele>83.0</ele><time>2026-04-17T16:46:47.382Z</time></trkpt><trkpt lat="45.662863" lon="11.5597162"><ele>82.5</ele><time>2026-04-17T16:46:49.38Z</time></trkpt><trkpt lat="45.6627425" lon="11.559671"><ele>82.0</ele><time>2026-04-17T16:46:51.381Z</time></trkpt><trkpt lat="45.6626801" lon="11.5596449"><ele>81.5</ele><time>2026-04-17T16:46:52.382Z</time></trkpt><trkpt lat="45.6626144" lon="11.5596227"><ele>81.0</ele><time>2026-04-17T16:46:53.385Z</time></trkpt><trkpt lat="45.6625473" lon="11.5596009"><ele>80.5</ele><time>2026-04-17T16:46:54.381Z</time></trkpt><trkpt lat="45.6624807" lon="11.5595794"><ele>80.0</ele><time>2026-04-17T16:46:55.38Z</time></trkpt><trkpt lat="45.6624137" lon="11.5595588"><ele>80.0</ele><time>2026-04-17T16:46:56.383Z</time></trkpt><trkpt lat="45.6623458" lon="11.559538"><ele>80.0</ele><time>2026-04-17T16:46:57.381Z</time></trkpt><trkpt lat="45.6622765" lon="11.5595195"><ele>80.0</ele><time>2026-04-17T16:46:58.382Z</time></trkpt><trkpt lat="45.6622084" lon="11.5594993"><ele>80.0</ele><time>2026-04-17T16:46:59.381Z</time></trkpt><trkpt lat="45.6621385" lon="11.5594782"><ele>80.0</ele><time>2026-04-17T16:47:00.381Z</time></trkpt><trkpt lat="45.6620671" lon="11.5594552"><ele>80.0</ele><time>2026-04-17T16:47:01.382Z</time></trkpt><trkpt lat="45.6619948" lon="11.5594322"><ele>80.0</ele><time>2026-04-17T16:47:02.381Z</time></trkpt><trkpt lat="45.6619229" lon="11.5594104"><ele>79.71428571428571</ele><time>2026-04-17T16:47:03.386Z</time></trkpt><trkpt lat="45.6618517" lon="11.5593848"><ele>79.42857142857143</ele><time>2026-04-17T16:47:04.383Z</time></trkpt><trkpt lat="45.6617791" lon="11.5593579"><ele>79.14285714285714</ele><time>2026-04-17T16:47:05.384Z</time></trkpt><trkpt lat="45.6617105" lon="11.5593234"><ele>78.85714285714286</ele><time>2026-04-17T16:47:06.383Z</time></trkpt><trkpt lat="45.661642" lon="11.5592841"><ele>78.57142857142857</ele><time>2026-04-17T16:47:07.385Z</time></trkpt><trkpt lat="45.6615752" lon="11.5592439"><ele>78.28571428571429</ele><time>2026-04-17T16:47:08.384Z</time></trkpt><trkpt lat="45.6615075" lon="11.5592036"><ele>78.0</ele><time>2026-04-17T16:47:09.382Z</time></trkpt><trkpt lat="45.6614396" lon="11.5591595"><ele>78.0</ele><time>2026-04-17T16:47:10.383Z</time></trkpt><trkpt lat="45.6613735" lon="11.5591135"><ele>78.0</ele><time>2026-04-17T16:47:11.384Z</time></trkpt><trkpt lat="45.6613065" lon="11.5590672"><ele>78.0</ele><time>2026-04-17T16:47:12.383Z</time></trkpt><trkpt lat="45.6612406" lon="11.5590176"><ele>78.0</ele><time>2026-04-17T16:47:13.388Z</time></trkpt><trkpt lat="45.6611759" lon="11.5589699"><ele>78.0</ele><time>2026-04-17T16:47:14.384Z</time></trkpt><trkpt lat="45.6611127" lon="11.5589186"><ele>78.0</ele><time>2026-04-17T16:47:15.384Z</time></trkpt><trkpt lat="45.6610487" lon="11.5588698"><ele>78.0</ele><time>2026-04-17T16:47:16.383Z</time></trkpt><trkpt lat="45.6609842" lon="11.5588228"><ele>78.0</ele><time>2026-04-17T16:47:17.384Z</time></trkpt><trkpt lat="45.6609167" lon="11.5587752"><ele>78.0</ele><time>2026-04-17T16:47:18.385Z</time></trkpt><trkpt lat="45.6608491" lon="11.5587298"><ele>78.0</ele><time>2026-04-17T16:47:19.384Z</time></trkpt><trkpt lat="45.6607844" lon="11.5586811"><ele>78.0</ele><time>2026-04-17T16:47:20.383Z</time></trkpt><trkpt lat="45.6607208" lon="11.5586287"><ele>78.0</ele><time>2026-04-17T16:47:21.384Z</time></trkpt><trkpt lat="45.6606565" lon="11.5585764"><ele>78.0</ele><time>2026-04-17T16:47:22.383Z</time></trkpt><trkpt lat="45.6605932" lon="11.5585227"><ele>78.0</ele><time>2026-04-17T16:47:23.39Z</time></trkpt><trkpt lat="45.6605299" lon="11.5584736"><ele>78.0</ele><time>2026-04-17T16:47:24.385Z</time></trkpt><trkpt lat="45.6604654" lon="11.5584249"><ele>78.0</ele><time>2026-04-17T16:47:25.383Z</time></trkpt><trkpt lat="45.6603981" lon="11.5583755"><ele>78.0</ele><time>2026-04-17T16:47:26.383Z</time></trkpt><trkpt lat="45.6603292" lon="11.5583313"><ele>78.0</ele><time>2026-04-17T16:47:27.383Z</time></trkpt><trkpt lat="45.6602596" lon="11.5582989"><ele>78.0</ele><time>2026-04-17T16:47:28.385Z</time></trkpt><trkpt lat="45.6601861" lon="11.5582772"><ele>78.0</ele><time>2026-04-17T16:47:29.384Z</time></trkpt><trkpt lat="45.6601119" lon="11.5582634"><ele>78.0</ele><time>2026-04-17T16:47:30.38Z</time></trkpt><trkpt lat="45.6600386" lon="11.5582552"><ele>77.85714285714286</ele><time>2026-04-17T16:47:31.379Z</time></trkpt><trkpt lat="45.6599679" lon="11.558246"><ele>77.71428571428571</ele><time>2026-04-17T16:47:32.38Z</time></trkpt><trkpt lat="45.659896" lon="11.5582325"><ele>77.57142857142857</ele><time>2026-04-17T16:47:33.386Z</time></trkpt><trkpt lat="45.6598239" lon="11.5582219"><ele>77.42857142857143</ele><time>2026-04-17T16:47:34.38Z</time></trkpt><trkpt lat="45.6597518" lon="11.5582151"><ele>77.28571428571428</ele><time>2026-04-17T16:47:35.381Z</time></trkpt><trkpt lat="45.659679" lon="11.5582131"><ele>77.14285714285714</ele><time>2026-04-17T16:47:36.38Z</time></trkpt><trkpt lat="45.6596056" lon="11.5582118"><ele>77.0</ele><time>2026-04-17T16:47:37.382Z</time></trkpt><trkpt lat="45.6595332" lon="11.5581993"><ele>77.0</ele><time>2026-04-17T16:47:38.381Z</time></trkpt><trkpt lat="45.6594618" lon="11.5581894"><ele>77.0</ele><time>2026-04-17T16:47:39.383Z</time></trkpt><trkpt lat="45.6593898" lon="11.5581809"><ele>77.0</ele><time>2026-04-17T16:47:40.382Z</time></trkpt><trkpt lat="45.6593192" lon="11.5581664"><ele>77.0</ele><time>2026-04-17T16:47:41.383Z</time></trkpt><trkpt lat="45.6592475" lon="11.5581481"><ele>77.0</ele><time>2026-04-17T16:47:42.383Z</time></trkpt><trkpt lat="45.6591768" lon="11.5581296"><ele>77.0</ele><time>2026-04-17T16:47:43.388Z</time></trkpt><trkpt lat="45.659104" lon="11.558113"><ele>77.0</ele><time>2026-04-17T16:47:44.385Z</time></trkpt><trkpt lat="45.6590302" lon="11.5580957"><ele>76.71428571428571</ele><time>2026-04-17T16:47:45.384Z</time></trkpt><trkpt lat="45.6589569" lon="11.5580786"><ele>76.42857142857143</ele><time>2026-04-17T16:47:46.383Z</time></trkpt><trkpt lat="45.6588847" lon="11.5580595"><ele>76.14285714285714</ele><time>2026-04-17T16:47:47.384Z</time></trkpt><trkpt lat="45.6588123" lon="11.5580416"><ele>75.85714285714286</ele><time>2026-04-17T16:47:48.383Z</time></trkpt><trkpt lat="45.6587415" lon="11.5580218"><ele>75.57142857142857</ele><time>2026-04-17T16:47:49.382Z</time></trkpt><trkpt lat="45.6586749" lon="11.5579906"><ele>75.28571428571428</ele><time>2026-04-17T16:47:50.385Z</time></trkpt><trkpt lat="45.6586115" lon="11.5579386"><ele>75.0</ele><time>2026-04-17T16:47:51.379Z</time></trkpt><trkpt lat="45.6585563" lon="11.5578708"><ele>74.57142857142857</ele><time>2026-04-17T16:47:52.383Z</time></trkpt><trkpt lat="45.6585071" lon="11.5577956"><ele>74.14285714285714</ele><time>2026-04-17T16:47:53.377Z</time></trkpt><trkpt lat="45.6584626" lon="11.5577101"><ele>73.71428571428572</ele><time>2026-04-17T16:47:54.386Z</time></trkpt><trkpt lat="45.658424" lon="11.5576177"><ele>73.28571428571428</ele><time>2026-04-17T16:47:55.384Z</time></trkpt><trkpt lat="45.6583899" lon="11.5575232"><ele>72.85714285714286</ele><time>2026-04-17T16:47:56.384Z</time></trkpt><trkpt lat="45.6583601" lon="11.5574247"><ele>72.42857142857143</ele><time>2026-04-17T16:47:57.385Z</time></trkpt><trkpt lat="45.6583304" lon="11.5573231"><ele>72.0</ele><time>2026-04-17T16:47:58.384Z</time></trkpt><trkpt lat="45.6583032" lon="11.5572213"><ele>72.0</ele><time>2026-04-17T16:47:59.385Z</time></trkpt><trkpt lat="45.658279" lon="11.5571194"><ele>72.0</ele><time>2026-04-17T16:48:00.386Z</time></trkpt><trkpt lat="45.6582531" lon="11.557014"><ele>72.0</ele><time>2026-04-17T16:48:01.383Z</time></trkpt><trkpt lat="45.6582281" lon="11.5569092"><ele>72.0</ele><time>2026-04-17T16:48:02.382Z</time></trkpt><trkpt lat="45.6582057" lon="11.5568056"><ele>72.0</ele><time>2026-04-17T16:48:03.389Z</time></trkpt><trkpt lat="45.658183" lon="11.556701"><ele>72.0</ele><time>2026-04-17T16:48:04.381Z</time></trkpt><trkpt lat="45.6581593" lon="11.5565946"><ele>71.66666666666667</ele><time>2026-04-17T16:48:05.381Z</time></trkpt><trkpt lat="45.6581359" lon="11.5564889"><ele>71.33333333333333</ele><time>2026-04-17T16:48:06.383Z</time></trkpt><trkpt lat="45.6581128" lon="11.5563825"><ele>71.0</ele><time>2026-04-17T16:48:07.385Z</time></trkpt><trkpt lat="45.6580882" lon="11.5562774"><ele>70.66666666666666</ele><time>2026-04-17T16:48:08.383Z</time></trkpt><trkpt lat="45.6580637" lon="11.5561711"><ele>70.33333333333333</ele><time>2026-04-17T16:48:09.385Z</time></trkpt><trkpt lat="45.6580393" lon="11.556063"><ele>70.0</ele><time>2026-04-17T16:48:10.383Z</time></trkpt><trkpt lat="45.6580157" lon="11.555955"><ele>70.0</ele><time>2026-04-17T16:48:11.382Z</time></trkpt><trkpt lat="45.6579929" lon="11.5558478"><ele>70.0</ele><time>2026-04-17T16:48:12.383Z</time></trkpt><trkpt lat="45.6579673" lon="11.5557397"><ele>70.0</ele><time>2026-04-17T16:48:13.387Z</time></trkpt><trkpt lat="45.657939" lon="11.5556354"><ele>70.0</ele><time>2026-04-17T16:48:14.386Z</time></trkpt><trkpt lat="45.6579118" lon="11.5555326"><ele>70.0</ele><time>2026-04-17T16:48:15.383Z</time></trkpt><trkpt lat="45.6578881" lon="11.5554303"><ele>70.0</ele><time>2026-04-17T16:48:16.384Z</time></trkpt><trkpt lat="45.6578654" lon="11.5553238"><ele>70.0</ele><time>2026-04-17T16:48:17.383Z</time></trkpt><trkpt lat="45.6578434" lon="11.5552187"><ele>70.0</ele><time>2026-04-17T16:48:18.386Z</time></trkpt><trkpt lat="45.6578209" lon="11.5551139"><ele>70.0</ele><time>2026-04-17T16:48:19.384Z</time></trkpt><trkpt lat="45.6577978" lon="11.5550131"><ele>70.0</ele><time>2026-04-17T16:48:20.384Z</time></trkpt><trkpt lat="45.6577745" lon="11.5549125"><ele>70.0</ele><time>2026-04-17T16:48:21.382Z</time></trkpt><trkpt lat="45.6577512" lon="11.5548113"><ele>70.0</ele><time>2026-04-17T16:48:22.384Z</time></trkpt><trkpt lat="45.6577278" lon="11.5547104"><ele>70.0</ele><time>2026-04-17T16:48:23.388Z</time></trkpt><trkpt lat="45.657705" lon="11.5546119"><ele>70.0</ele><time>2026-04-17T16:48:24.384Z</time></trkpt><trkpt lat="45.6576821" lon="11.5545158"><ele>70.0</ele><time>2026-04-17T16:48:25.384Z</time></trkpt><trkpt lat="45.6576594" lon="11.554423"><ele>70.0</ele><time>2026-04-17T16:48:26.382Z</time></trkpt><trkpt lat="45.6576368" lon="11.554331"><ele>70.0</ele><time>2026-04-17T16:48:27.382Z</time></trkpt><trkpt lat="45.6576152" lon="11.5542424"><ele>70.0</ele><time>2026-04-17T16:48:28.383Z</time></trkpt><trkpt lat="45.6575838" lon="11.5541635"><ele>70.0</ele><time>2026-04-17T16:48:29.385Z</time></trkpt><trkpt lat="45.6575351" lon="11.5541064"><ele>69.85714285714286</ele><time>2026-04-17T16:48:30.382Z</time></trkpt><trkpt lat="45.6574738" lon="11.5540744"><ele>69.71428571428572</ele><time>2026-04-17T16:48:31.382Z</time></trkpt><trkpt lat="45.6574095" lon="11.554065"><ele>69.57142857142857</ele><time>2026-04-17T16:48:32.384Z</time></trkpt><trkpt lat="45.6573441" lon="11.5540769"><ele>69.42857142857143</ele><time>2026-04-17T16:48:33.386Z</time></trkpt><trkpt lat="45.6572817" lon="11.5540917"><ele>69.28571428571429</ele><time>2026-04-17T16:48:34.381Z</time></trkpt><trkpt lat="45.6572192" lon="11.5541026"><ele>69.14285714285714</ele><time>2026-04-17T16:48:35.38Z</time></trkpt><trkpt lat="45.657155" lon="11.5541145"><ele>69.0</ele><time>2026-04-17T16:48:36.383Z</time></trkpt><trkpt lat="45.6570329" lon="11.5541466"><ele>69.0</ele><time>2026-04-17T16:48:38.384Z</time></trkpt><trkpt lat="45.6569154" lon="11.5541847"><ele>69.0</ele><time>2026-04-17T16:48:40.381Z</time></trkpt><trkpt lat="45.6567953" lon="11.5542259"><ele>69.0</ele><time>2026-04-17T16:48:42.381Z</time></trkpt><trkpt lat="45.6567317" lon="11.5542466"><ele>69.0</ele><time>2026-04-17T16:48:43.386Z</time></trkpt><trkpt lat="45.6566688" lon="11.5542659"><ele>69.0</ele><time>2026-04-17T16:48:44.383Z</time></trkpt><trkpt lat="45.6565456" lon="11.5542914"><ele>69.0</ele><time>2026-04-17T16:48:46.382Z</time></trkpt><trkpt lat="45.6564826" lon="11.5543054"><ele>69.0</ele><time>2026-04-17T16:48:47.383Z</time></trkpt><trkpt lat="45.6563622" lon="11.5543556"><ele>69.0</ele><time>2026-04-17T16:48:49.383Z</time></trkpt><trkpt lat="45.6563055" lon="11.5543964"><ele>69.0</ele><time>2026-04-17T16:48:50.382Z</time></trkpt><trkpt lat="45.6562097" lon="11.5545031"><ele>69.0</ele><time>2026-04-17T16:48:52.38Z</time></trkpt><trkpt lat="45.6561637" lon="11.5545659"><ele>69.0</ele><time>2026-04-17T16:48:53.386Z</time></trkpt><trkpt lat="45.6561179" lon="11.5546341"><ele>68.83333333333333</ele><time>2026-04-17T16:48:54.384Z</time></trkpt><trkpt lat="45.6560683" lon="11.5547003"><ele>68.66666666666667</ele><time>2026-04-17T16:48:55.382Z</time></trkpt><trkpt lat="45.6560137" lon="11.5547661"><ele>68.5</ele><time>2026-04-17T16:48:56.383Z</time></trkpt><trkpt lat="45.6559652" lon="11.5548284"><ele>68.33333333333334</ele><time>2026-04-17T16:48:57.384Z</time></trkpt><trkpt lat="45.6558621" lon="11.5549147"><ele>68.16666666666667</ele><time>2026-04-17T16:48:59.385Z</time></trkpt><trkpt lat="45.6557437" lon="11.55495"><ele>68.0</ele><time>2026-04-17T16:49:01.385Z</time></trkpt><trkpt lat="45.6556782" lon="11.5549542"><ele>67.99999999999999</ele><time>2026-04-17T16:49:02.385Z</time></trkpt><trkpt lat="45.6556136" lon="11.5549533"><ele>68.0</ele><time>2026-04-17T16:49:03.386Z</time></trkpt><trkpt lat="45.6555485" lon="11.554952"><ele>68.0</ele><time>2026-04-17T16:49:04.385Z</time></trkpt><trkpt lat="45.6554822" lon="11.5549495"><ele>68.0</ele><time>2026-04-17T16:49:05.385Z</time></trkpt><trkpt lat="45.6554171" lon="11.5549467"><ele>68.0</ele><time>2026-04-17T16:49:06.388Z</time></trkpt><trkpt lat="45.655351" lon="11.5549452"><ele>67.99999999999999</ele><time>2026-04-17T16:49:07.386Z</time></trkpt><trkpt lat="45.6552848" lon="11.5549471"><ele>68.0</ele><time>2026-04-17T16:49:08.386Z</time></trkpt><trkpt lat="45.6552183" lon="11.5549508"><ele>67.71428571428571</ele><time>2026-04-17T16:49:09.385Z</time></trkpt><trkpt lat="45.6551519" lon="11.5549581"><ele>67.42857142857143</ele><time>2026-04-17T16:49:10.385Z</time></trkpt><trkpt lat="45.6550873" lon="11.5549632"><ele>67.14285714285714</ele><time>2026-04-17T16:49:11.383Z</time></trkpt><trkpt lat="45.6550209" lon="11.5549669"><ele>66.85714285714286</ele><time>2026-04-17T16:49:12.384Z</time></trkpt><trkpt lat="45.6549552" lon="11.5549724"><ele>66.57142857142857</ele><time>2026-04-17T16:49:13.39Z</time></trkpt><trkpt lat="45.6548893" lon="11.5549793"><ele>66.28571428571428</ele><time>2026-04-17T16:49:14.384Z</time></trkpt><trkpt lat="45.6548262" lon="11.5549841"><ele>66.0</ele><time>2026-04-17T16:49:15.385Z</time></trkpt><trkpt lat="45.6547627" lon="11.5549884"><ele>66.0</ele><time>2026-04-17T16:49:16.386Z</time></trkpt><trkpt lat="45.6546967" lon="11.554993"><ele>66.0</ele><time>2026-04-17T16:49:17.385Z</time></trkpt><trkpt lat="45.654629" lon="11.5549969"><ele>66.0</ele><time>2026-04-17T16:49:18.385Z</time></trkpt><trkpt lat="45.6545595" lon="11.5550013"><ele>66.0</ele><time>2026-04-17T16:49:19.385Z</time></trkpt><trkpt lat="45.6544893" lon="11.5550056"><ele>66.0</ele><time>2026-04-17T16:49:20.384Z</time></trkpt><trkpt lat="45.6544207" lon="11.5550046"><ele>66.0</ele><time>2026-04-17T16:49:21.384Z</time></trkpt><trkpt lat="45.6543523" lon="11.5550066"><ele>66.0</ele><time>2026-04-17T16:49:22.387Z</time></trkpt><trkpt lat="45.6542843" lon="11.5550075"><ele>66.14285714285714</ele><time>2026-04-17T16:49:23.389Z</time></trkpt><trkpt lat="45.6542165" lon="11.5550064"><ele>66.28571428571429</ele><time>2026-04-17T16:49:24.385Z</time></trkpt><trkpt lat="45.6541457" lon="11.5550045"><ele>66.42857142857143</ele><time>2026-04-17T16:49:25.385Z</time></trkpt><trkpt lat="45.6540787" lon="11.5550054"><ele>66.57142857142857</ele><time>2026-04-17T16:49:26.384Z</time></trkpt><trkpt lat="45.6540108" lon="11.5550079"><ele>66.71428571428571</ele><time>2026-04-17T16:49:27.385Z</time></trkpt><trkpt lat="45.6539424" lon="11.5550125"><ele>66.85714285714286</ele><time>2026-04-17T16:49:28.386Z</time></trkpt><trkpt lat="45.6538759" lon="11.5550171"><ele>67.0</ele><time>2026-04-17T16:49:29.385Z</time></trkpt><trkpt lat="45.6538093" lon="11.5550222"><ele>67.0</ele><time>2026-04-17T16:49:30.385Z</time></trkpt><trkpt lat="45.6536859" lon="11.5550349"><ele>67.0</ele><time>2026-04-17T16:49:32.385Z</time></trkpt><trkpt lat="45.653561" lon="11.5550464"><ele>67.0</ele><time>2026-04-17T16:49:34.385Z</time></trkpt><trkpt lat="45.6534388" lon="11.5550658"><ele>67.0</ele><time>2026-04-17T16:49:36.385Z</time></trkpt><trkpt lat="45.6533197" lon="11.5550775"><ele>67.0</ele><time>2026-04-17T16:49:38.384Z</time></trkpt><trkpt lat="45.6531958" lon="11.5550764"><ele>67.0</ele><time>2026-04-17T16:49:40.381Z</time></trkpt><trkpt lat="45.6531329" lon="11.5550725"><ele>67.0</ele><time>2026-04-17T16:49:41.384Z</time></trkpt><trkpt lat="45.6530689" lon="11.5550699"><ele>67.0</ele><time>2026-04-17T16:49:42.384Z</time></trkpt><trkpt lat="45.6530055" lon="11.5550674"><ele>67.0</ele><time>2026-04-17T16:49:43.387Z</time></trkpt><trkpt lat="45.6528816" lon="11.5550512"><ele>67.0</ele><time>2026-04-17T16:49:45.384Z</time></trkpt><trkpt lat="45.652767" lon="11.5549922"><ele>66.66666666666666</ele><time>2026-04-17T16:49:47.387Z</time></trkpt><trkpt lat="45.6527091" lon="11.5549475"><ele>66.33333333333333</ele><time>2026-04-17T16:49:48.386Z</time></trkpt><trkpt lat="45.6526542" lon="11.5549017"><ele>66.0</ele><time>2026-04-17T16:49:49.387Z</time></trkpt><trkpt lat="45.652553" lon="11.5547923"><ele>65.66666666666667</ele><time>2026-04-17T16:49:51.386Z</time></trkpt><trkpt lat="45.6525037" lon="11.5547353"><ele>65.33333333333334</ele><time>2026-04-17T16:49:52.384Z</time></trkpt><trkpt lat="45.652407" lon="11.5546334"><ele>65.0</ele><time>2026-04-17T16:49:54.385Z</time></trkpt><trkpt lat="45.6522974" lon="11.5545614"><ele>65.0</ele><time>2026-04-17T16:49:56.385Z</time></trkpt><trkpt lat="45.6521853" lon="11.5545069"><ele>65.0</ele><time>2026-04-17T16:49:58.386Z</time></trkpt><trkpt lat="45.6520756" lon="11.5544691"><ele>65.0</ele><time>2026-04-17T16:50:00.385Z</time></trkpt><trkpt lat="45.6520083" lon="11.5545141"><ele>65.0</ele><time>2026-04-17T16:50:02.381Z</time></trkpt><trkpt lat="45.6520005" lon="11.5546352"><ele>65.0</ele><time>2026-04-17T16:50:04.383Z</time></trkpt><trkpt lat="45.651995" lon="11.5547748"><ele>65.0</ele><time>2026-04-17T16:50:06.383Z</time></trkpt><trkpt lat="45.651985" lon="11.5549008"><ele>65.0</ele><time>2026-04-17T16:50:08.382Z</time></trkpt><trkpt lat="45.651975" lon="11.5550255"><ele>65.0</ele><time>2026-04-17T16:50:10.385Z</time></trkpt><trkpt lat="45.6519672" lon="11.5551357"><ele>65.0</ele><time>2026-04-17T16:50:12.383Z</time></trkpt><trkpt lat="45.6519728" lon="11.5552325"><ele>65.0</ele><time>2026-04-17T16:50:14.385Z</time></trkpt><trkpt lat="45.6519797" lon="11.5553474"><ele>65.0</ele><time>2026-04-17T16:50:17.384Z</time></trkpt><trkpt lat="45.6519996" lon="11.555448"><ele>65.14285714285715</ele><time>2026-04-17T16:50:20.385Z</time></trkpt><trkpt lat="45.6520125" lon="11.5555535"><ele>65.28571428571429</ele><time>2026-04-17T16:50:24.384Z</time></trkpt><trkpt lat="45.6519901" lon="11.5556406"><ele>65.42857142857143</ele><time>2026-04-17T16:50:27.385Z</time></trkpt><trkpt lat="45.6519309" lon="11.5555949"><ele>65.57142857142858</ele><time>2026-04-17T16:50:34.385Z</time></trkpt><trkpt lat="45.6519087" lon="11.555501"><ele>65.71428571428572</ele><time>2026-04-17T16:50:37.385Z</time></trkpt><trkpt lat="45.6518749" lon="11.5554016"><ele>65.85714285714286</ele><time>2026-04-17T16:50:40.386Z</time></trkpt><trkpt lat="45.6518362" lon="11.5553122"><ele>66.0</ele><time>2026-04-17T16:50:43.389Z</time></trkpt><trkpt lat="45.6517924" lon="11.5552123"><ele>66.0</ele><time>2026-04-17T16:50:46.385Z</time></trkpt><trkpt lat="45.6517533" lon="11.555099"><ele>66.0</ele><time>2026-04-17T16:50:49.385Z</time></trkpt><trkpt lat="45.6517145" lon="11.5549852"><ele>66.0</ele><time>2026-04-17T16:50:52.386Z</time></trkpt><trkpt lat="45.6516698" lon="11.5548733"><ele>66.0</ele><time>2026-04-17T16:50:55.384Z</time></trkpt><trkpt lat="45.6516329" lon="11.5547973"><ele>66.0</ele><time>2026-04-17T16:50:57.385Z</time></trkpt><trkpt lat="45.6515806" lon="11.5546876"><ele>66.0</ele><time>2026-04-17T16:51:00.384Z</time></trkpt><trkpt lat="45.6515452" lon="11.5546095"><ele>65.71428571428571</ele><time>2026-04-17T16:51:02.385Z</time></trkpt><trkpt lat="45.6515054" lon="11.5545369"><ele>65.42857142857143</ele><time>2026-04-17T16:51:04.385Z</time></trkpt><trkpt lat="45.6514631" lon="11.5544691"><ele>65.14285714285714</ele><time>2026-04-17T16:51:06.386Z</time></trkpt><trkpt lat="45.6514189" lon="11.554399"><ele>64.85714285714286</ele><time>2026-04-17T16:51:08.386Z</time></trkpt><trkpt lat="45.6513698" lon="11.5543378"><ele>64.57142857142857</ele><time>2026-04-17T16:51:10.384Z</time></trkpt><trkpt lat="45.6513203" lon="11.5542774"><ele>64.28571428571428</ele><time>2026-04-17T16:51:12.383Z</time></trkpt><trkpt lat="45.651268" lon="11.5542206"><ele>64.0</ele><time>2026-04-17T16:51:14.386Z</time></trkpt><trkpt lat="45.6512115" lon="11.5541655"><ele>64.0</ele><time>2026-04-17T16:51:16.376Z</time></trkpt><trkpt lat="45.6511525" lon="11.5541093"><ele>63.99999999999999</ele><time>2026-04-17T16:51:18.385Z</time></trkpt><trkpt lat="45.6510908" lon="11.5540525"><ele>64.0</ele><time>2026-04-17T16:51:20.384Z</time></trkpt><trkpt lat="45.6510283" lon="11.553995"><ele>64.0</ele><time>2026-04-17T16:51:22.384Z</time></trkpt><trkpt lat="45.6509645" lon="11.553937"><ele>63.99999999999999</ele><time>2026-04-17T16:51:24.387Z</time></trkpt><trkpt lat="45.6508976" lon="11.5538812"><ele>64.0</ele><time>2026-04-17T16:51:26.385Z</time></trkpt><trkpt lat="45.6508312" lon="11.5538331"><ele>64.0</ele><time>2026-04-17T16:51:28.384Z</time></trkpt><trkpt lat="45.6507634" lon="11.5537918"><ele>64.2</ele><time>2026-04-17T16:51:30.385Z</time></trkpt><trkpt lat="45.6506909" lon="11.5537276"><ele>64.4</ele><time>2026-04-17T16:51:32.386Z</time></trkpt><trkpt lat="45.6506152" lon="11.5536634"><ele>64.6</ele><time>2026-04-17T16:51:34.385Z</time></trkpt><trkpt lat="45.6505384" lon="11.5535991"><ele>64.8</ele><time>2026-04-17T16:51:36.385Z</time></trkpt><trkpt lat="45.6504547" lon="11.5535333"><ele>65.0</ele><time>2026-04-17T16:51:38.386Z</time></trkpt><trkpt lat="45.6503733" lon="11.5534675"><ele>65.2</ele><time>2026-04-17T16:51:40.387Z</time></trkpt><trkpt lat="45.6502865" lon="11.5534063"><ele>65.4</ele><time>2026-04-17T16:51:42.382Z</time></trkpt><trkpt lat="45.6501979" lon="11.5533383"><ele>65.6</ele><time>2026-04-17T16:51:44.385Z</time></trkpt><trkpt lat="45.650108" lon="11.5532607"><ele>65.8</ele><time>2026-04-17T16:51:46.386Z</time></trkpt><trkpt lat="45.6500073" lon="11.5531962"><ele>66.0</ele><time>2026-04-17T16:51:48.384Z</time></trkpt><trkpt lat="45.649906" lon="11.5531383"><ele>66.0</ele><time>2026-04-17T16:51:50.385Z</time></trkpt><trkpt lat="45.6498013" lon="11.5530942"><ele>66.0</ele><time>2026-04-17T16:51:52.386Z</time></trkpt><trkpt lat="45.649691" lon="11.5530613"><ele>66.0</ele><time>2026-04-17T16:51:54.386Z</time></trkpt><trkpt lat="45.6495708" lon="11.5530376"><ele>66.0</ele><time>2026-04-17T16:51:56.386Z</time></trkpt><trkpt lat="45.6494457" lon="11.5530307"><ele>66.0</ele><time>2026-04-17T16:51:58.385Z</time></trkpt><trkpt lat="45.6493194" lon="11.5530456"><ele>66.0</ele><time>2026-04-17T16:52:00.384Z</time></trkpt><trkpt lat="45.6492537" lon="11.5530618"><ele>66.0</ele><time>2026-04-17T16:52:01.386Z</time></trkpt><trkpt lat="45.649189" lon="11.5530835"><ele>66.0</ele><time>2026-04-17T16:52:02.386Z</time></trkpt><trkpt lat="45.6491243" lon="11.5531153"><ele>66.0</ele><time>2026-04-17T16:52:03.388Z</time></trkpt><trkpt lat="45.6490612" lon="11.5531431"><ele>66.0</ele><time>2026-04-17T16:52:04.384Z</time></trkpt><trkpt lat="45.6489992" lon="11.5531696"><ele>66.0</ele><time>2026-04-17T16:52:05.387Z</time></trkpt><trkpt lat="45.6489381" lon="11.5532034"><ele>66.0</ele><time>2026-04-17T16:52:06.376Z</time></trkpt><trkpt lat="45.6488791" lon="11.5532409"><ele>66.0</ele><time>2026-04-17T16:52:07.385Z</time></trkpt><trkpt lat="45.6488172" lon="11.5532847"><ele>66.0</ele><time>2026-04-17T16:52:08.376Z</time></trkpt><trkpt lat="45.6487581" lon="11.5533337"><ele>66.0</ele><time>2026-04-17T16:52:09.381Z</time></trkpt><trkpt lat="45.6487003" lon="11.5533842"><ele>66.0</ele><time>2026-04-17T16:52:10.381Z</time></trkpt><trkpt lat="45.6486428" lon="11.5534372"><ele>66.0</ele><time>2026-04-17T16:52:11.385Z</time></trkpt><trkpt lat="45.6485876" lon="11.5534894"><ele>65.85714285714286</ele><time>2026-04-17T16:52:12.385Z</time></trkpt><trkpt lat="45.6485336" lon="11.5535461"><ele>65.71428571428572</ele><time>2026-04-17T16:52:13.39Z</time></trkpt><trkpt lat="45.6484773" lon="11.5536071"><ele>65.57142857142858</ele><time>2026-04-17T16:52:14.384Z</time></trkpt><trkpt lat="45.6484196" lon="11.5536688"><ele>65.42857142857143</ele><time>2026-04-17T16:52:15.385Z</time></trkpt><trkpt lat="45.6483618" lon="11.5537319"><ele>65.28571428571429</ele><time>2026-04-17T16:52:16.385Z</time></trkpt><trkpt lat="45.6483049" lon="11.5537953"><ele>65.14285714285715</ele><time>2026-04-17T16:52:17.384Z</time></trkpt><trkpt lat="45.6482481" lon="11.5538587"><ele>65.0</ele><time>2026-04-17T16:52:18.386Z</time></trkpt><trkpt lat="45.6481876" lon="11.5539188"><ele>65.0</ele><time>2026-04-17T16:52:19.385Z</time></trkpt><trkpt lat="45.6481279" lon="11.5539792"><ele>65.0</ele><time>2026-04-17T16:52:20.385Z</time></trkpt><trkpt lat="45.6480728" lon="11.5540404"><ele>65.0</ele><time>2026-04-17T16:52:21.385Z</time></trkpt><trkpt lat="45.6480169" lon="11.5541025"><ele>65.0</ele><time>2026-04-17T16:52:22.384Z</time></trkpt><trkpt lat="45.64796" lon="11.5541544"><ele>65.0</ele><time>2026-04-17T16:52:23.398Z</time></trkpt><trkpt lat="45.6478458" lon="11.5542043"><ele>65.0</ele><time>2026-04-17T16:52:25.389Z</time></trkpt><trkpt lat="45.6477794" lon="11.5542211"><ele>64.83333333333334</ele><time>2026-04-17T16:52:26.388Z</time></trkpt><trkpt lat="45.6477182" lon="11.5542514"><ele>64.66666666666667</ele><time>2026-04-17T16:52:27.393Z</time></trkpt><trkpt lat="45.6476222" lon="11.5543353"><ele>64.5</ele><time>2026-04-17T16:52:29.395Z</time></trkpt><trkpt lat="45.6475524" lon="11.5544402"><ele>64.33333333333333</ele><time>2026-04-17T16:52:31.396Z</time></trkpt><trkpt lat="45.6474969" lon="11.5545228"><ele>64.16666666666666</ele><time>2026-04-17T16:52:33.401Z</time></trkpt><trkpt lat="45.6474577" lon="11.5545975"><ele>64.0</ele><time>2026-04-17T16:52:35.395Z</time></trkpt><trkpt lat="45.6474137" lon="11.5546743"><ele>63.99999999999999</ele><time>2026-04-17T16:52:37.387Z</time></trkpt><trkpt lat="45.6473527" lon="11.5547483"><ele>64.0</ele><time>2026-04-17T16:52:39.394Z</time></trkpt><trkpt lat="45.6472841" lon="11.5548292"><ele>64.0</ele><time>2026-04-17T16:52:41.397Z</time></trkpt><trkpt lat="45.6472144" lon="11.5549062"><ele>64.0</ele><time>2026-04-17T16:52:43.404Z</time></trkpt><trkpt lat="45.6471433" lon="11.554981"><ele>63.99999999999999</ele><time>2026-04-17T16:52:45.398Z</time></trkpt><trkpt lat="45.6470637" lon="11.5550416"><ele>64.0</ele><time>2026-04-17T16:52:47.396Z</time></trkpt><trkpt lat="45.64698" lon="11.5550508"><ele>64.16666666666666</ele><time>2026-04-17T16:52:49.385Z</time></trkpt><trkpt lat="45.6468926" lon="11.5550129"><ele>64.33333333333333</ele><time>2026-04-17T16:52:51.384Z</time></trkpt><trkpt lat="45.6468177" lon="11.5549645"><ele>64.5</ele><time>2026-04-17T16:52:53.39Z</time></trkpt><trkpt lat="45.6467385" lon="11.5549169"><ele>64.66666666666667</ele><time>2026-04-17T16:52:55.384Z</time></trkpt><trkpt lat="45.646656" lon="11.5548664"><ele>64.83333333333334</ele><time>2026-04-17T16:52:57.385Z</time></trkpt><trkpt lat="45.6465731" lon="11.5548201"><ele>65.0</ele><time>2026-04-17T16:52:59.384Z</time></trkpt><trkpt lat="45.646495" lon="11.5547783"><ele>65.0</ele><time>2026-04-17T16:53:01.385Z</time></trkpt><trkpt lat="45.6464134" lon="11.5547222"><ele>65.0</ele><time>2026-04-17T16:53:03.387Z</time></trkpt><trkpt lat="45.6463269" lon="11.5546771"><ele>65.0</ele><time>2026-04-17T16:53:05.385Z</time></trkpt><trkpt lat="45.6462332" lon="11.5546236"><ele>65.0</ele><time>2026-04-17T16:53:07.385Z</time></trkpt><trkpt lat="45.6461433" lon="11.5545509"><ele>65.0</ele><time>2026-04-17T16:53:09.384Z</time></trkpt><trkpt lat="45.6460585" lon="11.554477"><ele>65.0</ele><time>2026-04-17T16:53:11.384Z</time></trkpt><trkpt lat="45.645981" lon="11.5543815"><ele>65.0</ele><time>2026-04-17T16:53:13.388Z</time></trkpt><trkpt lat="45.6459046" lon="11.5542774"><ele>65.0</ele><time>2026-04-17T16:53:15.378Z</time></trkpt><trkpt lat="45.6458255" lon="11.5541698"><ele>65.0</ele><time>2026-04-17T16:53:17.385Z</time></trkpt><trkpt lat="45.645739" lon="11.5540836"><ele>65.0</ele><time>2026-04-17T16:53:19.384Z</time></trkpt><trkpt lat="45.6456435" lon="11.5540323"><ele>65.0</ele><time>2026-04-17T16:53:21.382Z</time></trkpt><trkpt lat="45.6455411" lon="11.5539891"><ele>65.0</ele><time>2026-04-17T16:53:23.387Z</time></trkpt><trkpt lat="45.6454353" lon="11.5539444"><ele>65.0</ele><time>2026-04-17T16:53:25.384Z</time></trkpt><trkpt lat="45.6453262" lon="11.5538981"><ele>65.0</ele><time>2026-04-17T16:53:27.383Z</time></trkpt><trkpt lat="45.6452182" lon="11.5538504"><ele>65.0</ele><time>2026-04-17T16:53:29.383Z</time></trkpt><trkpt lat="45.6451168" lon="11.5537986"><ele>64.6</ele><time>2026-04-17T16:53:31.382Z</time></trkpt><trkpt lat="45.6450176" lon="11.5537523"><ele>64.2</ele><time>2026-04-17T16:53:33.385Z</time></trkpt><trkpt lat="45.644911" lon="11.5536946"><ele>63.8</ele><time>2026-04-17T16:53:35.387Z</time></trkpt><trkpt lat="45.6448044" lon="11.5536308"><ele>63.4</ele><time>2026-04-17T16:53:37.386Z</time></trkpt><trkpt lat="45.6447082" lon="11.5535855"><ele>63.0</ele><time>2026-04-17T16:53:39.387Z</time></trkpt><trkpt lat="45.6446025" lon="11.5535383"><ele>63.0</ele><time>2026-04-17T16:53:41.387Z</time></trkpt><trkpt lat="45.6445008" lon="11.5534892"><ele>63.0</ele><time>2026-04-17T16:53:43.383Z</time></trkpt><trkpt lat="45.6443954" lon="11.5534321"><ele>63.0</ele><time>2026-04-17T16:53:45.383Z</time></trkpt><trkpt lat="45.6442901" lon="11.55339"><ele>63.0</ele><time>2026-04-17T16:53:47.381Z</time></trkpt><trkpt lat="45.6441906" lon="11.5533572"><ele>63.0</ele><time>2026-04-17T16:53:49.383Z</time></trkpt><trkpt lat="45.6440822" lon="11.5533064"><ele>63.0</ele><time>2026-04-17T16:53:51.381Z</time></trkpt><trkpt lat="45.6439828" lon="11.5532506"><ele>63.0</ele><time>2026-04-17T16:53:53.384Z</time></trkpt><trkpt lat="45.6438882" lon="11.5532085"><ele>63.0</ele><time>2026-04-17T16:53:55.384Z</time></trkpt><trkpt lat="45.6437858" lon="11.5531637"><ele>63.0</ele><time>2026-04-17T16:53:57.383Z</time></trkpt><trkpt lat="45.6436918" lon="11.5531233"><ele>63.0</ele><time>2026-04-17T16:53:59.383Z</time></trkpt><trkpt lat="45.6435874" lon="11.5530781"><ele>63.0</ele><time>2026-04-17T16:54:01.399Z</time></trkpt><trkpt lat="45.6434915" lon="11.553029"><ele>63.0</ele><time>2026-04-17T16:54:03.398Z</time></trkpt><trkpt lat="45.6433977" lon="11.5529724"><ele>63.0</ele><time>2026-04-17T16:54:05.393Z</time></trkpt><trkpt lat="45.6432971" lon="11.5528896"><ele>63.0</ele><time>2026-04-17T16:54:07.399Z</time></trkpt><trkpt lat="45.6432169" lon="11.552806"><ele>63.0</ele><time>2026-04-17T16:54:09.397Z</time></trkpt><trkpt lat="45.6431315" lon="11.5527263"><ele>62.8</ele><time>2026-04-17T16:54:11.392Z</time></trkpt><trkpt lat="45.6430442" lon="11.55265"><ele>62.599999999999994</ele><time>2026-04-17T16:54:13.4Z</time></trkpt><trkpt lat="45.6429521" lon="11.5525677"><ele>62.400000000000006</ele><time>2026-04-17T16:54:15.398Z</time></trkpt><trkpt lat="45.64287" lon="11.5524871"><ele>62.2</ele><time>2026-04-17T16:54:17.399Z</time></trkpt><trkpt lat="45.6427871" lon="11.5523991"><ele>62.0</ele><time>2026-04-17T16:54:19.399Z</time></trkpt><trkpt lat="45.6427048" lon="11.5523155"><ele>62.0</ele><time>2026-04-17T16:54:21.399Z</time></trkpt><trkpt lat="45.642613" lon="11.5522361"><ele>62.0</ele><time>2026-04-17T16:54:23.4Z</time></trkpt><trkpt lat="45.6425214" lon="11.5521555"><ele>62.0</ele><time>2026-04-17T16:54:25.399Z</time></trkpt><trkpt lat="45.6424261" lon="11.5520723"><ele>62.0</ele><time>2026-04-17T16:54:27.4Z</time></trkpt><trkpt lat="45.642328" lon="11.5519907"><ele>62.0</ele><time>2026-04-17T16:54:29.4Z</time></trkpt><trkpt lat="45.6422315" lon="11.5519186"><ele>61.8</ele><time>2026-04-17T16:54:31.393Z</time></trkpt><trkpt lat="45.6421333" lon="11.5518324"><ele>61.6</ele><time>2026-04-17T16:54:33.384Z</time></trkpt><trkpt lat="45.6420383" lon="11.5517648"><ele>61.39999999999999</ele><time>2026-04-17T16:54:35.373Z</time></trkpt><trkpt lat="45.6419297" lon="11.5517376"><ele>61.199999999999996</ele><time>2026-04-17T16:54:37.385Z</time></trkpt><trkpt lat="45.6418139" lon="11.5517172"><ele>61.0</ele><time>2026-04-17T16:54:39.38Z</time></trkpt><trkpt lat="45.6417153" lon="11.5516758"><ele>60.599999999999994</ele><time>2026-04-17T16:54:41.381Z</time></trkpt><trkpt lat="45.6416113" lon="11.5516317"><ele>60.199999999999996</ele><time>2026-04-17T16:54:43.385Z</time></trkpt><trkpt lat="45.6415119" lon="11.5515969"><ele>59.800000000000004</ele><time>2026-04-17T16:54:45.384Z</time></trkpt><trkpt lat="45.6414012" lon="11.5515688"><ele>59.400000000000006</ele><time>2026-04-17T16:54:47.382Z</time></trkpt><trkpt lat="45.6413029" lon="11.5515326"><ele>59.0</ele><time>2026-04-17T16:54:49.382Z</time></trkpt><trkpt lat="45.6411965" lon="11.5514884"><ele>59.0</ele><time>2026-04-17T16:54:51.382Z</time></trkpt><trkpt lat="45.6410924" lon="11.5514622"><ele>59.00000000000001</ele><time>2026-04-17T16:54:53.386Z</time></trkpt><trkpt lat="45.6409896" lon="11.5514348"><ele>59.00000000000001</ele><time>2026-04-17T16:54:55.382Z</time></trkpt><trkpt lat="45.6408925" lon="11.5513955"><ele>59.0</ele><time>2026-04-17T16:54:57.383Z</time></trkpt><trkpt lat="45.6407931" lon="11.5513576"><ele>59.0</ele><time>2026-04-17T16:54:59.384Z</time></trkpt><trkpt lat="45.6406944" lon="11.5513174"><ele>59.0</ele><time>2026-04-17T16:55:01.38Z</time></trkpt><trkpt lat="45.6405989" lon="11.5512846"><ele>59.00000000000001</ele><time>2026-04-17T16:55:03.381Z</time></trkpt><trkpt lat="45.6405042" lon="11.5512544"><ele>59.00000000000001</ele><time>2026-04-17T16:55:05.38Z</time></trkpt><trkpt lat="45.6404093" lon="11.5512113"><ele>59.0</ele><time>2026-04-17T16:55:07.374Z</time></trkpt><trkpt lat="45.6403087" lon="11.5511665"><ele>59.0</ele><time>2026-04-17T16:55:09.383Z</time></trkpt><trkpt lat="45.6402116" lon="11.5511577"><ele>59.00000000000001</ele><time>2026-04-17T16:55:11.382Z</time></trkpt><trkpt lat="45.640118" lon="11.5511763"><ele>59.0</ele><time>2026-04-17T16:55:13.385Z</time></trkpt><trkpt lat="45.6400309" lon="11.5511869"><ele>59.0</ele><time>2026-04-17T16:55:15.383Z</time></trkpt><trkpt lat="45.6399561" lon="11.5512069"><ele>59.0</ele><time>2026-04-17T16:55:17.383Z</time></trkpt><trkpt lat="45.6398856" lon="11.5511986"><ele>59.00000000000001</ele><time>2026-04-17T16:56:14.394Z</time></trkpt><trkpt lat="45.6397929" lon="11.5512082"><ele>59.0</ele><time>2026-04-17T16:56:17.396Z</time></trkpt><trkpt lat="45.6397177" lon="11.5512273"><ele>59.00000000000001</ele><time>2026-04-17T16:56:19.398Z</time></trkpt><trkpt lat="45.6396439" lon="11.551234"><ele>59.0</ele><time>2026-04-17T16:56:21.399Z</time></trkpt><trkpt lat="45.6395723" lon="11.5512113"><ele>59.0</ele><time>2026-04-17T16:56:23.398Z</time></trkpt><trkpt lat="45.6394961" lon="11.551181"><ele>59.0</ele><time>2026-04-17T16:56:25.396Z</time></trkpt><trkpt lat="45.6394156" lon="11.5511375"><ele>59.00000000000001</ele><time>2026-04-17T16:56:27.4Z</time></trkpt><trkpt lat="45.6393356" lon="11.5510965"><ele>59.0</ele><time>2026-04-17T16:56:29.397Z</time></trkpt><trkpt lat="45.6392545" lon="11.5510501"><ele>59.00000000000001</ele><time>2026-04-17T16:56:31.382Z</time></trkpt><trkpt lat="45.6391785" lon="11.5510038"><ele>59.0</ele><time>2026-04-17T16:56:33.383Z</time></trkpt><trkpt lat="45.639101" lon="11.550952"><ele>59.0</ele><time>2026-04-17T16:56:35.377Z</time></trkpt><trkpt lat="45.6390253" lon="11.5509088"><ele>59.0</ele><time>2026-04-17T16:56:37.381Z</time></trkpt><trkpt lat="45.6389538" lon="11.5508576"><ele>59.00000000000001</ele><time>2026-04-17T16:56:39.382Z</time></trkpt><trkpt lat="45.6388796" lon="11.550798"><ele>59.0</ele><time>2026-04-17T16:56:41.382Z</time></trkpt><trkpt lat="45.6388032" lon="11.5507463"><ele>59.0</ele><time>2026-04-17T16:56:43.384Z</time></trkpt><trkpt lat="45.6387231" lon="11.5506909"><ele>59.00000000000001</ele><time>2026-04-17T16:56:45.383Z</time></trkpt><trkpt lat="45.6386409" lon="11.5506329"><ele>59.00000000000001</ele><time>2026-04-17T16:56:47.385Z</time></trkpt><trkpt lat="45.6385612" lon="11.5505729"><ele>59.0</ele><time>2026-04-17T16:56:49.383Z</time></trkpt><trkpt lat="45.6384756" lon="11.5505193"><ele>59.0</ele><time>2026-04-17T16:56:51.382Z</time></trkpt><trkpt lat="45.6383875" lon="11.550462"><ele>59.0</ele><time>2026-04-17T16:56:53.385Z</time></trkpt><trkpt lat="45.6383002" lon="11.5504038"><ele>59.00000000000001</ele><time>2026-04-17T16:56:55.382Z</time></trkpt><trkpt lat="45.6382139" lon="11.550348"><ele>59.00000000000001</ele><time>2026-04-17T16:56:57.384Z</time></trkpt><trkpt lat="45.6381334" lon="11.5502909"><ele>59.0</ele><time>2026-04-17T16:56:59.382Z</time></trkpt><trkpt lat="45.6380532" lon="11.5502336"><ele>59.0</ele><time>2026-04-17T16:57:01.383Z</time></trkpt><trkpt lat="45.6379728" lon="11.5501777"><ele>58.800000000000004</ele><time>2026-04-17T16:57:03.386Z</time></trkpt><trkpt lat="45.63789" lon="11.5501222"><ele>58.60000000000001</ele><time>2026-04-17T16:57:05.382Z</time></trkpt><trkpt lat="45.6378033" lon="11.550074"><ele>58.4</ele><time>2026-04-17T16:57:07.382Z</time></trkpt><trkpt lat="45.637721" lon="11.5500156"><ele>58.2</ele><time>2026-04-17T16:57:09.379Z</time></trkpt><trkpt lat="45.6376344" lon="11.5499523"><ele>58.0</ele><time>2026-04-17T16:57:11.379Z</time></trkpt><trkpt lat="45.6375435" lon="11.5499103"><ele>58.4</ele><time>2026-04-17T16:57:13.383Z</time></trkpt><trkpt lat="45.6374539" lon="11.5498575"><ele>58.8</ele><time>2026-04-17T16:57:15.382Z</time></trkpt><trkpt lat="45.6373636" lon="11.5498013"><ele>59.2</ele><time>2026-04-17T16:57:17.385Z</time></trkpt><trkpt lat="45.6372688" lon="11.5497509"><ele>59.6</ele><time>2026-04-17T16:57:19.383Z</time></trkpt><trkpt lat="45.6371747" lon="11.5496953"><ele>60.0</ele><time>2026-04-17T16:57:21.382Z</time></trkpt><trkpt lat="45.6370838" lon="11.5496407"><ele>60.0</ele><time>2026-04-17T16:57:23.384Z</time></trkpt><trkpt lat="45.6369968" lon="11.5495767"><ele>60.0</ele><time>2026-04-17T16:57:25.383Z</time></trkpt><trkpt lat="45.6369089" lon="11.549515"><ele>60.0</ele><time>2026-04-17T16:57:27.382Z</time></trkpt><trkpt lat="45.6368184" lon="11.5494493"><ele>60.0</ele><time>2026-04-17T16:57:29.382Z</time></trkpt><trkpt lat="45.636732" lon="11.5493706"><ele>60.0</ele><time>2026-04-17T16:57:31.38Z</time></trkpt><trkpt lat="45.6366471" lon="11.5492808"><ele>59.6</ele><time>2026-04-17T16:57:33.38Z</time></trkpt><trkpt lat="45.6365577" lon="11.5491999"><ele>59.2</ele><time>2026-04-17T16:57:35.381Z</time></trkpt><trkpt lat="45.6364646" lon="11.5491349"><ele>58.8</ele><time>2026-04-17T16:57:37.378Z</time></trkpt><trkpt lat="45.6363658" lon="11.5490721"><ele>58.4</ele><time>2026-04-17T16:57:39.378Z</time></trkpt><trkpt lat="45.6362649" lon="11.5490101"><ele>58.0</ele><time>2026-04-17T16:57:41.381Z</time></trkpt><trkpt lat="45.6361655" lon="11.5489539"><ele>58.0</ele><time>2026-04-17T16:57:43.385Z</time></trkpt><trkpt lat="45.636062" lon="11.5489117"><ele>58.0</ele><time>2026-04-17T16:57:45.381Z</time></trkpt><trkpt lat="45.6359552" lon="11.5488818"><ele>58.0</ele><time>2026-04-17T16:57:47.381Z</time></trkpt><trkpt lat="45.6358477" lon="11.5488355"><ele>58.0</ele><time>2026-04-17T16:57:49.382Z</time></trkpt><trkpt lat="45.6357363" lon="11.5487895"><ele>58.0</ele><time>2026-04-17T16:57:51.382Z</time></trkpt><trkpt lat="45.6356355" lon="11.5487381"><ele>58.0</ele><time>2026-04-17T16:57:53.388Z</time></trkpt><trkpt lat="45.6355746" lon="11.5486803"><ele>58.0</ele><time>2026-04-17T16:57:55.385Z</time></trkpt><trkpt lat="45.6355145" lon="11.5486074"><ele>58.0</ele><time>2026-04-17T16:57:57.381Z</time></trkpt><trkpt lat="45.6354293" lon="11.5485776"><ele>58.0</ele><time>2026-04-17T16:57:59.383Z</time></trkpt><trkpt lat="45.6353245" lon="11.5486346"><ele>58.0</ele><time>2026-04-17T16:58:01.379Z</time></trkpt><trkpt lat="45.6352275" lon="11.5486849"><ele>57.599999999999994</ele><time>2026-04-17T16:58:03.384Z</time></trkpt><trkpt lat="45.6351247" lon="11.5487347"><ele>57.199999999999996</ele><time>2026-04-17T16:58:05.379Z</time></trkpt><trkpt lat="45.6350227" lon="11.5487224"><ele>56.8</ele><time>2026-04-17T16:58:07.383Z</time></trkpt><trkpt lat="45.6349643" lon="11.5485961"><ele>56.4</ele><time>2026-04-17T16:58:09.382Z</time></trkpt><trkpt lat="45.6349194" lon="11.548448"><ele>56.0</ele><time>2026-04-17T16:58:11.381Z</time></trkpt><trkpt lat="45.6348799" lon="11.5482981"><ele>56.0</ele><time>2026-04-17T16:58:13.386Z</time></trkpt><trkpt lat="45.6348321" lon="11.5481522"><ele>56.0</ele><time>2026-04-17T16:58:15.381Z</time></trkpt><trkpt lat="45.6347727" lon="11.5480077"><ele>56.0</ele><time>2026-04-17T16:58:17.381Z</time></trkpt><trkpt lat="45.6347154" lon="11.5478573"><ele>56.0</ele><time>2026-04-17T16:58:19.38Z</time></trkpt><trkpt lat="45.6346573" lon="11.547706"><ele>56.25</ele><time>2026-04-17T16:58:21.381Z</time></trkpt><trkpt lat="45.6345798" lon="11.5475736"><ele>56.5</ele><time>2026-04-17T16:58:23.386Z</time></trkpt><trkpt lat="45.6344833" lon="11.5474764"><ele>56.75</ele><time>2026-04-17T16:58:25.38Z</time></trkpt><trkpt lat="45.6343657" lon="11.547428"><ele>57.0</ele><time>2026-04-17T16:58:27.382Z</time></trkpt><trkpt lat="45.6342542" lon="11.5473946"><ele>56.400000000000006</ele><time>2026-04-17T16:58:29.381Z</time></trkpt><trkpt lat="45.6341415" lon="11.5473581"><ele>55.800000000000004</ele><time>2026-04-17T16:58:31.379Z</time></trkpt><trkpt lat="45.6340268" lon="11.5473325"><ele>55.2</ele><time>2026-04-17T16:58:33.384Z</time></trkpt><trkpt lat="45.6339194" lon="11.5473073"><ele>54.6</ele><time>2026-04-17T16:58:35.386Z</time></trkpt><trkpt lat="45.6338161" lon="11.5472609"><ele>54.0</ele><time>2026-04-17T16:58:37.385Z</time></trkpt><trkpt lat="45.6337163" lon="11.5471981"><ele>53.75</ele><time>2026-04-17T16:58:39.386Z</time></trkpt><trkpt lat="45.6336061" lon="11.5471362"><ele>53.5</ele><time>2026-04-17T16:58:41.381Z</time></trkpt><trkpt lat="45.6334905" lon="11.5470771"><ele>53.25</ele><time>2026-04-17T16:58:43.389Z</time></trkpt><trkpt lat="45.6333815" lon="11.5470087"><ele>53.0</ele><time>2026-04-17T16:58:45.374Z</time></trkpt><trkpt lat="45.6332663" lon="11.546937"><ele>52.85714285714286</ele><time>2026-04-17T16:58:47.382Z</time></trkpt><trkpt lat="45.6332049" lon="11.5469031"><ele>52.71428571428571</ele><time>2026-04-17T16:58:48.382Z</time></trkpt><trkpt lat="45.6331458" lon="11.5468685"><ele>52.57142857142857</ele><time>2026-04-17T16:58:49.382Z</time></trkpt><trkpt lat="45.6330862" lon="11.5468338"><ele>52.42857142857143</ele><time>2026-04-17T16:58:50.374Z</time></trkpt><trkpt lat="45.6329706" lon="11.5467682"><ele>52.28571428571429</ele><time>2026-04-17T16:58:52.381Z</time></trkpt><trkpt lat="45.6329205" lon="11.5467132"><ele>52.14285714285714</ele><time>2026-04-17T16:58:53.385Z</time></trkpt><trkpt lat="45.6328836" lon="11.5466365"><ele>52.0</ele><time>2026-04-17T16:58:54.381Z</time></trkpt><trkpt lat="45.6328372" lon="11.5464641"><ele>52.0</ele><time>2026-04-17T16:58:56.381Z</time></trkpt><trkpt lat="45.6328176" lon="11.5463719"><ele>52.0</ele><time>2026-04-17T16:58:57.38Z</time></trkpt><trkpt lat="45.6327973" lon="11.5462842"><ele>52.0</ele><time>2026-04-17T16:58:58.38Z</time></trkpt><trkpt lat="45.6327756" lon="11.546197"><ele>52.0</ele><time>2026-04-17T16:58:59.38Z</time></trkpt><trkpt lat="45.6327542" lon="11.5461056"><ele>52.0</ele><time>2026-04-17T16:59:00.381Z</time></trkpt><trkpt lat="45.6327316" lon="11.5460153"><ele>52.0</ele><time>2026-04-17T16:59:01.382Z</time></trkpt><trkpt lat="45.6327089" lon="11.5459239"><ele>52.0</ele><time>2026-04-17T16:59:02.382Z</time></trkpt><trkpt lat="45.6326854" lon="11.5458314"><ele>52.0</ele><time>2026-04-17T16:59:03.384Z</time></trkpt><trkpt lat="45.6326624" lon="11.5457387"><ele>52.0</ele><time>2026-04-17T16:59:04.381Z</time></trkpt><trkpt lat="45.6326379" lon="11.5456487"><ele>52.0</ele><time>2026-04-17T16:59:05.382Z</time></trkpt><trkpt lat="45.6326112" lon="11.5455609"><ele>52.0</ele><time>2026-04-17T16:59:06.38Z</time></trkpt><trkpt lat="45.6325741" lon="11.5454809"><ele>52.0</ele><time>2026-04-17T16:59:07.381Z</time></trkpt><trkpt lat="45.6325224" lon="11.5454183"><ele>52.0</ele><time>2026-04-17T16:59:08.383Z</time></trkpt><trkpt lat="45.6324586" lon="11.5453766"><ele>52.0</ele><time>2026-04-17T16:59:09.383Z</time></trkpt><trkpt lat="45.6323938" lon="11.5453569"><ele>51.75</ele><time>2026-04-17T16:59:10.382Z</time></trkpt><trkpt lat="45.6322717" lon="11.5453389"><ele>51.5</ele><time>2026-04-17T16:59:12.381Z</time></trkpt><trkpt lat="45.6321565" lon="11.5453269"><ele>51.25</ele><time>2026-04-17T16:59:14.381Z</time></trkpt><trkpt lat="45.6320466" lon="11.5453122"><ele>51.0</ele><time>2026-04-17T16:59:16.382Z</time></trkpt><trkpt lat="45.6319456" lon="11.5452865"><ele>51.0</ele><time>2026-04-17T16:59:18.381Z</time></trkpt><trkpt lat="45.631845" lon="11.5452712"><ele>51.0</ele><time>2026-04-17T16:59:20.38Z</time></trkpt><trkpt lat="45.6317483" lon="11.5452566"><ele>51.0</ele><time>2026-04-17T16:59:22.38Z</time></trkpt><trkpt lat="45.6316987" lon="11.5451694"><ele>51.0</ele><time>2026-04-17T16:59:25.381Z</time></trkpt><trkpt lat="45.6317121" lon="11.5450777"><ele>51.0</ele><time>2026-04-17T16:59:27.382Z</time></trkpt><trkpt lat="45.6317191" lon="11.5449503"><ele>51.0</ele><time>2026-04-17T16:59:30.38Z</time></trkpt><trkpt lat="45.6317796" lon="11.5449207"><ele>51.0</ele><time>2026-04-17T17:00:31.371Z</time></trkpt><trkpt lat="45.6317796" lon="11.5449207"><ele>51.0</ele><time>2026-04-17T17:00:31.371Z</time></trkpt><trkpt lat="45.6317796" lon="11.5449207"><ele>51.0</ele><time>2026-04-17T17:00:31.371Z</time></trkpt></trkseg></trk></gpx>